<?xml version='1.0' encoding='UTF-8'?>
<gpx version="1.1" creator="https://www.komoot.de" xmlns="http://www.topografix.com/GPX/1/1" xmlns:xsi="http://www.w3.org/2001/XMLSchema-instance" xsi:schemaLocation="http://www.topografix.com/GPX/1/1 http://www.topografix.com/GPX/1/1/gpx.xsd">
  <metadata>
    <name>70_950BenkerjAuenstZeih</name>
    <author>
      <link href="https://www.komoot.de">
        <text>komoot</text>
        <type>text/html</type>
      </link>
    </author>
  </metadata>
  <trk>
    <name>70_950BenkerjAuenstZeih</name>
    <trkseg>
      <trkpt lat="47.541576" lon="7.870664">
        <ele>341.389019</ele>
        <time>2021-11-20T16:19:55.691Z</time>
      </trkpt>
      <trkpt lat="47.541714" lon="7.870901">
        <ele>341.389019</ele>
        <time>2021-11-20T16:20:00.380Z</time>
      </trkpt>
      <trkpt lat="47.541796" lon="7.871042">
        <ele>341.389019</ele>
        <time>2021-11-20T16:20:03.186Z</time>
      </trkpt>
      <trkpt lat="47.541819" lon="7.871079">
        <ele>341.389019</ele>
        <time>2021-11-20T16:20:04.056Z</time>
      </trkpt>
      <trkpt lat="47.541953" lon="7.871286">
        <ele>341.389019</ele>
        <time>2021-11-20T16:20:08.249Z</time>
      </trkpt>
      <trkpt lat="47.542039" lon="7.871556">
        <ele>341.389019</ele>
        <time>2021-11-20T16:20:12.791Z</time>
      </trkpt>
      <trkpt lat="47.542067" lon="7.871664">
        <ele>341.389019</ele>
        <time>2021-11-20T16:20:14.550Z</time>
      </trkpt>
      <trkpt lat="47.542091" lon="7.871721">
        <ele>341.389019</ele>
        <time>2021-11-20T16:20:15.200Z</time>
      </trkpt>
      <trkpt lat="47.542218" lon="7.871866">
        <ele>342.039835</ele>
        <time>2021-11-20T16:20:20.524Z</time>
      </trkpt>
      <trkpt lat="47.542394" lon="7.872341">
        <ele>343.621853</ele>
        <time>2021-11-20T16:20:30.974Z</time>
      </trkpt>
      <trkpt lat="47.542436" lon="7.872494">
        <ele>344.104083</ele>
        <time>2021-11-20T16:20:34.411Z</time>
      </trkpt>
      <trkpt lat="47.542537" lon="7.872430">
        <ele>344.579208</ele>
        <time>2021-11-20T16:20:36.621Z</time>
      </trkpt>
      <trkpt lat="47.542714" lon="7.872334">
        <ele>345.394452</ele>
        <time>2021-11-20T16:20:43.508Z</time>
      </trkpt>
      <trkpt lat="47.542814" lon="7.872280">
        <ele>345.854805</ele>
        <time>2021-11-20T16:20:46.554Z</time>
      </trkpt>
      <trkpt lat="47.542919" lon="7.872226">
        <ele>346.335532</ele>
        <time>2021-11-20T16:20:50.415Z</time>
      </trkpt>
      <trkpt lat="47.543013" lon="7.872182">
        <ele>346.761907</ele>
        <time>2021-11-20T16:20:53.921Z</time>
      </trkpt>
      <trkpt lat="47.543233" lon="7.872082">
        <ele>347.757220</ele>
        <time>2021-11-20T16:21:01.159Z</time>
      </trkpt>
      <trkpt lat="47.543251" lon="7.872152">
        <ele>347.975918</ele>
        <time>2021-11-20T16:21:04.533Z</time>
      </trkpt>
      <trkpt lat="47.543332" lon="7.872237">
        <ele>348.405245</ele>
        <time>2021-11-20T16:21:07.839Z</time>
      </trkpt>
      <trkpt lat="47.544390" lon="7.872423">
        <ele>355.026854</ele>
        <time>2021-11-20T16:21:49.558Z</time>
      </trkpt>
      <trkpt lat="47.544883" lon="7.872555">
        <ele>358.328408</ele>
        <time>2021-11-20T16:22:11.967Z</time>
      </trkpt>
      <trkpt lat="47.545131" lon="7.872664">
        <ele>360.033161</ele>
        <time>2021-11-20T16:22:22.971Z</time>
      </trkpt>
      <trkpt lat="47.545375" lon="7.872836">
        <ele>361.785254</ele>
        <time>2021-11-20T16:22:33.912Z</time>
      </trkpt>
      <trkpt lat="47.545478" lon="7.872968">
        <ele>362.650317</ele>
        <time>2021-11-20T16:22:40.719Z</time>
      </trkpt>
      <trkpt lat="47.545515" lon="7.873015">
        <ele>362.959900</ele>
        <time>2021-11-20T16:22:42.676Z</time>
      </trkpt>
      <trkpt lat="47.545746" lon="7.873302">
        <ele>364.874862</ele>
        <time>2021-11-20T16:22:55.876Z</time>
      </trkpt>
      <trkpt lat="47.545934" lon="7.873549">
        <ele>366.470950</ele>
        <time>2021-11-20T16:23:05.976Z</time>
      </trkpt>
      <trkpt lat="47.546077" lon="7.873763">
        <ele>367.762028</ele>
        <time>2021-11-20T16:23:15.172Z</time>
      </trkpt>
      <trkpt lat="47.546135" lon="7.873859">
        <ele>368.314421</ele>
        <time>2021-11-20T16:23:18.411Z</time>
      </trkpt>
      <trkpt lat="47.546309" lon="7.874154">
        <ele>369.994077</ele>
        <time>2021-11-20T16:23:29.526Z</time>
      </trkpt>
      <trkpt lat="47.547126" lon="7.875801">
        <ele>375.730570</ele>
        <time>2021-11-20T16:24:15.287Z</time>
      </trkpt>
      <trkpt lat="47.547574" lon="7.876801">
        <ele>378.384569</ele>
        <time>2021-11-20T16:24:34.283Z</time>
      </trkpt>
      <trkpt lat="47.547992" lon="7.877974">
        <ele>377.103639</ele>
        <time>2021-11-20T16:24:47.083Z</time>
      </trkpt>
      <trkpt lat="47.548234" lon="7.878638">
        <ele>376.374919</ele>
        <time>2021-11-20T16:24:52.395Z</time>
      </trkpt>
      <trkpt lat="47.548422" lon="7.878959">
        <ele>375.964510</ele>
        <time>2021-11-20T16:24:55.238Z</time>
      </trkpt>
      <trkpt lat="47.548718" lon="7.879258">
        <ele>374.730486</ele>
        <time>2021-11-20T16:24:58.777Z</time>
      </trkpt>
      <trkpt lat="47.549140" lon="7.879391">
        <ele>372.898102</ele>
        <time>2021-11-20T16:25:02.963Z</time>
      </trkpt>
      <trkpt lat="47.549318" lon="7.879398">
        <ele>372.141850</ele>
        <time>2021-11-20T16:25:04.590Z</time>
      </trkpt>
      <trkpt lat="47.549327" lon="7.879547">
        <ele>371.713018</ele>
        <time>2021-11-20T16:25:05.577Z</time>
      </trkpt>
      <trkpt lat="47.549726" lon="7.880786">
        <ele>367.845715</ele>
        <time>2021-11-20T16:25:14.511Z</time>
      </trkpt>
      <trkpt lat="47.549927" lon="7.881490">
        <ele>366.025285</ele>
        <time>2021-11-20T16:25:19.543Z</time>
      </trkpt>
      <trkpt lat="47.550234" lon="7.883221">
        <ele>361.743837</ele>
        <time>2021-11-20T16:25:31.944Z</time>
      </trkpt>
      <trkpt lat="47.550332" lon="7.884727">
        <ele>357.158149</ele>
        <time>2021-11-20T16:25:41.788Z</time>
      </trkpt>
      <trkpt lat="47.550391" lon="7.885109">
        <ele>355.970423</ele>
        <time>2021-11-20T16:25:44.321Z</time>
      </trkpt>
      <trkpt lat="47.550548" lon="7.885799">
        <ele>353.763474</ele>
        <time>2021-11-20T16:25:48.925Z</time>
      </trkpt>
      <trkpt lat="47.550677" lon="7.886476">
        <ele>351.017819</ele>
        <time>2021-11-20T16:25:53.355Z</time>
      </trkpt>
      <trkpt lat="47.550758" lon="7.887295">
        <ele>347.784548</ele>
        <time>2021-11-20T16:25:58.498Z</time>
      </trkpt>
      <trkpt lat="47.550789" lon="7.887816">
        <ele>345.741572</ele>
        <time>2021-11-20T16:26:01.729Z</time>
      </trkpt>
      <trkpt lat="47.550831" lon="7.888611">
        <ele>342.574523</ele>
        <time>2021-11-20T16:26:06.685Z</time>
      </trkpt>
      <trkpt lat="47.550833" lon="7.889069">
        <ele>340.655776</ele>
        <time>2021-11-20T16:26:09.495Z</time>
      </trkpt>
      <trkpt lat="47.550915" lon="7.890600">
        <ele>334.221772</ele>
        <time>2021-11-20T16:26:18.888Z</time>
      </trkpt>
      <trkpt lat="47.550904" lon="7.891725">
        <ele>330.584773</ele>
        <time>2021-11-20T16:26:25.892Z</time>
      </trkpt>
      <trkpt lat="47.550892" lon="7.893176">
        <ele>326.952775</ele>
        <time>2021-11-20T16:26:35.504Z</time>
      </trkpt>
      <trkpt lat="47.550908" lon="7.894308">
        <ele>325.052628</ele>
        <time>2021-11-20T16:26:44.709Z</time>
      </trkpt>
      <trkpt lat="47.550878" lon="7.895158">
        <ele>324.349750</ele>
        <time>2021-11-20T16:26:51.894Z</time>
      </trkpt>
      <trkpt lat="47.550838" lon="7.895509">
        <ele>324.055796</ele>
        <time>2021-11-20T16:26:55.058Z</time>
      </trkpt>
      <trkpt lat="47.550660" lon="7.896255">
        <ele>323.402394</ele>
        <time>2021-11-20T16:27:01.547Z</time>
      </trkpt>
      <trkpt lat="47.550639" lon="7.896345">
        <ele>323.323757</ele>
        <time>2021-11-20T16:27:02.734Z</time>
      </trkpt>
      <trkpt lat="47.550648" lon="7.896481">
        <ele>323.066989</ele>
        <time>2021-11-20T16:27:03.689Z</time>
      </trkpt>
      <trkpt lat="47.550819" lon="7.898109">
        <ele>319.764547</ele>
        <time>2021-11-20T16:27:15.437Z</time>
      </trkpt>
      <trkpt lat="47.550801" lon="7.900244">
        <ele>314.419124</ele>
        <time>2021-11-20T16:27:29.275Z</time>
      </trkpt>
      <trkpt lat="47.550769" lon="7.901362">
        <ele>311.214454</ele>
        <time>2021-11-20T16:27:36.546Z</time>
      </trkpt>
      <trkpt lat="47.550757" lon="7.901591">
        <ele>310.556657</ele>
        <time>2021-11-20T16:27:38.682Z</time>
      </trkpt>
      <trkpt lat="47.550688" lon="7.902451">
        <ele>308.386087</ele>
        <time>2021-11-20T16:27:47.116Z</time>
      </trkpt>
      <trkpt lat="47.550498" lon="7.903445">
        <ele>305.832531</ele>
        <time>2021-11-20T16:27:57.367Z</time>
      </trkpt>
      <trkpt lat="47.550302" lon="7.904164">
        <ele>303.915851</ele>
        <time>2021-11-20T16:28:04.626Z</time>
      </trkpt>
      <trkpt lat="47.550025" lon="7.904774">
        <ele>302.140234</ele>
        <time>2021-11-20T16:28:11.551Z</time>
      </trkpt>
      <trkpt lat="47.549868" lon="7.905010">
        <ele>301.341810</ele>
        <time>2021-11-20T16:28:14.683Z</time>
      </trkpt>
      <trkpt lat="47.549867" lon="7.905155">
        <ele>300.992415</ele>
        <time>2021-11-20T16:28:16.080Z</time>
      </trkpt>
      <trkpt lat="47.550067" lon="7.905245">
        <ele>300.246230</ele>
        <time>2021-11-20T16:28:19.005Z</time>
      </trkpt>
      <trkpt lat="47.550283" lon="7.905413">
        <ele>299.375341</ele>
        <time>2021-11-20T16:28:22.455Z</time>
      </trkpt>
      <trkpt lat="47.550497" lon="7.905558">
        <ele>298.535287</ele>
        <time>2021-11-20T16:28:25.813Z</time>
      </trkpt>
      <trkpt lat="47.549539" lon="7.908625">
        <ele>293.045179</ele>
        <time>2021-11-20T16:28:50.262Z</time>
      </trkpt>
      <trkpt lat="47.549520" lon="7.908678">
        <ele>292.991672</ele>
        <time>2021-11-20T16:28:50.760Z</time>
      </trkpt>
      <trkpt lat="47.549319" lon="7.909343">
        <ele>292.342008</ele>
        <time>2021-11-20T16:28:56.685Z</time>
      </trkpt>
      <trkpt lat="47.549267" lon="7.909517">
        <ele>292.172338</ele>
        <time>2021-11-20T16:28:58.272Z</time>
      </trkpt>
      <trkpt lat="47.549195" lon="7.909756">
        <ele>291.938978</ele>
        <time>2021-11-20T16:29:00.394Z</time>
      </trkpt>
      <trkpt lat="47.549102" lon="7.910058">
        <ele>291.643006</ele>
        <time>2021-11-20T16:29:03.107Z</time>
      </trkpt>
      <trkpt lat="47.549012" lon="7.910340">
        <ele>291.364877</ele>
        <time>2021-11-20T16:29:05.611Z</time>
      </trkpt>
      <trkpt lat="47.548412" lon="7.912168">
        <ele>289.827965</ele>
        <time>2021-11-20T16:29:21.940Z</time>
      </trkpt>
      <trkpt lat="47.548027" lon="7.913334">
        <ele>288.969464</ele>
        <time>2021-11-20T16:29:32.701Z</time>
      </trkpt>
      <trkpt lat="47.547994" lon="7.913433">
        <ele>288.952470</ele>
        <time>2021-11-20T16:29:33.621Z</time>
      </trkpt>
      <trkpt lat="47.547423" lon="7.915080">
        <ele>288.667504</ele>
        <time>2021-11-20T16:29:51.098Z</time>
      </trkpt>
      <trkpt lat="47.547113" lon="7.915971">
        <ele>288.703233</ele>
        <time>2021-11-20T16:30:01.545Z</time>
      </trkpt>
      <trkpt lat="47.547091" lon="7.916039">
        <ele>288.727461</ele>
        <time>2021-11-20T16:30:02.570Z</time>
      </trkpt>
      <trkpt lat="47.547032" lon="7.916218">
        <ele>288.791465</ele>
        <time>2021-11-20T16:30:04.772Z</time>
      </trkpt>
      <trkpt lat="47.546821" lon="7.916867">
        <ele>289.022917</ele>
        <time>2021-11-20T16:30:12.881Z</time>
      </trkpt>
      <trkpt lat="47.546262" lon="7.919081">
        <ele>289.708839</ele>
        <time>2021-11-20T16:30:40.393Z</time>
      </trkpt>
      <trkpt lat="47.546128" lon="7.919617">
        <ele>289.854045</ele>
        <time>2021-11-20T16:30:45.861Z</time>
      </trkpt>
      <trkpt lat="47.545973" lon="7.920313">
        <ele>290.040234</ele>
        <time>2021-11-20T16:30:54.325Z</time>
      </trkpt>
      <trkpt lat="47.545913" lon="7.920765">
        <ele>290.301667</ele>
        <time>2021-11-20T16:30:58.498Z</time>
      </trkpt>
      <trkpt lat="47.545881" lon="7.921096">
        <ele>290.635013</ele>
        <time>2021-11-20T16:31:02.514Z</time>
      </trkpt>
      <trkpt lat="47.545810" lon="7.921755">
        <ele>291.300298</ele>
        <time>2021-11-20T16:31:11.423Z</time>
      </trkpt>
      <trkpt lat="47.545778" lon="7.921947">
        <ele>291.497455</ele>
        <time>2021-11-20T16:31:15.032Z</time>
      </trkpt>
      <trkpt lat="47.545714" lon="7.922249">
        <ele>291.813014</ele>
        <time>2021-11-20T16:31:18.231Z</time>
      </trkpt>
      <trkpt lat="47.545699" lon="7.922325">
        <ele>291.891952</ele>
        <time>2021-11-20T16:31:19.428Z</time>
      </trkpt>
      <trkpt lat="47.545690" lon="7.922369">
        <ele>291.937786</ele>
        <time>2021-11-20T16:31:21.526Z</time>
      </trkpt>
      <trkpt lat="47.545641" lon="7.922610">
        <ele>292.188707</ele>
        <time>2021-11-20T16:31:23.880Z</time>
      </trkpt>
      <trkpt lat="47.545587" lon="7.922895">
        <ele>292.483811</ele>
        <time>2021-11-20T16:31:29.676Z</time>
      </trkpt>
      <trkpt lat="47.545553" lon="7.923142">
        <ele>292.735119</ele>
        <time>2021-11-20T16:31:32.323Z</time>
      </trkpt>
      <trkpt lat="47.545536" lon="7.923407">
        <ele>293.353393</ele>
        <time>2021-11-20T16:31:38.213Z</time>
      </trkpt>
      <trkpt lat="47.545521" lon="7.923709">
        <ele>294.106365</ele>
        <time>2021-11-20T16:31:42.366Z</time>
      </trkpt>
      <trkpt lat="47.545481" lon="7.924396">
        <ele>295.820979</ele>
        <time>2021-11-20T16:31:56.969Z</time>
      </trkpt>
      <trkpt lat="47.545466" lon="7.924880">
        <ele>297.025745</ele>
        <time>2021-11-20T16:32:08.276Z</time>
      </trkpt>
      <trkpt lat="47.545446" lon="7.925350">
        <ele>298.196751</ele>
        <time>2021-11-20T16:32:18.651Z</time>
      </trkpt>
      <trkpt lat="47.545417" lon="7.925848">
        <ele>299.416066</ele>
        <time>2021-11-20T16:32:29.130Z</time>
      </trkpt>
      <trkpt lat="47.545409" lon="7.926773">
        <ele>300.620790</ele>
        <time>2021-11-20T16:32:46.331Z</time>
      </trkpt>
      <trkpt lat="47.545407" lon="7.927001">
        <ele>300.917738</ele>
        <time>2021-11-20T16:32:50.140Z</time>
      </trkpt>
      <trkpt lat="47.545406" lon="7.927306">
        <ele>301.314944</ele>
        <time>2021-11-20T16:32:54.744Z</time>
      </trkpt>
      <trkpt lat="47.545421" lon="7.927686">
        <ele>301.810662</ele>
        <time>2021-11-20T16:33:00.280Z</time>
      </trkpt>
      <trkpt lat="47.545475" lon="7.928419">
        <ele>302.770914</ele>
        <time>2021-11-20T16:33:09.598Z</time>
      </trkpt>
      <trkpt lat="47.545563" lon="7.929641">
        <ele>301.598714</ele>
        <time>2021-11-20T16:33:19.477Z</time>
      </trkpt>
      <trkpt lat="47.545661" lon="7.930955">
        <ele>300.161391</ele>
        <time>2021-11-20T16:33:28.873Z</time>
      </trkpt>
      <trkpt lat="47.545696" lon="7.931497">
        <ele>299.711929</ele>
        <time>2021-11-20T16:33:32.841Z</time>
      </trkpt>
      <trkpt lat="47.545721" lon="7.931992">
        <ele>299.367575</ele>
        <time>2021-11-20T16:33:36.634Z</time>
      </trkpt>
      <trkpt lat="47.545724" lon="7.932758">
        <ele>298.836172</ele>
        <time>2021-11-20T16:33:42.844Z</time>
      </trkpt>
      <trkpt lat="47.545702" lon="7.933290">
        <ele>298.466417</ele>
        <time>2021-11-20T16:33:47.487Z</time>
      </trkpt>
      <trkpt lat="47.545674" lon="7.933625">
        <ele>298.232244</ele>
        <time>2021-11-20T16:33:50.687Z</time>
      </trkpt>
      <trkpt lat="47.545457" lon="7.935110">
        <ele>299.094729</ele>
        <time>2021-11-20T16:34:08.822Z</time>
      </trkpt>
      <trkpt lat="47.545074" lon="7.936484">
        <ele>300.254375</ele>
        <time>2021-11-20T16:34:30.349Z</time>
      </trkpt>
      <trkpt lat="47.544903" lon="7.936917">
        <ele>300.853120</ele>
        <time>2021-11-20T16:34:37.666Z</time>
      </trkpt>
      <trkpt lat="47.544705" lon="7.937395">
        <ele>301.522481</ele>
        <time>2021-11-20T16:34:45.850Z</time>
      </trkpt>
      <trkpt lat="47.544472" lon="7.937932">
        <ele>302.284396</ele>
        <time>2021-11-20T16:34:55.257Z</time>
      </trkpt>
      <trkpt lat="47.543826" lon="7.939433">
        <ele>304.330099</ele>
        <time>2021-11-20T16:35:22.138Z</time>
      </trkpt>
      <trkpt lat="47.543435" lon="7.940670">
        <ele>305.851232</ele>
        <time>2021-11-20T16:35:42.099Z</time>
      </trkpt>
      <trkpt lat="47.543161" lon="7.942213">
        <ele>306.495302</ele>
        <time>2021-11-20T16:36:02.948Z</time>
      </trkpt>
      <trkpt lat="47.543007" lon="7.943867">
        <ele>306.519171</ele>
        <time>2021-11-20T16:36:18.492Z</time>
      </trkpt>
      <trkpt lat="47.542913" lon="7.945267">
        <ele>305.082112</ele>
        <time>2021-11-20T16:36:29.399Z</time>
      </trkpt>
      <trkpt lat="47.542872" lon="7.945781">
        <ele>304.553443</ele>
        <time>2021-11-20T16:36:33.215Z</time>
      </trkpt>
      <trkpt lat="47.542875" lon="7.946089">
        <ele>304.238810</ele>
        <time>2021-11-20T16:36:35.450Z</time>
      </trkpt>
      <trkpt lat="47.542902" lon="7.946514">
        <ele>303.809081</ele>
        <time>2021-11-20T16:36:38.544Z</time>
      </trkpt>
      <trkpt lat="47.542943" lon="7.946806">
        <ele>303.511029</ele>
        <time>2021-11-20T16:36:40.754Z</time>
      </trkpt>
      <trkpt lat="47.542974" lon="7.946965">
        <ele>303.345640</ele>
        <time>2021-11-20T16:36:42.062Z</time>
      </trkpt>
      <trkpt lat="47.542979" lon="7.946989">
        <ele>303.320539</ele>
        <time>2021-11-20T16:36:42.219Z</time>
      </trkpt>
      <trkpt lat="47.542989" lon="7.947104">
        <ele>303.204666</ele>
        <time>2021-11-20T16:36:43.090Z</time>
      </trkpt>
      <trkpt lat="47.542984" lon="7.947304">
        <ele>303.004662</ele>
        <time>2021-11-20T16:36:44.665Z</time>
      </trkpt>
      <trkpt lat="47.542979" lon="7.947370">
        <ele>302.938292</ele>
        <time>2021-11-20T16:36:45.166Z</time>
      </trkpt>
      <trkpt lat="47.542935" lon="7.947564">
        <ele>302.733771</ele>
        <time>2021-11-20T16:36:46.733Z</time>
      </trkpt>
      <trkpt lat="47.542892" lon="7.947789">
        <ele>302.500083</ele>
        <time>2021-11-20T16:36:48.651Z</time>
      </trkpt>
      <trkpt lat="47.542875" lon="7.948001">
        <ele>302.286734</ele>
        <time>2021-11-20T16:36:50.467Z</time>
      </trkpt>
      <trkpt lat="47.542838" lon="7.948225">
        <ele>302.056278</ele>
        <time>2021-11-20T16:36:52.252Z</time>
      </trkpt>
      <trkpt lat="47.542826" lon="7.948298">
        <ele>301.981194</ele>
        <time>2021-11-20T16:36:52.873Z</time>
      </trkpt>
      <trkpt lat="47.542719" lon="7.949175">
        <ele>301.335169</ele>
        <time>2021-11-20T16:37:00.097Z</time>
      </trkpt>
      <trkpt lat="47.542609" lon="7.949914">
        <ele>301.121992</ele>
        <time>2021-11-20T16:37:06.873Z</time>
      </trkpt>
      <trkpt lat="47.542560" lon="7.950202">
        <ele>301.038326</ele>
        <time>2021-11-20T16:37:09.741Z</time>
      </trkpt>
      <trkpt lat="47.542554" lon="7.950231">
        <ele>301.029781</ele>
        <time>2021-11-20T16:37:10.016Z</time>
      </trkpt>
      <trkpt lat="47.542546" lon="7.950274">
        <ele>301.017217</ele>
        <time>2021-11-20T16:37:10.421Z</time>
      </trkpt>
      <trkpt lat="47.542444" lon="7.950687">
        <ele>300.893333</ele>
        <time>2021-11-20T16:37:14.884Z</time>
      </trkpt>
      <trkpt lat="47.542357" lon="7.951037">
        <ele>300.788265</ele>
        <time>2021-11-20T16:37:18.528Z</time>
      </trkpt>
      <trkpt lat="47.542192" lon="7.951713">
        <ele>300.625109</ele>
        <time>2021-11-20T16:37:25.476Z</time>
      </trkpt>
      <trkpt lat="47.542169" lon="7.951815">
        <ele>300.607383</ele>
        <time>2021-11-20T16:37:26.403Z</time>
      </trkpt>
      <trkpt lat="47.541991" lon="7.952667">
        <ele>300.460371</ele>
        <time>2021-11-20T16:37:34.684Z</time>
      </trkpt>
      <trkpt lat="47.541791" lon="7.953601">
        <ele>300.298854</ele>
        <time>2021-11-20T16:37:43.735Z</time>
      </trkpt>
      <trkpt lat="47.541773" lon="7.953695">
        <ele>300.282748</ele>
        <time>2021-11-20T16:37:44.672Z</time>
      </trkpt>
      <trkpt lat="47.541735" lon="7.953892">
        <ele>300.248976</ele>
        <time>2021-11-20T16:37:46.555Z</time>
      </trkpt>
      <trkpt lat="47.541660" lon="7.954250">
        <ele>300.451671</ele>
        <time>2021-11-20T16:37:50.313Z</time>
      </trkpt>
      <trkpt lat="47.541530" lon="7.954936">
        <ele>300.907243</ele>
        <time>2021-11-20T16:37:57.497Z</time>
      </trkpt>
      <trkpt lat="47.541482" lon="7.955294">
        <ele>301.140614</ele>
        <time>2021-11-20T16:38:01.490Z</time>
      </trkpt>
      <trkpt lat="47.541465" lon="7.955512">
        <ele>301.280926</ele>
        <time>2021-11-20T16:38:03.876Z</time>
      </trkpt>
      <trkpt lat="47.541442" lon="7.955866">
        <ele>301.508314</ele>
        <time>2021-11-20T16:38:09.107Z</time>
      </trkpt>
      <trkpt lat="47.541410" lon="7.956569">
        <ele>301.993124</ele>
        <time>2021-11-20T16:38:20.470Z</time>
      </trkpt>
      <trkpt lat="47.541404" lon="7.956677">
        <ele>302.234282</ele>
        <time>2021-11-20T16:38:22.565Z</time>
      </trkpt>
      <trkpt lat="47.541300" lon="7.957427">
        <ele>303.938201</ele>
        <time>2021-11-20T16:38:35.690Z</time>
      </trkpt>
      <trkpt lat="47.541287" lon="7.957519">
        <ele>304.147378</ele>
        <time>2021-11-20T16:38:37.261Z</time>
      </trkpt>
      <trkpt lat="47.541280" lon="7.957569">
        <ele>304.261017</ele>
        <time>2021-11-20T16:38:38.228Z</time>
      </trkpt>
      <trkpt lat="47.541237" lon="7.957756">
        <ele>304.700653</ele>
        <time>2021-11-20T16:38:42.552Z</time>
      </trkpt>
      <trkpt lat="47.541141" lon="7.958127">
        <ele>305.584866</ele>
        <time>2021-11-20T16:38:50.121Z</time>
      </trkpt>
      <trkpt lat="47.540957" lon="7.959132">
        <ele>307.898089</ele>
        <time>2021-11-20T16:39:11.566Z</time>
      </trkpt>
      <trkpt lat="47.540954" lon="7.959705">
        <ele>308.983021</ele>
        <time>2021-11-20T16:39:23.033Z</time>
      </trkpt>
      <trkpt lat="47.540979" lon="7.959950">
        <ele>309.452165</ele>
        <time>2021-11-20T16:39:28.483Z</time>
      </trkpt>
      <trkpt lat="47.541002" lon="7.960092">
        <ele>309.728653</ele>
        <time>2021-11-20T16:39:31.077Z</time>
      </trkpt>
      <trkpt lat="47.541060" lon="7.960321">
        <ele>310.191746</ele>
        <time>2021-11-20T16:39:35.799Z</time>
      </trkpt>
      <trkpt lat="47.541153" lon="7.960814">
        <ele>311.160933</ele>
        <time>2021-11-20T16:39:44.368Z</time>
      </trkpt>
      <trkpt lat="47.541242" lon="7.961294">
        <ele>312.103403</ele>
        <time>2021-11-20T16:39:52.327Z</time>
      </trkpt>
      <trkpt lat="47.541316" lon="7.962197">
        <ele>313.218096</ele>
        <time>2021-11-20T16:40:05.442Z</time>
      </trkpt>
      <trkpt lat="47.541314" lon="7.962377">
        <ele>313.330493</ele>
        <time>2021-11-20T16:40:08.083Z</time>
      </trkpt>
      <trkpt lat="47.541308" lon="7.962513">
        <ele>313.415584</ele>
        <time>2021-11-20T16:40:09.434Z</time>
      </trkpt>
      <trkpt lat="47.541293" lon="7.962730">
        <ele>313.551775</ele>
        <time>2021-11-20T16:40:11.795Z</time>
      </trkpt>
      <trkpt lat="47.541258" lon="7.962975">
        <ele>313.708127</ele>
        <time>2021-11-20T16:40:15.167Z</time>
      </trkpt>
      <trkpt lat="47.541217" lon="7.963187">
        <ele>313.845812</ele>
        <time>2021-11-20T16:40:17.195Z</time>
      </trkpt>
      <trkpt lat="47.541123" lon="7.963520">
        <ele>314.071164</ele>
        <time>2021-11-20T16:40:21.883Z</time>
      </trkpt>
      <trkpt lat="47.541019" lon="7.963815">
        <ele>314.278949</ele>
        <time>2021-11-20T16:40:26.021Z</time>
      </trkpt>
      <trkpt lat="47.541129" lon="7.964008">
        <ele>314.436652</ele>
        <time>2021-11-20T16:40:28.624Z</time>
      </trkpt>
      <trkpt lat="47.541169" lon="7.964123">
        <ele>314.517422</ele>
        <time>2021-11-20T16:40:29.748Z</time>
      </trkpt>
      <trkpt lat="47.541095" lon="7.964204">
        <ele>314.598085</ele>
        <time>2021-11-20T16:40:32.074Z</time>
      </trkpt>
      <trkpt lat="47.540896" lon="7.964711">
        <ele>314.882335</ele>
        <time>2021-11-20T16:40:38.690Z</time>
      </trkpt>
      <trkpt lat="47.540287" lon="7.967315">
        <ele>316.603457</ele>
        <time>2021-11-20T16:41:11.826Z</time>
      </trkpt>
      <trkpt lat="47.540214" lon="7.967628">
        <ele>316.943811</ele>
        <time>2021-11-20T16:41:16.233Z</time>
      </trkpt>
      <trkpt lat="47.539783" lon="7.969587">
        <ele>319.302252</ele>
        <time>2021-11-20T16:41:47.088Z</time>
      </trkpt>
      <trkpt lat="47.539262" lon="7.971768">
        <ele>322.953728</ele>
        <time>2021-11-20T16:42:26.145Z</time>
      </trkpt>
      <trkpt lat="47.538706" lon="7.974459">
        <ele>327.300387</ele>
        <time>2021-11-20T16:43:11.942Z</time>
      </trkpt>
      <trkpt lat="47.538242" lon="7.976347">
        <ele>330.015552</ele>
        <time>2021-11-20T16:43:42.760Z</time>
      </trkpt>
      <trkpt lat="47.538107" lon="7.977240">
        <ele>330.901729</ele>
        <time>2021-11-20T16:43:56.453Z</time>
      </trkpt>
      <trkpt lat="47.537955" lon="7.978125">
        <ele>331.490511</ele>
        <time>2021-11-20T16:44:09.997Z</time>
      </trkpt>
      <trkpt lat="47.537583" lon="7.979760">
        <ele>331.651124</ele>
        <time>2021-11-20T16:44:28.295Z</time>
      </trkpt>
      <trkpt lat="47.537461" lon="7.980118">
        <ele>331.098048</ele>
        <time>2021-11-20T16:44:31.303Z</time>
      </trkpt>
      <trkpt lat="47.537107" lon="7.981082">
        <ele>329.584581</ele>
        <time>2021-11-20T16:44:39.114Z</time>
      </trkpt>
      <trkpt lat="47.536959" lon="7.981602">
        <ele>328.806287</ele>
        <time>2021-11-20T16:44:42.953Z</time>
      </trkpt>
      <trkpt lat="47.536896" lon="7.981697">
        <ele>328.622035</ele>
        <time>2021-11-20T16:44:43.880Z</time>
      </trkpt>
      <trkpt lat="47.536842" lon="7.981878">
        <ele>328.289162</ele>
        <time>2021-11-20T16:44:45.215Z</time>
      </trkpt>
      <trkpt lat="47.536775" lon="7.982096">
        <ele>327.886244</ele>
        <time>2021-11-20T16:44:46.819Z</time>
      </trkpt>
      <trkpt lat="47.536764" lon="7.982225">
        <ele>327.667522</ele>
        <time>2021-11-20T16:44:47.713Z</time>
      </trkpt>
      <trkpt lat="47.536530" lon="7.982859">
        <ele>326.452069</ele>
        <time>2021-11-20T16:44:52.635Z</time>
      </trkpt>
      <trkpt lat="47.536410" lon="7.983244">
        <ele>325.738749</ele>
        <time>2021-11-20T16:44:55.619Z</time>
      </trkpt>
      <trkpt lat="47.536199" lon="7.983737">
        <ele>324.756840</ele>
        <time>2021-11-20T16:44:59.908Z</time>
      </trkpt>
      <trkpt lat="47.536026" lon="7.984206">
        <ele>324.139389</ele>
        <time>2021-11-20T16:45:04.207Z</time>
      </trkpt>
      <trkpt lat="47.535614" lon="7.985212">
        <ele>324.109119</ele>
        <time>2021-11-20T16:45:15.145Z</time>
      </trkpt>
      <trkpt lat="47.535270" lon="7.985985">
        <ele>324.085301</ele>
        <time>2021-11-20T16:45:25.367Z</time>
      </trkpt>
      <trkpt lat="47.534974" lon="7.986602">
        <ele>324.554864</ele>
        <time>2021-11-20T16:45:34.443Z</time>
      </trkpt>
      <trkpt lat="47.534590" lon="7.987330">
        <ele>325.768206</ele>
        <time>2021-11-20T16:45:48.135Z</time>
      </trkpt>
      <trkpt lat="47.534466" lon="7.987626">
        <ele>326.225721</ele>
        <time>2021-11-20T16:45:54.010Z</time>
      </trkpt>
      <trkpt lat="47.534363" lon="7.987895">
        <ele>326.631882</ele>
        <time>2021-11-20T16:45:59.471Z</time>
      </trkpt>
      <trkpt lat="47.534280" lon="7.987862">
        <ele>326.799060</ele>
        <time>2021-11-20T16:46:01.712Z</time>
      </trkpt>
      <trkpt lat="47.534072" lon="7.987749">
        <ele>327.230045</ele>
        <time>2021-11-20T16:46:07.545Z</time>
      </trkpt>
      <trkpt lat="47.533728" lon="7.987557">
        <ele>327.940198</ele>
        <time>2021-11-20T16:46:16.697Z</time>
      </trkpt>
      <trkpt lat="47.533509" lon="7.987411">
        <ele>328.401128</ele>
        <time>2021-11-20T16:46:21.648Z</time>
      </trkpt>
      <trkpt lat="47.533195" lon="7.987215">
        <ele>329.055103</ele>
        <time>2021-11-20T16:46:30.056Z</time>
      </trkpt>
      <trkpt lat="47.533142" lon="7.987165">
        <ele>329.175704</ele>
        <time>2021-11-20T16:46:30.987Z</time>
      </trkpt>
      <trkpt lat="47.533114" lon="7.987128">
        <ele>329.247722</ele>
        <time>2021-11-20T16:46:32.224Z</time>
      </trkpt>
      <trkpt lat="47.532879" lon="7.987447">
        <ele>329.859515</ele>
        <time>2021-11-20T16:46:39.622Z</time>
      </trkpt>
      <trkpt lat="47.532716" lon="7.987667">
        <ele>330.282761</ele>
        <time>2021-11-20T16:46:45.484Z</time>
      </trkpt>
      <trkpt lat="47.532621" lon="7.987826">
        <ele>330.557886</ele>
        <time>2021-11-20T16:46:47.625Z</time>
      </trkpt>
      <trkpt lat="47.532617" lon="7.987834">
        <ele>330.570786</ele>
        <time>2021-11-20T16:46:47.779Z</time>
      </trkpt>
      <trkpt lat="47.532544" lon="7.987973">
        <ele>330.798979</ele>
        <time>2021-11-20T16:46:51.881Z</time>
      </trkpt>
      <trkpt lat="47.532464" lon="7.988171">
        <ele>331.014755</ele>
        <time>2021-11-20T16:46:53.981Z</time>
      </trkpt>
      <trkpt lat="47.532401" lon="7.988331">
        <ele>330.976502</ele>
        <time>2021-11-20T16:46:55.959Z</time>
      </trkpt>
      <trkpt lat="47.532373" lon="7.988399">
        <ele>330.960053</ele>
        <time>2021-11-20T16:46:58.330Z</time>
      </trkpt>
      <trkpt lat="47.532299" lon="7.988577">
        <ele>330.916882</ele>
        <time>2021-11-20T16:46:59.976Z</time>
      </trkpt>
      <trkpt lat="47.532014" lon="7.989225">
        <ele>330.757163</ele>
        <time>2021-11-20T16:47:06.495Z</time>
      </trkpt>
      <trkpt lat="47.531897" lon="7.989450">
        <ele>330.698511</ele>
        <time>2021-11-20T16:47:09.462Z</time>
      </trkpt>
      <trkpt lat="47.531823" lon="7.989607">
        <ele>330.658967</ele>
        <time>2021-11-20T16:47:10.811Z</time>
      </trkpt>
      <trkpt lat="47.531667" lon="7.989873">
        <ele>330.586200</ele>
        <time>2021-11-20T16:47:14.010Z</time>
      </trkpt>
      <trkpt lat="47.531363" lon="7.990436">
        <ele>330.438281</ele>
        <time>2021-11-20T16:47:19.933Z</time>
      </trkpt>
      <trkpt lat="47.530979" lon="7.991211">
        <ele>330.244701</ele>
        <time>2021-11-20T16:47:28.381Z</time>
      </trkpt>
      <trkpt lat="47.530933" lon="7.991310">
        <ele>330.220501</ele>
        <time>2021-11-20T16:47:29.366Z</time>
      </trkpt>
      <trkpt lat="47.530776" lon="7.991586">
        <ele>330.147825</ele>
        <time>2021-11-20T16:47:32.883Z</time>
      </trkpt>
      <trkpt lat="47.530495" lon="7.992103">
        <ele>330.014173</ele>
        <time>2021-11-20T16:47:38.811Z</time>
      </trkpt>
      <trkpt lat="47.530141" lon="7.992757">
        <ele>330.752673</ele>
        <time>2021-11-20T16:47:47.486Z</time>
      </trkpt>
      <trkpt lat="47.529350" lon="7.994228">
        <ele>334.021392</ele>
        <time>2021-11-20T16:48:23.391Z</time>
      </trkpt>
      <trkpt lat="47.529261" lon="7.994394">
        <ele>334.389842</ele>
        <time>2021-11-20T16:48:27.540Z</time>
      </trkpt>
      <trkpt lat="47.529180" lon="7.994531">
        <ele>334.664411</ele>
        <time>2021-11-20T16:48:31.003Z</time>
      </trkpt>
      <trkpt lat="47.528851" lon="7.994185">
        <ele>335.383702</ele>
        <time>2021-11-20T16:48:44.527Z</time>
      </trkpt>
      <trkpt lat="47.528522" lon="7.994788">
        <ele>336.316824</ele>
        <time>2021-11-20T16:49:01.016Z</time>
      </trkpt>
      <trkpt lat="47.527390" lon="7.996879">
        <ele>337.746831</ele>
        <time>2021-11-20T16:49:39.037Z</time>
      </trkpt>
      <trkpt lat="47.527239" lon="7.997118">
        <ele>337.740290</ele>
        <time>2021-11-20T16:49:42.717Z</time>
      </trkpt>
      <trkpt lat="47.527061" lon="7.997361">
        <ele>337.733126</ele>
        <time>2021-11-20T16:49:47.451Z</time>
      </trkpt>
      <trkpt lat="47.527005" lon="7.997436">
        <ele>337.730891</ele>
        <time>2021-11-20T16:49:48.817Z</time>
      </trkpt>
      <trkpt lat="47.526659" lon="7.997896">
        <ele>337.890586</ele>
        <time>2021-11-20T16:49:58.221Z</time>
      </trkpt>
      <trkpt lat="47.526462" lon="7.998465">
        <ele>338.260051</ele>
        <time>2021-11-20T16:50:07.823Z</time>
      </trkpt>
      <trkpt lat="47.526232" lon="7.998874">
        <ele>338.567591</ele>
        <time>2021-11-20T16:50:15.989Z</time>
      </trkpt>
      <trkpt lat="47.522812" lon="8.002772">
        <ele>344.817368</ele>
        <time>2021-11-20T16:52:09.872Z</time>
      </trkpt>
      <trkpt lat="47.522593" lon="8.003040">
        <ele>345.209348</ele>
        <time>2021-11-20T16:52:18.134Z</time>
      </trkpt>
      <trkpt lat="47.522286" lon="8.003405">
        <ele>345.706149</ele>
        <time>2021-11-20T16:52:29.434Z</time>
      </trkpt>
      <trkpt lat="47.521941" lon="8.003805">
        <ele>346.259056</ele>
        <time>2021-11-20T16:52:40.728Z</time>
      </trkpt>
      <trkpt lat="47.521691" lon="8.004044">
        <ele>346.634551</ele>
        <time>2021-11-20T16:52:48.444Z</time>
      </trkpt>
      <trkpt lat="47.521488" lon="8.004236">
        <ele>346.938502</ele>
        <time>2021-11-20T16:52:53.790Z</time>
      </trkpt>
      <trkpt lat="47.521214" lon="8.004538">
        <ele>347.125294</ele>
        <time>2021-11-20T16:53:01.636Z</time>
      </trkpt>
      <trkpt lat="47.521327" lon="8.004951">
        <ele>346.799752</ele>
        <time>2021-11-20T16:53:07.582Z</time>
      </trkpt>
      <trkpt lat="47.521277" lon="8.005104">
        <ele>346.675577</ele>
        <time>2021-11-20T16:53:09.715Z</time>
      </trkpt>
      <trkpt lat="47.520956" lon="8.005345">
        <ele>346.286238</ele>
        <time>2021-11-20T16:53:15.977Z</time>
      </trkpt>
      <trkpt lat="47.518926" lon="8.007732">
        <ele>342.419582</ele>
        <time>2021-11-20T16:53:56.953Z</time>
      </trkpt>
      <trkpt lat="47.518239" lon="8.008485">
        <ele>342.733800</ele>
        <time>2021-11-20T16:54:12.979Z</time>
      </trkpt>
      <trkpt lat="47.517851" lon="8.008946">
        <ele>343.094731</ele>
        <time>2021-11-20T16:54:25.191Z</time>
      </trkpt>
      <trkpt lat="47.517791" lon="8.009018">
        <ele>343.150764</ele>
        <time>2021-11-20T16:54:27.539Z</time>
      </trkpt>
      <trkpt lat="47.517615" lon="8.009232">
        <ele>343.315994</ele>
        <time>2021-11-20T16:54:33.267Z</time>
      </trkpt>
      <trkpt lat="47.517564" lon="8.009350">
        <ele>343.384641</ele>
        <time>2021-11-20T16:54:36.511Z</time>
      </trkpt>
      <trkpt lat="47.517508" lon="8.009440">
        <ele>343.444604</ele>
        <time>2021-11-20T16:54:38.858Z</time>
      </trkpt>
      <trkpt lat="47.517409" lon="8.009275">
        <ele>343.693306</ele>
        <time>2021-11-20T16:54:42.810Z</time>
      </trkpt>
      <trkpt lat="47.517345" lon="8.009165">
        <ele>343.995727</ele>
        <time>2021-11-20T16:54:46.202Z</time>
      </trkpt>
      <trkpt lat="47.516966" lon="8.008595">
        <ele>345.661839</ele>
        <time>2021-11-20T16:55:03.442Z</time>
      </trkpt>
      <trkpt lat="47.516886" lon="8.008468">
        <ele>346.023578</ele>
        <time>2021-11-20T16:55:07.027Z</time>
      </trkpt>
      <trkpt lat="47.516850" lon="8.008403">
        <ele>346.198674</ele>
        <time>2021-11-20T16:55:09.397Z</time>
      </trkpt>
      <trkpt lat="47.516778" lon="8.008407">
        <ele>346.420889</ele>
        <time>2021-11-20T16:55:12.068Z</time>
      </trkpt>
      <trkpt lat="47.516279" lon="8.008426">
        <ele>347.960388</ele>
        <time>2021-11-20T16:55:29.040Z</time>
      </trkpt>
      <trkpt lat="47.515777" lon="8.008451">
        <ele>349.388905</ele>
        <time>2021-11-20T16:55:46.397Z</time>
      </trkpt>
      <trkpt lat="47.514868" lon="8.008490">
        <ele>351.446416</ele>
        <time>2021-11-20T16:56:14.496Z</time>
      </trkpt>
      <trkpt lat="47.514604" lon="8.008601">
        <ele>352.067344</ele>
        <time>2021-11-20T16:56:22.122Z</time>
      </trkpt>
      <trkpt lat="47.514240" lon="8.009205">
        <ele>353.143855</ele>
        <time>2021-11-20T16:56:36.091Z</time>
      </trkpt>
      <trkpt lat="47.513914" lon="8.009618">
        <ele>353.239583</ele>
        <time>2021-11-20T16:56:45.869Z</time>
      </trkpt>
      <trkpt lat="47.513230" lon="8.010045">
        <ele>353.405205</ele>
        <time>2021-11-20T16:57:00.960Z</time>
      </trkpt>
      <trkpt lat="47.513001" lon="8.010158">
        <ele>353.459062</ele>
        <time>2021-11-20T16:57:05.498Z</time>
      </trkpt>
      <trkpt lat="47.512828" lon="8.010284">
        <ele>353.502078</ele>
        <time>2021-11-20T16:57:09.207Z</time>
      </trkpt>
      <trkpt lat="47.512231" lon="8.010689">
        <ele>353.961012</ele>
        <time>2021-11-20T16:57:21.492Z</time>
      </trkpt>
      <trkpt lat="47.511819" lon="8.010960">
        <ele>354.321327</ele>
        <time>2021-11-20T16:57:31.495Z</time>
      </trkpt>
      <trkpt lat="47.511743" lon="8.011016">
        <ele>354.389175</ele>
        <time>2021-11-20T16:57:33.675Z</time>
      </trkpt>
      <trkpt lat="47.511725" lon="8.011067">
        <ele>354.420239</ele>
        <time>2021-11-20T16:57:34.186Z</time>
      </trkpt>
      <trkpt lat="47.511369" lon="8.012112">
        <ele>355.125401</ele>
        <time>2021-11-20T16:57:51.905Z</time>
      </trkpt>
      <trkpt lat="47.511339" lon="8.012189">
        <ele>355.213878</ele>
        <time>2021-11-20T16:57:53.313Z</time>
      </trkpt>
      <trkpt lat="47.511240" lon="8.012453">
        <ele>355.514429</ele>
        <time>2021-11-20T16:57:58.603Z</time>
      </trkpt>
      <trkpt lat="47.511153" lon="8.012630">
        <ele>355.732314</ele>
        <time>2021-11-20T16:58:01.451Z</time>
      </trkpt>
      <trkpt lat="47.511060" lon="8.012793">
        <ele>355.944690</ele>
        <time>2021-11-20T16:58:05.292Z</time>
      </trkpt>
      <trkpt lat="47.510610" lon="8.013245">
        <ele>356.746025</ele>
        <time>2021-11-20T16:58:16.543Z</time>
      </trkpt>
      <trkpt lat="47.510195" lon="8.013657">
        <ele>357.482340</ele>
        <time>2021-11-20T16:58:26.712Z</time>
      </trkpt>
      <trkpt lat="47.510139" lon="8.013722">
        <ele>357.587200</ele>
        <time>2021-11-20T16:58:28.181Z</time>
      </trkpt>
      <trkpt lat="47.510028" lon="8.013857">
        <ele>357.508881</ele>
        <time>2021-11-20T16:58:30.127Z</time>
      </trkpt>
      <trkpt lat="47.509928" lon="8.014411">
        <ele>357.176487</ele>
        <time>2021-11-20T16:58:36.013Z</time>
      </trkpt>
      <trkpt lat="47.509891" lon="8.014585">
        <ele>357.070748</ele>
        <time>2021-11-20T16:58:37.726Z</time>
      </trkpt>
      <trkpt lat="47.509823" lon="8.014904">
        <ele>356.876851</ele>
        <time>2021-11-20T16:58:40.286Z</time>
      </trkpt>
      <trkpt lat="47.509799" lon="8.014989">
        <ele>356.823449</ele>
        <time>2021-11-20T16:58:41.068Z</time>
      </trkpt>
      <trkpt lat="47.509686" lon="8.015069">
        <ele>356.715960</ele>
        <time>2021-11-20T16:58:42.550Z</time>
      </trkpt>
      <trkpt lat="47.509612" lon="8.015079">
        <ele>356.652193</ele>
        <time>2021-11-20T16:58:43.336Z</time>
      </trkpt>
      <trkpt lat="47.509546" lon="8.015060">
        <ele>356.594494</ele>
        <time>2021-11-20T16:58:44.039Z</time>
      </trkpt>
      <trkpt lat="47.509444" lon="8.014982">
        <ele>356.495976</ele>
        <time>2021-11-20T16:58:45.417Z</time>
      </trkpt>
      <trkpt lat="47.509142" lon="8.014737">
        <ele>356.200454</ele>
        <time>2021-11-20T16:58:49.241Z</time>
      </trkpt>
      <trkpt lat="47.508749" lon="8.014436">
        <ele>355.811497</ele>
        <time>2021-11-20T16:58:54.468Z</time>
      </trkpt>
      <trkpt lat="47.508646" lon="8.014383">
        <ele>355.714480</ele>
        <time>2021-11-20T16:58:55.696Z</time>
      </trkpt>
      <trkpt lat="47.508562" lon="8.014341">
        <ele>355.635597</ele>
        <time>2021-11-20T16:58:56.709Z</time>
      </trkpt>
      <trkpt lat="47.508375" lon="8.014403">
        <ele>355.465101</ele>
        <time>2021-11-20T16:58:59.310Z</time>
      </trkpt>
      <trkpt lat="47.508333" lon="8.014419">
        <ele>355.426516</ele>
        <time>2021-11-20T16:58:59.784Z</time>
      </trkpt>
      <trkpt lat="47.508281" lon="8.014277">
        <ele>355.329442</ele>
        <time>2021-11-20T16:59:01.039Z</time>
      </trkpt>
      <trkpt lat="47.508214" lon="8.014183">
        <ele>355.247316</ele>
        <time>2021-11-20T16:59:02.297Z</time>
      </trkpt>
      <trkpt lat="47.508075" lon="8.014054">
        <ele>355.101355</ele>
        <time>2021-11-20T16:59:04.367Z</time>
      </trkpt>
      <trkpt lat="47.508011" lon="8.013995">
        <ele>355.034276</ele>
        <time>2021-11-20T16:59:05.341Z</time>
      </trkpt>
      <trkpt lat="47.507595" lon="8.013616">
        <ele>354.599686</ele>
        <time>2021-11-20T16:59:11.746Z</time>
      </trkpt>
      <trkpt lat="47.507559" lon="8.013585">
        <ele>354.562632</ele>
        <time>2021-11-20T16:59:12.375Z</time>
      </trkpt>
      <trkpt lat="47.507231" lon="8.013292">
        <ele>354.351438</ele>
        <time>2021-11-20T16:59:17.495Z</time>
      </trkpt>
      <trkpt lat="47.507191" lon="8.013279">
        <ele>354.333893</ele>
        <time>2021-11-20T16:59:18.040Z</time>
      </trkpt>
      <trkpt lat="47.507106" lon="8.013288">
        <ele>354.297385</ele>
        <time>2021-11-20T16:59:19.173Z</time>
      </trkpt>
      <trkpt lat="47.507084" lon="8.013290">
        <ele>354.287942</ele>
        <time>2021-11-20T16:59:19.463Z</time>
      </trkpt>
      <trkpt lat="47.507038" lon="8.013279">
        <ele>354.267980</ele>
        <time>2021-11-20T16:59:20.165Z</time>
      </trkpt>
      <trkpt lat="47.507007" lon="8.013263">
        <ele>354.253915</ele>
        <time>2021-11-20T16:59:20.618Z</time>
      </trkpt>
      <trkpt lat="47.506989" lon="8.013246">
        <ele>354.244768</ele>
        <time>2021-11-20T16:59:20.931Z</time>
      </trkpt>
      <trkpt lat="47.506955" lon="8.013213">
        <ele>354.227350</ele>
        <time>2021-11-20T16:59:21.540Z</time>
      </trkpt>
      <trkpt lat="47.506929" lon="8.013191">
        <ele>354.214520</ele>
        <time>2021-11-20T16:59:22.015Z</time>
      </trkpt>
      <trkpt lat="47.506890" lon="8.013159">
        <ele>354.195418</ele>
        <time>2021-11-20T16:59:22.667Z</time>
      </trkpt>
      <trkpt lat="47.506825" lon="8.013107">
        <ele>354.163765</ele>
        <time>2021-11-20T16:59:23.690Z</time>
      </trkpt>
      <trkpt lat="47.506760" lon="8.013057">
        <ele>354.132383</ele>
        <time>2021-11-20T16:59:24.695Z</time>
      </trkpt>
      <trkpt lat="47.506697" lon="8.013001">
        <ele>354.100901</ele>
        <time>2021-11-20T16:59:25.698Z</time>
      </trkpt>
      <trkpt lat="47.506663" lon="8.012973">
        <ele>354.084233</ele>
        <time>2021-11-20T16:59:26.271Z</time>
      </trkpt>
      <trkpt lat="47.506633" lon="8.012949">
        <ele>354.069624</ele>
        <time>2021-11-20T16:59:26.767Z</time>
      </trkpt>
      <trkpt lat="47.506533" lon="8.012868">
        <ele>354.020789</ele>
        <time>2021-11-20T16:59:28.292Z</time>
      </trkpt>
      <trkpt lat="47.506492" lon="8.012798">
        <ele>353.993976</ele>
        <time>2021-11-20T16:59:29.174Z</time>
      </trkpt>
      <trkpt lat="47.506472" lon="8.012743">
        <ele>353.975900</ele>
        <time>2021-11-20T16:59:29.685Z</time>
      </trkpt>
      <trkpt lat="47.506389" lon="8.012514">
        <ele>353.900691</ele>
        <time>2021-11-20T16:59:31.933Z</time>
      </trkpt>
      <trkpt lat="47.506346" lon="8.012464">
        <ele>353.877266</ele>
        <time>2021-11-20T16:59:32.654Z</time>
      </trkpt>
      <trkpt lat="47.506308" lon="8.012429">
        <ele>353.858092</ele>
        <time>2021-11-20T16:59:33.238Z</time>
      </trkpt>
      <trkpt lat="47.506101" lon="8.012240">
        <ele>353.753900</ele>
        <time>2021-11-20T16:59:36.312Z</time>
      </trkpt>
      <trkpt lat="47.505808" lon="8.011926">
        <ele>353.910412</ele>
        <time>2021-11-20T16:59:40.939Z</time>
      </trkpt>
      <trkpt lat="47.505388" lon="8.011390">
        <ele>354.395883</ele>
        <time>2021-11-20T16:59:49.608Z</time>
      </trkpt>
      <trkpt lat="47.505237" lon="8.011270">
        <ele>354.545923</ele>
        <time>2021-11-20T16:59:52.590Z</time>
      </trkpt>
      <trkpt lat="47.504446" lon="8.010688">
        <ele>355.401633</ele>
        <time>2021-11-20T17:00:11.566Z</time>
      </trkpt>
      <trkpt lat="47.504256" lon="8.010566">
        <ele>355.927866</ele>
        <time>2021-11-20T17:00:16.659Z</time>
      </trkpt>
      <trkpt lat="47.504178" lon="8.010516">
        <ele>356.143842</ele>
        <time>2021-11-20T17:00:18.860Z</time>
      </trkpt>
      <trkpt lat="47.504018" lon="8.010447">
        <ele>356.567288</ele>
        <time>2021-11-20T17:00:23.749Z</time>
      </trkpt>
      <trkpt lat="47.503467" lon="8.010296">
        <ele>357.991119</ele>
        <time>2021-11-20T17:00:37.614Z</time>
      </trkpt>
      <trkpt lat="47.502991" lon="8.010405">
        <ele>359.214978</ele>
        <time>2021-11-20T17:00:50.188Z</time>
      </trkpt>
      <trkpt lat="47.502959" lon="8.010415">
        <ele>359.298080</ele>
        <time>2021-11-20T17:00:51.803Z</time>
      </trkpt>
      <trkpt lat="47.502773" lon="8.009928">
        <ele>360.099934</ele>
        <time>2021-11-20T17:01:01.599Z</time>
      </trkpt>
      <trkpt lat="47.502267" lon="8.008979">
        <ele>361.377603</ele>
        <time>2021-11-20T17:01:19.030Z</time>
      </trkpt>
      <trkpt lat="47.502158" lon="8.008808">
        <ele>361.626068</ele>
        <time>2021-11-20T17:01:22.062Z</time>
      </trkpt>
      <trkpt lat="47.502062" lon="8.008650">
        <ele>361.850647</ele>
        <time>2021-11-20T17:01:25.448Z</time>
      </trkpt>
      <trkpt lat="47.501943" lon="8.008353">
        <ele>362.215579</ele>
        <time>2021-11-20T17:01:29.673Z</time>
      </trkpt>
      <trkpt lat="47.501537" lon="8.007308">
        <ele>362.946240</ele>
        <time>2021-11-20T17:01:43.910Z</time>
      </trkpt>
      <trkpt lat="47.501496" lon="8.007247">
        <ele>362.977627</ele>
        <time>2021-11-20T17:01:44.941Z</time>
      </trkpt>
      <trkpt lat="47.501293" lon="8.006936">
        <ele>363.135371</ele>
        <time>2021-11-20T17:01:49.737Z</time>
      </trkpt>
      <trkpt lat="47.501276" lon="8.006911">
        <ele>363.148310</ele>
        <time>2021-11-20T17:01:50.113Z</time>
      </trkpt>
      <trkpt lat="47.500997" lon="8.006551">
        <ele>363.348154</ele>
        <time>2021-11-20T17:01:55.857Z</time>
      </trkpt>
      <trkpt lat="47.500764" lon="8.006290">
        <ele>363.505924</ele>
        <time>2021-11-20T17:02:00.340Z</time>
      </trkpt>
      <trkpt lat="47.500647" lon="8.006180">
        <ele>363.580763</ele>
        <time>2021-11-20T17:02:03.498Z</time>
      </trkpt>
      <trkpt lat="47.500540" lon="8.006079">
        <ele>363.665941</ele>
        <time>2021-11-20T17:02:05.166Z</time>
      </trkpt>
      <trkpt lat="47.500310" lon="8.005852">
        <ele>363.951353</ele>
        <time>2021-11-20T17:02:10.161Z</time>
      </trkpt>
      <trkpt lat="47.500252" lon="8.005784">
        <ele>364.027744</ele>
        <time>2021-11-20T17:02:11.326Z</time>
      </trkpt>
      <trkpt lat="47.500207" lon="8.005727">
        <ele>364.088894</ele>
        <time>2021-11-20T17:02:12.216Z</time>
      </trkpt>
      <trkpt lat="47.500009" lon="8.005488">
        <ele>364.352677</ele>
        <time>2021-11-20T17:02:17.152Z</time>
      </trkpt>
      <trkpt lat="47.499991" lon="8.005468">
        <ele>364.375914</ele>
        <time>2021-11-20T17:02:17.511Z</time>
      </trkpt>
      <trkpt lat="47.499880" lon="8.005358">
        <ele>364.513830</ele>
        <time>2021-11-20T17:02:19.899Z</time>
      </trkpt>
      <trkpt lat="47.499856" lon="8.005338">
        <ele>364.542267</ele>
        <time>2021-11-20T17:02:20.387Z</time>
      </trkpt>
      <trkpt lat="47.499770" lon="8.005268">
        <ele>364.643597</ele>
        <time>2021-11-20T17:02:23.140Z</time>
      </trkpt>
      <trkpt lat="47.499523" lon="8.005078">
        <ele>364.930996</ele>
        <time>2021-11-20T17:02:27.870Z</time>
      </trkpt>
      <trkpt lat="47.499496" lon="8.005059">
        <ele>364.961862</ele>
        <time>2021-11-20T17:02:29.217Z</time>
      </trkpt>
      <trkpt lat="47.499409" lon="8.005000">
        <ele>365.060665</ele>
        <time>2021-11-20T17:02:30.675Z</time>
      </trkpt>
      <trkpt lat="47.499183" lon="8.004875">
        <ele>365.309759</ele>
        <time>2021-11-20T17:02:35.239Z</time>
      </trkpt>
      <trkpt lat="47.499012" lon="8.004762">
        <ele>365.513238</ele>
        <time>2021-11-20T17:02:38.909Z</time>
      </trkpt>
      <trkpt lat="47.498965" lon="8.004710">
        <ele>365.614589</ele>
        <time>2021-11-20T17:02:40.071Z</time>
      </trkpt>
      <trkpt lat="47.498898" lon="8.004636">
        <ele>365.758979</ele>
        <time>2021-11-20T17:02:41.732Z</time>
      </trkpt>
      <trkpt lat="47.498753" lon="8.004410">
        <ele>366.122673</ele>
        <time>2021-11-20T17:02:46.219Z</time>
      </trkpt>
      <trkpt lat="47.498698" lon="8.004313">
        <ele>366.270445</ele>
        <time>2021-11-20T17:02:48.114Z</time>
      </trkpt>
      <trkpt lat="47.498450" lon="8.003874">
        <ele>366.938211</ele>
        <time>2021-11-20T17:02:56.908Z</time>
      </trkpt>
      <trkpt lat="47.498213" lon="8.003454">
        <ele>367.576783</ele>
        <time>2021-11-20T17:03:05.102Z</time>
      </trkpt>
      <trkpt lat="47.498166" lon="8.003383">
        <ele>367.692777</ele>
        <time>2021-11-20T17:03:06.530Z</time>
      </trkpt>
      <trkpt lat="47.498072" lon="8.003250">
        <ele>367.917383</ele>
        <time>2021-11-20T17:03:09.278Z</time>
      </trkpt>
      <trkpt lat="47.497951" lon="8.003094">
        <ele>368.194542</ele>
        <time>2021-11-20T17:03:13.113Z</time>
      </trkpt>
      <trkpt lat="47.497607" lon="8.002710">
        <ele>368.941370</ele>
        <time>2021-11-20T17:03:22.513Z</time>
      </trkpt>
      <trkpt lat="47.497540" lon="8.002634">
        <ele>369.088286</ele>
        <time>2021-11-20T17:03:24.372Z</time>
      </trkpt>
      <trkpt lat="47.497390" lon="8.002409">
        <ele>369.459976</ele>
        <time>2021-11-20T17:03:29.107Z</time>
      </trkpt>
      <trkpt lat="47.497307" lon="8.002279">
        <ele>369.670298</ele>
        <time>2021-11-20T17:03:31.689Z</time>
      </trkpt>
      <trkpt lat="47.497264" lon="8.002219">
        <ele>369.773150</ele>
        <time>2021-11-20T17:03:33.231Z</time>
      </trkpt>
      <trkpt lat="47.497207" lon="8.002132">
        <ele>369.915653</ele>
        <time>2021-11-20T17:03:34.859Z</time>
      </trkpt>
      <trkpt lat="47.496932" lon="8.001715">
        <ele>370.600865</ele>
        <time>2021-11-20T17:03:43.975Z</time>
      </trkpt>
      <trkpt lat="47.496908" lon="8.001680">
        <ele>370.659505</ele>
        <time>2021-11-20T17:03:44.720Z</time>
      </trkpt>
      <trkpt lat="47.496861" lon="8.001608">
        <ele>370.777230</ele>
        <time>2021-11-20T17:03:46.231Z</time>
      </trkpt>
      <trkpt lat="47.496820" lon="8.001547">
        <ele>370.878409</ele>
        <time>2021-11-20T17:03:47.547Z</time>
      </trkpt>
      <trkpt lat="47.496585" lon="8.001187">
        <ele>371.467038</ele>
        <time>2021-11-20T17:03:54.646Z</time>
      </trkpt>
      <trkpt lat="47.496535" lon="8.001108">
        <ele>371.594327</ele>
        <time>2021-11-20T17:03:56.205Z</time>
      </trkpt>
      <trkpt lat="47.496533" lon="8.001104">
        <ele>371.600179</ele>
        <time>2021-11-20T17:03:56.278Z</time>
      </trkpt>
      <trkpt lat="47.496517" lon="8.001077">
        <ele>371.642410</ele>
        <time>2021-11-20T17:03:57.078Z</time>
      </trkpt>
      <trkpt lat="47.496429" lon="8.000925">
        <ele>371.788070</ele>
        <time>2021-11-20T17:03:59.408Z</time>
      </trkpt>
      <trkpt lat="47.496280" lon="8.000664">
        <ele>371.953752</ele>
        <time>2021-11-20T17:04:04.270Z</time>
      </trkpt>
      <trkpt lat="47.496272" lon="8.000651">
        <ele>371.962278</ele>
        <time>2021-11-20T17:04:04.481Z</time>
      </trkpt>
      <trkpt lat="47.496234" lon="8.000584">
        <ele>372.004694</ele>
        <time>2021-11-20T17:04:05.371Z</time>
      </trkpt>
      <trkpt lat="47.496011" lon="8.000286">
        <ele>372.220313</ele>
        <time>2021-11-20T17:04:11.065Z</time>
      </trkpt>
      <trkpt lat="47.495718" lon="8.000005">
        <ele>372.470875</ele>
        <time>2021-11-20T17:04:17.222Z</time>
      </trkpt>
      <trkpt lat="47.495430" lon="7.999752">
        <ele>372.711228</ele>
        <time>2021-11-20T17:04:22.745Z</time>
      </trkpt>
      <trkpt lat="47.495197" lon="7.999589">
        <ele>372.896182</ele>
        <time>2021-11-20T17:04:26.934Z</time>
      </trkpt>
      <trkpt lat="47.494812" lon="7.999457">
        <ele>373.078337</ele>
        <time>2021-11-20T17:04:33.062Z</time>
      </trkpt>
      <trkpt lat="47.494643" lon="7.999430">
        <ele>373.124790</ele>
        <time>2021-11-20T17:04:35.518Z</time>
      </trkpt>
      <trkpt lat="47.494489" lon="7.999417">
        <ele>373.166945</ele>
        <time>2021-11-20T17:04:37.612Z</time>
      </trkpt>
      <trkpt lat="47.494272" lon="7.999381">
        <ele>373.226619</ele>
        <time>2021-11-20T17:04:40.617Z</time>
      </trkpt>
      <trkpt lat="47.493961" lon="7.999292">
        <ele>373.313185</ele>
        <time>2021-11-20T17:04:45.276Z</time>
      </trkpt>
      <trkpt lat="47.493937" lon="7.999285">
        <ele>373.319870</ele>
        <time>2021-11-20T17:04:45.762Z</time>
      </trkpt>
      <trkpt lat="47.493742" lon="7.999216">
        <ele>373.374662</ele>
        <time>2021-11-20T17:04:48.936Z</time>
      </trkpt>
      <trkpt lat="47.493603" lon="7.999152">
        <ele>373.414445</ele>
        <time>2021-11-20T17:04:51.520Z</time>
      </trkpt>
      <trkpt lat="47.493614" lon="7.999095">
        <ele>373.425391</ele>
        <time>2021-11-20T17:04:52.192Z</time>
      </trkpt>
      <trkpt lat="47.493634" lon="7.998744">
        <ele>373.490433</ele>
        <time>2021-11-20T17:04:56.122Z</time>
      </trkpt>
      <trkpt lat="47.493506" lon="7.998323">
        <ele>373.758172</ele>
        <time>2021-11-20T17:05:02.080Z</time>
      </trkpt>
      <trkpt lat="47.493473" lon="7.998227">
        <ele>373.831281</ele>
        <time>2021-11-20T17:05:03.476Z</time>
      </trkpt>
      <trkpt lat="47.493432" lon="7.998154">
        <ele>373.895714</ele>
        <time>2021-11-20T17:05:04.937Z</time>
      </trkpt>
      <trkpt lat="47.493360" lon="7.998025">
        <ele>374.009286</ele>
        <time>2021-11-20T17:05:07.101Z</time>
      </trkpt>
      <trkpt lat="47.493293" lon="7.997765">
        <ele>374.198165</ele>
        <time>2021-11-20T17:05:10.616Z</time>
      </trkpt>
      <trkpt lat="47.493293" lon="7.997679">
        <ele>374.256539</ele>
        <time>2021-11-20T17:05:11.937Z</time>
      </trkpt>
      <trkpt lat="47.493330" lon="7.997491">
        <ele>374.389450</ele>
        <time>2021-11-20T17:05:14.413Z</time>
      </trkpt>
      <trkpt lat="47.493376" lon="7.997354">
        <ele>374.493290</ele>
        <time>2021-11-20T17:05:16.228Z</time>
      </trkpt>
      <trkpt lat="47.493439" lon="7.997189">
        <ele>374.621932</ele>
        <time>2021-11-20T17:05:18.753Z</time>
      </trkpt>
      <trkpt lat="47.493629" lon="7.996681">
        <ele>375.016047</ele>
        <time>2021-11-20T17:05:26.105Z</time>
      </trkpt>
      <trkpt lat="47.493684" lon="7.996562">
        <ele>375.113909</ele>
        <time>2021-11-20T17:05:28.060Z</time>
      </trkpt>
      <trkpt lat="47.493652" lon="7.996488">
        <ele>375.173544</ele>
        <time>2021-11-20T17:05:29.165Z</time>
      </trkpt>
      <trkpt lat="47.493567" lon="7.996156">
        <ele>375.415130</ele>
        <time>2021-11-20T17:05:33.679Z</time>
      </trkpt>
      <trkpt lat="47.493524" lon="7.995985">
        <ele>375.539720</ele>
        <time>2021-11-20T17:05:36.043Z</time>
      </trkpt>
      <trkpt lat="47.493430" lon="7.995894">
        <ele>375.653235</ele>
        <time>2021-11-20T17:05:38.026Z</time>
      </trkpt>
      <trkpt lat="47.492867" lon="7.995700">
        <ele>376.237426</ele>
        <time>2021-11-20T17:05:49.174Z</time>
      </trkpt>
      <trkpt lat="47.492390" lon="7.995213">
        <ele>376.823063</ele>
        <time>2021-11-20T17:06:00.059Z</time>
      </trkpt>
      <trkpt lat="47.492344" lon="7.995171">
        <ele>376.877686</ele>
        <time>2021-11-20T17:06:01.069Z</time>
      </trkpt>
      <trkpt lat="47.492271" lon="7.995104">
        <ele>376.964495</ele>
        <time>2021-11-20T17:06:02.685Z</time>
      </trkpt>
      <trkpt lat="47.492156" lon="7.994971">
        <ele>377.111992</ele>
        <time>2021-11-20T17:06:05.214Z</time>
      </trkpt>
      <trkpt lat="47.491996" lon="7.994807">
        <ele>377.328663</ele>
        <time>2021-11-20T17:06:09.894Z</time>
      </trkpt>
      <trkpt lat="47.491759" lon="7.994592">
        <ele>377.641376</ele>
        <time>2021-11-20T17:06:16.389Z</time>
      </trkpt>
      <trkpt lat="47.491577" lon="7.994479">
        <ele>377.863402</ele>
        <time>2021-11-20T17:06:21.306Z</time>
      </trkpt>
      <trkpt lat="47.491370" lon="7.994298">
        <ele>378.133872</ele>
        <time>2021-11-20T17:06:27.253Z</time>
      </trkpt>
      <trkpt lat="47.490495" lon="7.993473">
        <ele>379.322011</ele>
        <time>2021-11-20T17:06:53.485Z</time>
      </trkpt>
      <trkpt lat="47.490410" lon="7.993359">
        <ele>379.469697</ele>
        <time>2021-11-20T17:06:56.667Z</time>
      </trkpt>
      <trkpt lat="47.489739" lon="7.992457">
        <ele>380.636760</ele>
        <time>2021-11-20T17:07:19.456Z</time>
      </trkpt>
      <trkpt lat="47.489640" lon="7.992334">
        <ele>380.803180</ele>
        <time>2021-11-20T17:07:22.781Z</time>
      </trkpt>
      <trkpt lat="47.489544" lon="7.992214">
        <ele>380.964964</ele>
        <time>2021-11-20T17:07:26.097Z</time>
      </trkpt>
      <trkpt lat="47.489090" lon="7.991643">
        <ele>381.777460</ele>
        <time>2021-11-20T17:07:41.014Z</time>
      </trkpt>
      <trkpt lat="47.488771" lon="7.991233">
        <ele>382.416116</ele>
        <time>2021-11-20T17:07:51.654Z</time>
      </trkpt>
      <trkpt lat="47.488698" lon="7.991149">
        <ele>382.555891</ele>
        <time>2021-11-20T17:07:54.120Z</time>
      </trkpt>
      <trkpt lat="47.487359" lon="7.989771">
        <ele>385.081145</ele>
        <time>2021-11-20T17:08:37.719Z</time>
      </trkpt>
      <trkpt lat="47.487298" lon="7.989709">
        <ele>385.201073</ele>
        <time>2021-11-20T17:08:40.029Z</time>
      </trkpt>
      <trkpt lat="47.487127" lon="7.989547">
        <ele>385.530119</ele>
        <time>2021-11-20T17:08:45.189Z</time>
      </trkpt>
      <trkpt lat="47.486511" lon="7.989012">
        <ele>386.687641</ele>
        <time>2021-11-20T17:09:04.398Z</time>
      </trkpt>
      <trkpt lat="47.486162" lon="7.988596">
        <ele>387.394773</ele>
        <time>2021-11-20T17:09:16.326Z</time>
      </trkpt>
      <trkpt lat="47.485848" lon="7.988106">
        <ele>388.088567</ele>
        <time>2021-11-20T17:09:28.479Z</time>
      </trkpt>
      <trkpt lat="47.485496" lon="7.987549">
        <ele>388.872086</ele>
        <time>2021-11-20T17:09:41.407Z</time>
      </trkpt>
      <trkpt lat="47.484679" lon="7.986270">
        <ele>390.948425</ele>
        <time>2021-11-20T17:10:12.910Z</time>
      </trkpt>
      <trkpt lat="47.484546" lon="7.985963">
        <ele>391.442542</ele>
        <time>2021-11-20T17:10:20.006Z</time>
      </trkpt>
      <trkpt lat="47.484451" lon="7.985647">
        <ele>391.911174</ele>
        <time>2021-11-20T17:10:26.955Z</time>
      </trkpt>
      <trkpt lat="47.484219" lon="7.985842">
        <ele>392.446146</ele>
        <time>2021-11-20T17:10:34.877Z</time>
      </trkpt>
      <trkpt lat="47.484091" lon="7.985948">
        <ele>392.740248</ele>
        <time>2021-11-20T17:10:39.197Z</time>
      </trkpt>
      <trkpt lat="47.484049" lon="7.985980">
        <ele>392.834967</ele>
        <time>2021-11-20T17:10:40.560Z</time>
      </trkpt>
      <trkpt lat="47.483826" lon="7.986159">
        <ele>393.343639</ele>
        <time>2021-11-20T17:10:48.121Z</time>
      </trkpt>
      <trkpt lat="47.483550" lon="7.986378">
        <ele>393.735145</ele>
        <time>2021-11-20T17:10:57.099Z</time>
      </trkpt>
      <trkpt lat="47.483462" lon="7.986151">
        <ele>393.930325</ele>
        <time>2021-11-20T17:11:00.986Z</time>
      </trkpt>
      <trkpt lat="47.483382" lon="7.985915">
        <ele>394.127243</ele>
        <time>2021-11-20T17:11:05.089Z</time>
      </trkpt>
      <trkpt lat="47.483356" lon="7.985963">
        <ele>394.173123</ele>
        <time>2021-11-20T17:11:06.059Z</time>
      </trkpt>
      <trkpt lat="47.483310" lon="7.986188">
        <ele>394.348446</ele>
        <time>2021-11-20T17:11:09.347Z</time>
      </trkpt>
      <trkpt lat="47.483308" lon="7.986306">
        <ele>394.436481</ele>
        <time>2021-11-20T17:11:11.170Z</time>
      </trkpt>
      <trkpt lat="47.483309" lon="7.986795">
        <ele>394.801194</ele>
        <time>2021-11-20T17:11:17.907Z</time>
      </trkpt>
      <trkpt lat="47.483382" lon="7.988556">
        <ele>394.920368</ele>
        <time>2021-11-20T17:11:34.239Z</time>
      </trkpt>
      <trkpt lat="47.483339" lon="7.989304">
        <ele>394.504073</ele>
        <time>2021-11-20T17:11:40.169Z</time>
      </trkpt>
      <trkpt lat="47.483318" lon="7.989442">
        <ele>394.425630</ele>
        <time>2021-11-20T17:11:41.182Z</time>
      </trkpt>
      <trkpt lat="47.483225" lon="7.989955">
        <ele>394.131092</ele>
        <time>2021-11-20T17:11:45.469Z</time>
      </trkpt>
      <trkpt lat="47.483198" lon="7.990097">
        <ele>394.049290</ele>
        <time>2021-11-20T17:11:46.926Z</time>
      </trkpt>
      <trkpt lat="47.483192" lon="7.990129">
        <ele>394.030874</ele>
        <time>2021-11-20T17:11:47.203Z</time>
      </trkpt>
      <trkpt lat="47.483152" lon="7.990327">
        <ele>393.969871</ele>
        <time>2021-11-20T17:11:48.991Z</time>
      </trkpt>
      <trkpt lat="47.483027" lon="7.990927">
        <ele>394.106119</ele>
        <time>2021-11-20T17:11:54.391Z</time>
      </trkpt>
      <trkpt lat="47.483009" lon="7.990995">
        <ele>394.121967</ele>
        <time>2021-11-20T17:11:54.997Z</time>
      </trkpt>
      <trkpt lat="47.482872" lon="7.991012">
        <ele>394.166113</ele>
        <time>2021-11-20T17:11:57.283Z</time>
      </trkpt>
      <trkpt lat="47.482259" lon="7.991194">
        <ele>394.366872</ele>
        <time>2021-11-20T17:12:07.156Z</time>
      </trkpt>
      <trkpt lat="47.481732" lon="7.991480">
        <ele>394.600510</ele>
        <time>2021-11-20T17:12:18.728Z</time>
      </trkpt>
      <trkpt lat="47.481496" lon="7.991617">
        <ele>394.976190</ele>
        <time>2021-11-20T17:12:24.309Z</time>
      </trkpt>
      <trkpt lat="47.481096" lon="7.991850">
        <ele>395.613227</ele>
        <time>2021-11-20T17:12:33.229Z</time>
      </trkpt>
      <trkpt lat="47.480657" lon="7.991988">
        <ele>396.278300</ele>
        <time>2021-11-20T17:12:42.461Z</time>
      </trkpt>
      <trkpt lat="47.480402" lon="7.991988">
        <ele>396.656184</ele>
        <time>2021-11-20T17:12:48.100Z</time>
      </trkpt>
      <trkpt lat="47.479254" lon="7.991575">
        <ele>398.411104</ele>
        <time>2021-11-20T17:13:12.254Z</time>
      </trkpt>
      <trkpt lat="47.479179" lon="7.991567">
        <ele>398.522917</ele>
        <time>2021-11-20T17:13:13.878Z</time>
      </trkpt>
      <trkpt lat="47.479142" lon="7.991563">
        <ele>398.578081</ele>
        <time>2021-11-20T17:13:14.596Z</time>
      </trkpt>
      <trkpt lat="47.478975" lon="7.991551">
        <ele>398.826698</ele>
        <time>2021-11-20T17:13:17.973Z</time>
      </trkpt>
      <trkpt lat="47.477593" lon="7.991455">
        <ele>401.492001</ele>
        <time>2021-11-20T17:13:47.259Z</time>
      </trkpt>
      <trkpt lat="47.477212" lon="7.991382">
        <ele>402.406616</ele>
        <time>2021-11-20T17:13:55.994Z</time>
      </trkpt>
      <trkpt lat="47.476858" lon="7.991285">
        <ele>403.263710</ele>
        <time>2021-11-20T17:14:04.870Z</time>
      </trkpt>
      <trkpt lat="47.476495" lon="7.991119">
        <ele>404.187318</ele>
        <time>2021-11-20T17:14:15.424Z</time>
      </trkpt>
      <trkpt lat="47.475752" lon="7.990844">
        <ele>408.503726</ele>
        <time>2021-11-20T17:14:40.800Z</time>
      </trkpt>
      <trkpt lat="47.475384" lon="7.990744">
        <ele>410.612377</ele>
        <time>2021-11-20T17:14:55.056Z</time>
      </trkpt>
      <trkpt lat="47.474869" lon="7.990750">
        <ele>413.514884</ele>
        <time>2021-11-20T17:15:16.668Z</time>
      </trkpt>
      <trkpt lat="47.473566" lon="7.991189">
        <ele>422.710798</ele>
        <time>2021-11-20T17:16:18.985Z</time>
      </trkpt>
      <trkpt lat="47.473097" lon="7.991272">
        <ele>426.028737</ele>
        <time>2021-11-20T17:16:38.038Z</time>
      </trkpt>
      <trkpt lat="47.472796" lon="7.991311">
        <ele>427.430909</ele>
        <time>2021-11-20T17:16:49.254Z</time>
      </trkpt>
      <trkpt lat="47.472461" lon="7.991354">
        <ele>428.404972</ele>
        <time>2021-11-20T17:17:00.138Z</time>
      </trkpt>
      <trkpt lat="47.471790" lon="7.991484">
        <ele>430.365298</ele>
        <time>2021-11-20T17:17:18.261Z</time>
      </trkpt>
      <trkpt lat="47.471617" lon="7.991535">
        <ele>430.876292</ele>
        <time>2021-11-20T17:17:21.808Z</time>
      </trkpt>
      <trkpt lat="47.470749" lon="7.991887">
        <ele>432.331948</ele>
        <time>2021-11-20T17:17:37.026Z</time>
      </trkpt>
      <trkpt lat="47.470033" lon="7.992305">
        <ele>432.656661</ele>
        <time>2021-11-20T17:17:48.678Z</time>
      </trkpt>
      <trkpt lat="47.469747" lon="7.992506">
        <ele>432.790234</ele>
        <time>2021-11-20T17:17:53.950Z</time>
      </trkpt>
      <trkpt lat="47.469362" lon="7.992773">
        <ele>433.024421</ele>
        <time>2021-11-20T17:18:01.413Z</time>
      </trkpt>
      <trkpt lat="47.468375" lon="7.993424">
        <ele>433.812708</ele>
        <time>2021-11-20T17:18:20.436Z</time>
      </trkpt>
      <trkpt lat="47.468089" lon="7.993593">
        <ele>434.037359</ele>
        <time>2021-11-20T17:18:26.106Z</time>
      </trkpt>
      <trkpt lat="47.467721" lon="7.993817">
        <ele>434.410276</ele>
        <time>2021-11-20T17:18:33.280Z</time>
      </trkpt>
      <trkpt lat="47.467579" lon="7.993896">
        <ele>434.596411</ele>
        <time>2021-11-20T17:18:35.874Z</time>
      </trkpt>
      <trkpt lat="47.467154" lon="7.994150">
        <ele>435.158798</ele>
        <time>2021-11-20T17:18:45.031Z</time>
      </trkpt>
      <trkpt lat="47.466146" lon="7.994726">
        <ele>436.461154</ele>
        <time>2021-11-20T17:19:06.869Z</time>
      </trkpt>
      <trkpt lat="47.465905" lon="7.994879">
        <ele>436.677240</ele>
        <time>2021-11-20T17:19:12.386Z</time>
      </trkpt>
      <trkpt lat="47.465772" lon="7.994973">
        <ele>436.798691</ele>
        <time>2021-11-20T17:19:15.553Z</time>
      </trkpt>
      <trkpt lat="47.465613" lon="7.995104">
        <ele>436.948649</ele>
        <time>2021-11-20T17:19:18.942Z</time>
      </trkpt>
      <trkpt lat="47.465230" lon="7.995479">
        <ele>437.327088</ele>
        <time>2021-11-20T17:19:27.390Z</time>
      </trkpt>
      <trkpt lat="47.465119" lon="7.995595">
        <ele>437.439068</ele>
        <time>2021-11-20T17:19:30.081Z</time>
      </trkpt>
      <trkpt lat="47.465105" lon="7.995610">
        <ele>437.453312</ele>
        <time>2021-11-20T17:19:30.256Z</time>
      </trkpt>
      <trkpt lat="47.464249" lon="7.996297">
        <ele>437.839016</ele>
        <time>2021-11-20T17:19:45.982Z</time>
      </trkpt>
      <trkpt lat="47.464131" lon="7.996368">
        <ele>437.822655</ele>
        <time>2021-11-20T17:19:47.634Z</time>
      </trkpt>
      <trkpt lat="47.463691" lon="7.996686">
        <ele>437.759761</ele>
        <time>2021-11-20T17:19:54.001Z</time>
      </trkpt>
      <trkpt lat="47.463326" lon="7.997031">
        <ele>437.704131</ele>
        <time>2021-11-20T17:20:00.008Z</time>
      </trkpt>
      <trkpt lat="47.463107" lon="7.997172">
        <ele>437.673455</ele>
        <time>2021-11-20T17:20:03.189Z</time>
      </trkpt>
      <trkpt lat="47.463019" lon="7.997210">
        <ele>437.676408</ele>
        <time>2021-11-20T17:20:04.620Z</time>
      </trkpt>
      <trkpt lat="47.462705" lon="7.997285">
        <ele>437.873366</ele>
        <time>2021-11-20T17:20:09.635Z</time>
      </trkpt>
      <trkpt lat="47.462598" lon="7.997285">
        <ele>437.939624</ele>
        <time>2021-11-20T17:20:11.466Z</time>
      </trkpt>
      <trkpt lat="47.462350" lon="7.997293">
        <ele>438.093231</ele>
        <time>2021-11-20T17:20:15.732Z</time>
      </trkpt>
      <trkpt lat="47.462299" lon="7.997298">
        <ele>438.124881</ele>
        <time>2021-11-20T17:20:16.771Z</time>
      </trkpt>
      <trkpt lat="47.461927" lon="7.997527">
        <ele>438.374390</ele>
        <time>2021-11-20T17:20:23.629Z</time>
      </trkpt>
      <trkpt lat="47.461552" lon="7.997973">
        <ele>438.672362</ele>
        <time>2021-11-20T17:20:31.840Z</time>
      </trkpt>
      <trkpt lat="47.461502" lon="7.997997">
        <ele>438.704913</ele>
        <time>2021-11-20T17:20:33.257Z</time>
      </trkpt>
      <trkpt lat="47.461438" lon="7.998032">
        <ele>438.747166</ele>
        <time>2021-11-20T17:20:34.514Z</time>
      </trkpt>
      <trkpt lat="47.461284" lon="7.998059">
        <ele>438.942982</ele>
        <time>2021-11-20T17:20:37.547Z</time>
      </trkpt>
      <trkpt lat="47.461149" lon="7.998038">
        <ele>439.155681</ele>
        <time>2021-11-20T17:20:40.573Z</time>
      </trkpt>
      <trkpt lat="47.461062" lon="7.998039">
        <ele>439.292007</ele>
        <time>2021-11-20T17:20:42.191Z</time>
      </trkpt>
      <trkpt lat="47.460985" lon="7.998062">
        <ele>439.415094</ele>
        <time>2021-11-20T17:20:44.090Z</time>
      </trkpt>
      <trkpt lat="47.460942" lon="7.998082">
        <ele>439.485724</ele>
        <time>2021-11-20T17:20:44.952Z</time>
      </trkpt>
      <trkpt lat="47.460924" lon="7.998094">
        <ele>439.516661</ele>
        <time>2021-11-20T17:20:45.287Z</time>
      </trkpt>
      <trkpt lat="47.460857" lon="7.998139">
        <ele>439.631961</ele>
        <time>2021-11-20T17:20:46.588Z</time>
      </trkpt>
      <trkpt lat="47.460836" lon="7.998161">
        <ele>439.672284</ele>
        <time>2021-11-20T17:20:47.342Z</time>
      </trkpt>
      <trkpt lat="47.460660" lon="7.998379">
        <ele>440.031989</ele>
        <time>2021-11-20T17:20:52.070Z</time>
      </trkpt>
      <trkpt lat="47.460488" lon="7.998555">
        <ele>440.359707</ele>
        <time>2021-11-20T17:20:56.667Z</time>
      </trkpt>
      <trkpt lat="47.460218" lon="7.998745">
        <ele>440.828215</ele>
        <time>2021-11-20T17:21:02.915Z</time>
      </trkpt>
      <trkpt lat="47.459934" lon="7.998910">
        <ele>441.306318</ele>
        <time>2021-11-20T17:21:09.298Z</time>
      </trkpt>
      <trkpt lat="47.459866" lon="7.998934">
        <ele>441.415859</ele>
        <time>2021-11-20T17:21:11.134Z</time>
      </trkpt>
      <trkpt lat="47.459773" lon="7.998935">
        <ele>441.561586</ele>
        <time>2021-11-20T17:21:13.303Z</time>
      </trkpt>
      <trkpt lat="47.459283" lon="7.998698">
        <ele>442.891020</ele>
        <time>2021-11-20T17:21:24.721Z</time>
      </trkpt>
      <trkpt lat="47.459205" lon="7.998672">
        <ele>443.100840</ele>
        <time>2021-11-20T17:21:26.643Z</time>
      </trkpt>
      <trkpt lat="47.459150" lon="7.998657">
        <ele>443.247604</ele>
        <time>2021-11-20T17:21:28.183Z</time>
      </trkpt>
      <trkpt lat="47.459032" lon="7.998632">
        <ele>443.560419</ele>
        <time>2021-11-20T17:21:30.974Z</time>
      </trkpt>
      <trkpt lat="47.458630" lon="7.998609">
        <ele>444.616132</ele>
        <time>2021-11-20T17:21:40.389Z</time>
      </trkpt>
      <trkpt lat="47.458509" lon="7.998633">
        <ele>444.936501</ele>
        <time>2021-11-20T17:21:43.564Z</time>
      </trkpt>
      <trkpt lat="47.458410" lon="7.998658">
        <ele>445.200055</ele>
        <time>2021-11-20T17:21:47.061Z</time>
      </trkpt>
      <trkpt lat="47.457243" lon="7.999411">
        <ele>449.109501</ele>
        <time>2021-11-20T17:22:23.861Z</time>
      </trkpt>
      <trkpt lat="47.457133" lon="7.999505">
        <ele>449.528029</ele>
        <time>2021-11-20T17:22:28.801Z</time>
      </trkpt>
      <trkpt lat="47.457107" lon="7.999528">
        <ele>449.627836</ele>
        <time>2021-11-20T17:22:29.859Z</time>
      </trkpt>
      <trkpt lat="47.456363" lon="8.000219">
        <ele>452.466321</ele>
        <time>2021-11-20T17:22:51.148Z</time>
      </trkpt>
      <trkpt lat="47.456267" lon="8.000301">
        <ele>452.758865</ele>
        <time>2021-11-20T17:22:55.746Z</time>
      </trkpt>
      <trkpt lat="47.455740" lon="8.000709">
        <ele>454.328553</ele>
        <time>2021-11-20T17:23:09.834Z</time>
      </trkpt>
      <trkpt lat="47.455049" lon="8.001106">
        <ele>456.284751</ele>
        <time>2021-11-20T17:23:28.406Z</time>
      </trkpt>
      <trkpt lat="47.454570" lon="8.001381">
        <ele>457.795999</ele>
        <time>2021-11-20T17:23:42.129Z</time>
      </trkpt>
      <trkpt lat="47.454148" lon="8.001857">
        <ele>459.529919</ele>
        <time>2021-11-20T17:23:55.391Z</time>
      </trkpt>
      <trkpt lat="47.454027" lon="8.002090">
        <ele>460.178923</ele>
        <time>2021-11-20T17:24:01.066Z</time>
      </trkpt>
      <trkpt lat="47.453983" lon="8.002195">
        <ele>460.451810</ele>
        <time>2021-11-20T17:24:03.398Z</time>
      </trkpt>
      <trkpt lat="47.453932" lon="8.002372">
        <ele>460.876842</ele>
        <time>2021-11-20T17:24:06.960Z</time>
      </trkpt>
      <trkpt lat="47.453903" lon="8.002487">
        <ele>461.147981</ele>
        <time>2021-11-20T17:24:09.516Z</time>
      </trkpt>
      <trkpt lat="47.453815" lon="8.002812">
        <ele>461.921364</ele>
        <time>2021-11-20T17:24:16.518Z</time>
      </trkpt>
      <trkpt lat="47.453556" lon="8.003416">
        <ele>463.569185</ele>
        <time>2021-11-20T17:24:31.978Z</time>
      </trkpt>
      <trkpt lat="47.452892" lon="8.004632">
        <ele>467.389703</ele>
        <time>2021-11-20T17:25:03.517Z</time>
      </trkpt>
      <trkpt lat="47.452809" lon="8.004791">
        <ele>467.880700</ele>
        <time>2021-11-20T17:25:07.529Z</time>
      </trkpt>
      <trkpt lat="47.452707" lon="8.004978">
        <ele>468.467979</ele>
        <time>2021-11-20T17:25:11.445Z</time>
      </trkpt>
      <trkpt lat="47.452632" lon="8.005093">
        <ele>468.858524</ele>
        <time>2021-11-20T17:25:14.326Z</time>
      </trkpt>
      <trkpt lat="47.452544" lon="8.005204">
        <ele>469.276633</ele>
        <time>2021-11-20T17:25:17.458Z</time>
      </trkpt>
      <trkpt lat="47.452429" lon="8.005350">
        <ele>469.914599</ele>
        <time>2021-11-20T17:25:21.298Z</time>
      </trkpt>
      <trkpt lat="47.452304" lon="8.005472">
        <ele>470.562414</ele>
        <time>2021-11-20T17:25:25.714Z</time>
      </trkpt>
      <trkpt lat="47.451940" lon="8.005767">
        <ele>472.357801</ele>
        <time>2021-11-20T17:25:37.706Z</time>
      </trkpt>
      <trkpt lat="47.451777" lon="8.005920">
        <ele>473.192878</ele>
        <time>2021-11-20T17:25:43.435Z</time>
      </trkpt>
      <trkpt lat="47.451704" lon="8.006006">
        <ele>473.596581</ele>
        <time>2021-11-20T17:25:46.867Z</time>
      </trkpt>
      <trkpt lat="47.451459" lon="8.006532">
        <ele>475.464743</ele>
        <time>2021-11-20T17:26:01.971Z</time>
      </trkpt>
      <trkpt lat="47.451374" lon="8.006835">
        <ele>476.424231</ele>
        <time>2021-11-20T17:26:09.390Z</time>
      </trkpt>
      <trkpt lat="47.451223" lon="8.007424">
        <ele>478.832126</ele>
        <time>2021-11-20T17:26:24.978Z</time>
      </trkpt>
      <trkpt lat="47.451152" lon="8.007815">
        <ele>480.613877</ele>
        <time>2021-11-20T17:26:35.326Z</time>
      </trkpt>
      <trkpt lat="47.451125" lon="8.007964">
        <ele>481.292762</ele>
        <time>2021-11-20T17:26:39.684Z</time>
      </trkpt>
      <trkpt lat="47.451025" lon="8.008518">
        <ele>483.816287</ele>
        <time>2021-11-20T17:26:55.299Z</time>
      </trkpt>
      <trkpt lat="47.450739" lon="8.010629">
        <ele>494.244962</ele>
        <time>2021-11-20T17:28:00.007Z</time>
      </trkpt>
      <trkpt lat="47.450620" lon="8.012203">
        <ele>502.712494</ele>
        <time>2021-11-20T17:28:50.141Z</time>
      </trkpt>
      <trkpt lat="47.450695" lon="8.012685">
        <ele>506.321086</ele>
        <time>2021-11-20T17:29:05.885Z</time>
      </trkpt>
      <trkpt lat="47.450792" lon="8.012931">
        <ele>508.486251</ele>
        <time>2021-11-20T17:29:16.241Z</time>
      </trkpt>
      <trkpt lat="47.451318" lon="8.013628">
        <ele>516.427424</ele>
        <time>2021-11-20T17:30:00.020Z</time>
      </trkpt>
      <trkpt lat="47.451629" lon="8.014256">
        <ele>522.345733</ele>
        <time>2021-11-20T17:30:33.957Z</time>
      </trkpt>
      <trkpt lat="47.451647" lon="8.014819">
        <ele>526.869435</ele>
        <time>2021-11-20T17:31:02.316Z</time>
      </trkpt>
      <trkpt lat="47.451482" lon="8.015245">
        <ele>530.868829</ele>
        <time>2021-11-20T17:31:21.155Z</time>
      </trkpt>
      <trkpt lat="47.451445" lon="8.015298">
        <ele>531.489405</ele>
        <time>2021-11-20T17:31:26.792Z</time>
      </trkpt>
      <trkpt lat="47.451437" lon="8.015310">
        <ele>531.626684</ele>
        <time>2021-11-20T17:31:28.081Z</time>
      </trkpt>
      <trkpt lat="47.451269" lon="8.015462">
        <ele>533.999376</ele>
        <time>2021-11-20T17:31:36.007Z</time>
      </trkpt>
      <trkpt lat="47.450380" lon="8.015953">
        <ele>545.273311</ele>
        <time>2021-11-20T17:32:36.051Z</time>
      </trkpt>
      <trkpt lat="47.449870" lon="8.016383">
        <ele>549.944198</ele>
        <time>2021-11-20T17:33:05.271Z</time>
      </trkpt>
      <trkpt lat="47.449594" lon="8.016517">
        <ele>552.255447</ele>
        <time>2021-11-20T17:33:16.321Z</time>
      </trkpt>
      <trkpt lat="47.449353" lon="8.016588">
        <ele>554.210586</ele>
        <time>2021-11-20T17:33:27.360Z</time>
      </trkpt>
      <trkpt lat="47.449199" lon="8.016667">
        <ele>555.507480</ele>
        <time>2021-11-20T17:33:34.272Z</time>
      </trkpt>
      <trkpt lat="47.449073" lon="8.016786">
        <ele>556.696984</ele>
        <time>2021-11-20T17:33:40.666Z</time>
      </trkpt>
      <trkpt lat="47.448981" lon="8.016904">
        <ele>557.665935</ele>
        <time>2021-11-20T17:33:46.011Z</time>
      </trkpt>
      <trkpt lat="47.448929" lon="8.016978">
        <ele>558.240123</ele>
        <time>2021-11-20T17:33:48.966Z</time>
      </trkpt>
      <trkpt lat="47.448801" lon="8.017178">
        <ele>559.670976</ele>
        <time>2021-11-20T17:33:57.086Z</time>
      </trkpt>
      <trkpt lat="47.448431" lon="8.017568">
        <ele>562.875408</ele>
        <time>2021-11-20T17:34:16.145Z</time>
      </trkpt>
      <trkpt lat="47.448305" lon="8.017672">
        <ele>563.893063</ele>
        <time>2021-11-20T17:34:23.643Z</time>
      </trkpt>
      <trkpt lat="47.448218" lon="8.017755">
        <ele>564.623230</ele>
        <time>2021-11-20T17:34:27.380Z</time>
      </trkpt>
      <trkpt lat="47.448127" lon="8.017842">
        <ele>565.387445</ele>
        <time>2021-11-20T17:34:32.049Z</time>
      </trkpt>
      <trkpt lat="47.447917" lon="8.018256">
        <ele>567.855614</ele>
        <time>2021-11-20T17:34:47.037Z</time>
      </trkpt>
      <trkpt lat="47.447791" lon="8.018721">
        <ele>570.244714</ele>
        <time>2021-11-20T17:35:02.130Z</time>
      </trkpt>
      <trkpt lat="47.447593" lon="8.019200">
        <ele>572.886938</ele>
        <time>2021-11-20T17:35:17.647Z</time>
      </trkpt>
      <trkpt lat="47.447512" lon="8.019351">
        <ele>573.772510</ele>
        <time>2021-11-20T17:35:24.530Z</time>
      </trkpt>
      <trkpt lat="47.447432" lon="8.019478">
        <ele>574.569975</ele>
        <time>2021-11-20T17:35:28.461Z</time>
      </trkpt>
      <trkpt lat="47.446940" lon="8.020031">
        <ele>578.768840</ele>
        <time>2021-11-20T17:35:54.187Z</time>
      </trkpt>
      <trkpt lat="47.446778" lon="8.020358">
        <ele>580.631363</ele>
        <time>2021-11-20T17:36:05.161Z</time>
      </trkpt>
      <trkpt lat="47.446723" lon="8.020643">
        <ele>581.993158</ele>
        <time>2021-11-20T17:36:13.674Z</time>
      </trkpt>
      <trkpt lat="47.446606" lon="8.022220">
        <ele>588.877332</ele>
        <time>2021-11-20T17:36:59.714Z</time>
      </trkpt>
      <trkpt lat="47.446477" lon="8.022664">
        <ele>590.921350</ele>
        <time>2021-11-20T17:37:13.657Z</time>
      </trkpt>
      <trkpt lat="47.446349" lon="8.022919">
        <ele>592.264600</ele>
        <time>2021-11-20T17:37:22.480Z</time>
      </trkpt>
      <trkpt lat="47.446154" lon="8.023202">
        <ele>593.973526</ele>
        <time>2021-11-20T17:37:33.021Z</time>
      </trkpt>
      <trkpt lat="47.445885" lon="8.023440">
        <ele>595.684633</ele>
        <time>2021-11-20T17:37:43.960Z</time>
      </trkpt>
      <trkpt lat="47.445182" lon="8.023668">
        <ele>597.957675</ele>
        <time>2021-11-20T17:38:04.415Z</time>
      </trkpt>
      <trkpt lat="47.445020" lon="8.023772">
        <ele>598.515456</ele>
        <time>2021-11-20T17:38:08.583Z</time>
      </trkpt>
      <trkpt lat="47.444482" lon="8.024455">
        <ele>600.754950</ele>
        <time>2021-11-20T17:38:25.069Z</time>
      </trkpt>
      <trkpt lat="47.444181" lon="8.025029">
        <ele>603.071202</ele>
        <time>2021-11-20T17:38:37.867Z</time>
      </trkpt>
      <trkpt lat="47.444086" lon="8.025459">
        <ele>604.655497</ele>
        <time>2021-11-20T17:38:46.738Z</time>
      </trkpt>
      <trkpt lat="47.444094" lon="8.025849">
        <ele>606.022012</ele>
        <time>2021-11-20T17:38:55.164Z</time>
      </trkpt>
      <trkpt lat="47.444190" lon="8.026300">
        <ele>607.677924</ele>
        <time>2021-11-20T17:39:06.428Z</time>
      </trkpt>
      <trkpt lat="47.444535" lon="8.027371">
        <ele>612.860659</ele>
        <time>2021-11-20T17:39:45.893Z</time>
      </trkpt>
      <trkpt lat="47.444596" lon="8.027836">
        <ele>615.731151</ele>
        <time>2021-11-20T17:40:00.276Z</time>
      </trkpt>
      <trkpt lat="47.444512" lon="8.028362">
        <ele>619.006451</ele>
        <time>2021-11-20T17:40:19.194Z</time>
      </trkpt>
      <trkpt lat="47.444390" lon="8.028577">
        <ele>620.707255</ele>
        <time>2021-11-20T17:40:26.108Z</time>
      </trkpt>
      <trkpt lat="47.444252" lon="8.028702">
        <ele>622.157414</ele>
        <time>2021-11-20T17:40:37.541Z</time>
      </trkpt>
      <trkpt lat="47.444200" lon="8.028735">
        <ele>622.664474</ele>
        <time>2021-11-20T17:40:43.563Z</time>
      </trkpt>
      <trkpt lat="47.444130" lon="8.028762">
        <ele>623.312713</ele>
        <time>2021-11-20T17:40:46.628Z</time>
      </trkpt>
      <trkpt lat="47.444103" lon="8.028769">
        <ele>623.558343</ele>
        <time>2021-11-20T17:40:47.801Z</time>
      </trkpt>
      <trkpt lat="47.444082" lon="8.028771">
        <ele>623.746907</ele>
        <time>2021-11-20T17:40:47.985Z</time>
      </trkpt>
      <trkpt lat="47.443829" lon="8.028756">
        <ele>626.015785</ele>
        <time>2021-11-20T17:41:08.894Z</time>
      </trkpt>
      <trkpt lat="47.443354" lon="8.028536">
        <ele>630.275760</ele>
        <time>2021-11-20T17:41:30.113Z</time>
      </trkpt>
      <trkpt lat="47.442237" lon="8.027604">
        <ele>641.183454</ele>
        <time>2021-11-20T17:42:34.265Z</time>
      </trkpt>
      <trkpt lat="47.441755" lon="8.027353">
        <ele>644.412391</ele>
        <time>2021-11-20T17:42:55.127Z</time>
      </trkpt>
      <trkpt lat="47.441109" lon="8.027297">
        <ele>648.250121</ele>
        <time>2021-11-20T17:43:20.606Z</time>
      </trkpt>
      <trkpt lat="47.440647" lon="8.027439">
        <ele>651.048624</ele>
        <time>2021-11-20T17:43:36.819Z</time>
      </trkpt>
      <trkpt lat="47.440263" lon="8.027666">
        <ele>653.348177</ele>
        <time>2021-11-20T17:43:50.608Z</time>
      </trkpt>
      <trkpt lat="47.439363" lon="8.028350">
        <ele>658.426928</ele>
        <time>2021-11-20T17:44:24.843Z</time>
      </trkpt>
      <trkpt lat="47.439279" lon="8.028420">
        <ele>658.910863</ele>
        <time>2021-11-20T17:44:28.485Z</time>
      </trkpt>
      <trkpt lat="47.438761" lon="8.028824">
        <ele>661.872627</ele>
        <time>2021-11-20T17:44:49.397Z</time>
      </trkpt>
      <trkpt lat="47.437975" lon="8.029310">
        <ele>666.451124</ele>
        <time>2021-11-20T17:45:22.346Z</time>
      </trkpt>
      <trkpt lat="47.436857" lon="8.029750">
        <ele>670.866257</ele>
        <time>2021-11-20T17:46:04.243Z</time>
      </trkpt>
      <trkpt lat="47.436763" lon="8.029782">
        <ele>670.749064</ele>
        <time>2021-11-20T17:46:07.583Z</time>
      </trkpt>
      <trkpt lat="47.436700" lon="8.029803">
        <ele>670.670601</ele>
        <time>2021-11-20T17:46:10.095Z</time>
      </trkpt>
      <trkpt lat="47.436042" lon="8.030035">
        <ele>669.848747</ele>
        <time>2021-11-20T17:46:20.401Z</time>
      </trkpt>
      <trkpt lat="47.435896" lon="8.030060">
        <ele>669.670179</ele>
        <time>2021-11-20T17:46:23.981Z</time>
      </trkpt>
      <trkpt lat="47.435481" lon="8.030087">
        <ele>669.165489</ele>
        <time>2021-11-20T17:46:27.759Z</time>
      </trkpt>
      <trkpt lat="47.435436" lon="8.030087">
        <ele>669.110816</ele>
        <time>2021-11-20T17:46:28.133Z</time>
      </trkpt>
      <trkpt lat="47.434990" lon="8.030088">
        <ele>664.192395</ele>
        <time>2021-11-20T17:46:32.019Z</time>
      </trkpt>
      <trkpt lat="47.434275" lon="8.030088">
        <ele>654.768163</ele>
        <time>2021-11-20T17:46:38.011Z</time>
      </trkpt>
      <trkpt lat="47.434167" lon="8.030147">
        <ele>653.250557</ele>
        <time>2021-11-20T17:46:38.968Z</time>
      </trkpt>
      <trkpt lat="47.434108" lon="8.030185">
        <ele>652.402294</ele>
        <time>2021-11-20T17:46:39.496Z</time>
      </trkpt>
      <trkpt lat="47.433829" lon="8.030548">
        <ele>647.503478</ele>
        <time>2021-11-20T17:46:42.560Z</time>
      </trkpt>
      <trkpt lat="47.433660" lon="8.031143">
        <ele>641.459435</ele>
        <time>2021-11-20T17:46:46.216Z</time>
      </trkpt>
      <trkpt lat="47.433547" lon="8.032532">
        <ele>627.967460</ele>
        <time>2021-11-20T17:46:54.039Z</time>
      </trkpt>
      <trkpt lat="47.433630" lon="8.033110">
        <ele>622.269039</ele>
        <time>2021-11-20T17:46:57.437Z</time>
      </trkpt>
      <trkpt lat="47.433692" lon="8.033363">
        <ele>619.673945</ele>
        <time>2021-11-20T17:46:59.003Z</time>
      </trkpt>
      <trkpt lat="47.433704" lon="8.033446">
        <ele>619.065304</ele>
        <time>2021-11-20T17:46:59.469Z</time>
      </trkpt>
      <trkpt lat="47.433695" lon="8.033652">
        <ele>617.591961</ele>
        <time>2021-11-20T17:47:00.687Z</time>
      </trkpt>
      <trkpt lat="47.433621" lon="8.033768">
        <ele>616.453941</ele>
        <time>2021-11-20T17:47:01.615Z</time>
      </trkpt>
      <trkpt lat="47.433485" lon="8.033776">
        <ele>615.017843</ele>
        <time>2021-11-20T17:47:02.751Z</time>
      </trkpt>
      <trkpt lat="47.433381" lon="8.033653">
        <ele>613.612564</ele>
        <time>2021-11-20T17:47:03.916Z</time>
      </trkpt>
      <trkpt lat="47.432764" lon="8.031627">
        <ele>597.407930</ele>
        <time>2021-11-20T17:47:16.864Z</time>
      </trkpt>
      <trkpt lat="47.432675" lon="8.031189">
        <ele>593.757860</ele>
        <time>2021-11-20T17:47:19.508Z</time>
      </trkpt>
      <trkpt lat="47.432631" lon="8.030656">
        <ele>589.472318</ele>
        <time>2021-11-20T17:47:22.585Z</time>
      </trkpt>
      <trkpt lat="47.432542" lon="8.030469">
        <ele>587.647443</ele>
        <time>2021-11-20T17:47:23.904Z</time>
      </trkpt>
      <trkpt lat="47.432467" lon="8.030406">
        <ele>586.629672</ele>
        <time>2021-11-20T17:47:24.644Z</time>
      </trkpt>
      <trkpt lat="47.432409" lon="8.030404">
        <ele>585.945170</ele>
        <time>2021-11-20T17:47:25.118Z</time>
      </trkpt>
      <trkpt lat="47.432234" lon="8.030524">
        <ele>583.669106</ele>
        <time>2021-11-20T17:47:26.746Z</time>
      </trkpt>
      <trkpt lat="47.432157" lon="8.030749">
        <ele>581.656595</ele>
        <time>2021-11-20T17:47:28.178Z</time>
      </trkpt>
      <trkpt lat="47.432133" lon="8.030906">
        <ele>580.371937</ele>
        <time>2021-11-20T17:47:29.084Z</time>
      </trkpt>
      <trkpt lat="47.432025" lon="8.031663">
        <ele>573.012485</ele>
        <time>2021-11-20T17:47:33.479Z</time>
      </trkpt>
      <trkpt lat="47.431924" lon="8.032307">
        <ele>566.549288</ele>
        <time>2021-11-20T17:47:37.186Z</time>
      </trkpt>
      <trkpt lat="47.431773" lon="8.032676">
        <ele>562.332947</ele>
        <time>2021-11-20T17:47:39.610Z</time>
      </trkpt>
      <trkpt lat="47.430470" lon="8.034052">
        <ele>540.417739</ele>
        <time>2021-11-20T17:47:52.937Z</time>
      </trkpt>
      <trkpt lat="47.430169" lon="8.034362">
        <ele>535.571830</ele>
        <time>2021-11-20T17:47:56.068Z</time>
      </trkpt>
      <trkpt lat="47.430089" lon="8.034453">
        <ele>534.238412</ele>
        <time>2021-11-20T17:47:56.924Z</time>
      </trkpt>
      <trkpt lat="47.429784" lon="8.034795">
        <ele>529.524053</ele>
        <time>2021-11-20T17:48:00.218Z</time>
      </trkpt>
      <trkpt lat="47.429735" lon="8.034851">
        <ele>529.236768</ele>
        <time>2021-11-20T17:48:07.069Z</time>
      </trkpt>
      <trkpt lat="47.429183" lon="8.035457">
        <ele>526.047512</ele>
        <time>2021-11-20T17:48:12.952Z</time>
      </trkpt>
      <trkpt lat="47.429108" lon="8.035534">
        <ele>525.623960</ele>
        <time>2021-11-20T17:48:17.353Z</time>
      </trkpt>
      <trkpt lat="47.428937" lon="8.035687">
        <ele>524.696818</ele>
        <time>2021-11-20T17:48:19.001Z</time>
      </trkpt>
      <trkpt lat="47.428589" lon="8.035948">
        <ele>522.886784</ele>
        <time>2021-11-20T17:48:30.475Z</time>
      </trkpt>
      <trkpt lat="47.428425" lon="8.036042">
        <ele>522.070908</ele>
        <time>2021-11-20T17:48:42.402Z</time>
      </trkpt>
      <trkpt lat="47.428173" lon="8.036125">
        <ele>521.014181</ele>
        <time>2021-11-20T17:48:45.003Z</time>
      </trkpt>
      <trkpt lat="47.428073" lon="8.036147">
        <ele>520.679097</ele>
        <time>2021-11-20T17:48:45.991Z</time>
      </trkpt>
      <trkpt lat="47.427488" lon="8.036131">
        <ele>518.739878</ele>
        <time>2021-11-20T17:48:52.133Z</time>
      </trkpt>
      <trkpt lat="47.427288" lon="8.036127">
        <ele>518.076950</ele>
        <time>2021-11-20T17:48:53.991Z</time>
      </trkpt>
      <trkpt lat="47.426959" lon="8.036087">
        <ele>516.982851</ele>
        <time>2021-11-20T17:48:57.195Z</time>
      </trkpt>
      <trkpt lat="47.426739" lon="8.036025">
        <ele>516.240563</ele>
        <time>2021-11-20T17:48:59.464Z</time>
      </trkpt>
      <trkpt lat="47.426081" lon="8.035824">
        <ele>511.389230</ele>
        <time>2021-11-20T17:49:05.668Z</time>
      </trkpt>
      <trkpt lat="47.426010" lon="8.035820">
        <ele>510.709664</ele>
        <time>2021-11-20T17:49:06.265Z</time>
      </trkpt>
      <trkpt lat="47.425906" lon="8.035815">
        <ele>509.714440</ele>
        <time>2021-11-20T17:49:07.212Z</time>
      </trkpt>
      <trkpt lat="47.425277" lon="8.035886">
        <ele>503.680912</ele>
        <time>2021-11-20T17:49:12.610Z</time>
      </trkpt>
      <trkpt lat="47.425112" lon="8.035869">
        <ele>502.098955</ele>
        <time>2021-11-20T17:49:14.048Z</time>
      </trkpt>
      <trkpt lat="47.425031" lon="8.035847">
        <ele>501.311268</ele>
        <time>2021-11-20T17:49:14.759Z</time>
      </trkpt>
      <trkpt lat="47.424864" lon="8.035811">
        <ele>499.697114</ele>
        <time>2021-11-20T17:49:16.180Z</time>
      </trkpt>
      <trkpt lat="47.424719" lon="8.035799">
        <ele>498.308103</ele>
        <time>2021-11-20T17:49:17.425Z</time>
      </trkpt>
      <trkpt lat="47.424613" lon="8.035824">
        <ele>496.970673</ele>
        <time>2021-11-20T17:49:18.315Z</time>
      </trkpt>
      <trkpt lat="47.424388" lon="8.035926">
        <ele>493.960141</ele>
        <time>2021-11-20T17:49:20.268Z</time>
      </trkpt>
      <trkpt lat="47.424082" lon="8.036169">
        <ele>489.516602</ele>
        <time>2021-11-20T17:49:23.175Z</time>
      </trkpt>
      <trkpt lat="47.423560" lon="8.036763">
        <ele>481.089469</ele>
        <time>2021-11-20T17:49:28.718Z</time>
      </trkpt>
      <trkpt lat="47.423448" lon="8.036933">
        <ele>479.035845</ele>
        <time>2021-11-20T17:49:30.068Z</time>
      </trkpt>
      <trkpt lat="47.423244" lon="8.037267">
        <ele>475.149641</ele>
        <time>2021-11-20T17:49:32.647Z</time>
      </trkpt>
      <trkpt lat="47.422905" lon="8.037963">
        <ele>468.874862</ele>
        <time>2021-11-20T17:49:37.553Z</time>
      </trkpt>
      <trkpt lat="47.422868" lon="8.038042">
        <ele>468.171858</ele>
        <time>2021-11-20T17:49:38.115Z</time>
      </trkpt>
      <trkpt lat="47.422730" lon="8.038382">
        <ele>465.270853</ele>
        <time>2021-11-20T17:49:40.366Z</time>
      </trkpt>
      <trkpt lat="47.422474" lon="8.038973">
        <ele>460.136334</ele>
        <time>2021-11-20T17:49:44.420Z</time>
      </trkpt>
      <trkpt lat="47.422435" lon="8.039041">
        <ele>459.484085</ele>
        <time>2021-11-20T17:49:44.928Z</time>
      </trkpt>
      <trkpt lat="47.422173" lon="8.039494">
        <ele>455.291071</ele>
        <time>2021-11-20T17:49:48.527Z</time>
      </trkpt>
      <trkpt lat="47.422065" lon="8.039680">
        <ele>453.982513</ele>
        <time>2021-11-20T17:49:49.976Z</time>
      </trkpt>
      <trkpt lat="47.421926" lon="8.039862">
        <ele>452.517206</ele>
        <time>2021-11-20T17:49:51.657Z</time>
      </trkpt>
      <trkpt lat="47.421857" lon="8.039952">
        <ele>451.791044</ele>
        <time>2021-11-20T17:49:52.468Z</time>
      </trkpt>
      <trkpt lat="47.421614" lon="8.040268">
        <ele>449.237064</ele>
        <time>2021-11-20T17:49:55.332Z</time>
      </trkpt>
      <trkpt lat="47.421515" lon="8.040542">
        <ele>447.578703</ele>
        <time>2021-11-20T17:49:57.176Z</time>
      </trkpt>
      <trkpt lat="47.421369" lon="8.040943">
        <ele>445.147530</ele>
        <time>2021-11-20T17:49:59.868Z</time>
      </trkpt>
      <trkpt lat="47.421212" lon="8.041305">
        <ele>442.851889</ele>
        <time>2021-11-20T17:50:02.496Z</time>
      </trkpt>
      <trkpt lat="47.421194" lon="8.041345">
        <ele>442.595414</ele>
        <time>2021-11-20T17:50:02.764Z</time>
      </trkpt>
      <trkpt lat="47.421132" lon="8.041487">
        <ele>441.693143</ele>
        <time>2021-11-20T17:50:03.837Z</time>
      </trkpt>
      <trkpt lat="47.420713" lon="8.042016">
        <ele>438.384831</ele>
        <time>2021-11-20T17:50:08.816Z</time>
      </trkpt>
      <trkpt lat="47.420686" lon="8.042054">
        <ele>438.163385</ele>
        <time>2021-11-20T17:50:09.126Z</time>
      </trkpt>
      <trkpt lat="47.420610" lon="8.042144">
        <ele>437.584957</ele>
        <time>2021-11-20T17:50:09.985Z</time>
      </trkpt>
      <trkpt lat="47.420398" lon="8.042394">
        <ele>435.974085</ele>
        <time>2021-11-20T17:50:12.512Z</time>
      </trkpt>
      <trkpt lat="47.420118" lon="8.042829">
        <ele>433.561240</ele>
        <time>2021-11-20T17:50:16.278Z</time>
      </trkpt>
      <trkpt lat="47.420109" lon="8.042846">
        <ele>433.474494</ele>
        <time>2021-11-20T17:50:16.410Z</time>
      </trkpt>
      <trkpt lat="47.419963" lon="8.043060">
        <ele>432.253180</ele>
        <time>2021-11-20T17:50:18.585Z</time>
      </trkpt>
      <trkpt lat="47.419839" lon="8.043244">
        <ele>431.209522</ele>
        <time>2021-11-20T17:50:20.161Z</time>
      </trkpt>
      <trkpt lat="47.419549" lon="8.043696">
        <ele>429.536873</ele>
        <time>2021-11-20T17:50:24.185Z</time>
      </trkpt>
      <trkpt lat="47.419418" lon="8.043891">
        <ele>428.856981</ele>
        <time>2021-11-20T17:50:26.054Z</time>
      </trkpt>
      <trkpt lat="47.419290" lon="8.044087">
        <ele>428.182994</ele>
        <time>2021-11-20T17:50:27.788Z</time>
      </trkpt>
      <trkpt lat="47.419003" lon="8.044708">
        <ele>426.322278</ele>
        <time>2021-11-20T17:50:32.990Z</time>
      </trkpt>
      <trkpt lat="47.418931" lon="8.044951">
        <ele>425.665914</ele>
        <time>2021-11-20T17:50:34.683Z</time>
      </trkpt>
      <trkpt lat="47.418751" lon="8.045723">
        <ele>423.683131</ele>
        <time>2021-11-20T17:50:40.763Z</time>
      </trkpt>
      <trkpt lat="47.418700" lon="8.045929">
        <ele>423.172013</ele>
        <time>2021-11-20T17:50:42.262Z</time>
      </trkpt>
      <trkpt lat="47.418443" lon="8.046572">
        <ele>421.431899</ele>
        <time>2021-11-20T17:50:47.449Z</time>
      </trkpt>
      <trkpt lat="47.418416" lon="8.046623">
        <ele>421.281012</ele>
        <time>2021-11-20T17:50:47.873Z</time>
      </trkpt>
      <trkpt lat="47.418380" lon="8.046691">
        <ele>421.079830</ele>
        <time>2021-11-20T17:50:48.452Z</time>
      </trkpt>
      <trkpt lat="47.418150" lon="8.046912">
        <ele>420.135110</ele>
        <time>2021-11-20T17:50:51.057Z</time>
      </trkpt>
      <trkpt lat="47.418081" lon="8.046958">
        <ele>419.874442</ele>
        <time>2021-11-20T17:50:51.762Z</time>
      </trkpt>
      <trkpt lat="47.417974" lon="8.047018">
        <ele>419.480342</ele>
        <time>2021-11-20T17:50:52.920Z</time>
      </trkpt>
      <trkpt lat="47.417855" lon="8.047064">
        <ele>419.056764</ele>
        <time>2021-11-20T17:50:54.078Z</time>
      </trkpt>
      <trkpt lat="47.417795" lon="8.047088">
        <ele>418.842711</ele>
        <time>2021-11-20T17:50:54.655Z</time>
      </trkpt>
      <trkpt lat="47.417655" lon="8.047116">
        <ele>418.356208</ele>
        <time>2021-11-20T17:50:56.404Z</time>
      </trkpt>
      <trkpt lat="47.417615" lon="8.047155">
        <ele>418.191187</ele>
        <time>2021-11-20T17:50:56.948Z</time>
      </trkpt>
      <trkpt lat="47.417590" lon="8.047205">
        <ele>418.050972</ele>
        <time>2021-11-20T17:50:57.337Z</time>
      </trkpt>
      <trkpt lat="47.417451" lon="8.047152">
        <ele>417.602460</ele>
        <time>2021-11-20T17:50:58.673Z</time>
      </trkpt>
      <trkpt lat="47.417333" lon="8.047125">
        <ele>417.229389</ele>
        <time>2021-11-20T17:51:00.258Z</time>
      </trkpt>
      <trkpt lat="47.417145" lon="8.047144">
        <ele>416.640632</ele>
        <time>2021-11-20T17:51:02.077Z</time>
      </trkpt>
      <trkpt lat="47.417130" lon="8.047145">
        <ele>416.593718</ele>
        <time>2021-11-20T17:51:02.214Z</time>
      </trkpt>
      <trkpt lat="47.417058" lon="8.047168">
        <ele>416.363567</ele>
        <time>2021-11-20T17:51:02.918Z</time>
      </trkpt>
      <trkpt lat="47.417004" lon="8.047190">
        <ele>416.188556</ele>
        <time>2021-11-20T17:51:03.695Z</time>
      </trkpt>
      <trkpt lat="47.416861" lon="8.047252">
        <ele>415.722938</ele>
        <time>2021-11-20T17:51:05.192Z</time>
      </trkpt>
      <trkpt lat="47.416680" lon="8.047368">
        <ele>415.106536</ele>
        <time>2021-11-20T17:51:07.116Z</time>
      </trkpt>
      <trkpt lat="47.416606" lon="8.047423">
        <ele>414.847738</ele>
        <time>2021-11-20T17:51:08.312Z</time>
      </trkpt>
      <trkpt lat="47.416439" lon="8.047556">
        <ele>414.255023</ele>
        <time>2021-11-20T17:51:10.069Z</time>
      </trkpt>
      <trkpt lat="47.416294" lon="8.047671">
        <ele>413.740869</ele>
        <time>2021-11-20T17:51:12.431Z</time>
      </trkpt>
      <trkpt lat="47.416172" lon="8.047770">
        <ele>413.306010</ele>
        <time>2021-11-20T17:51:13.740Z</time>
      </trkpt>
      <trkpt lat="47.416092" lon="8.047830">
        <ele>413.025712</ele>
        <time>2021-11-20T17:51:14.670Z</time>
      </trkpt>
      <trkpt lat="47.415894" lon="8.047980">
        <ele>412.390309</ele>
        <time>2021-11-20T17:51:17.236Z</time>
      </trkpt>
      <trkpt lat="47.415806" lon="8.048043">
        <ele>412.209651</ele>
        <time>2021-11-20T17:51:18.185Z</time>
      </trkpt>
      <trkpt lat="47.415651" lon="8.048153">
        <ele>411.891970</ele>
        <time>2021-11-20T17:51:20.986Z</time>
      </trkpt>
      <trkpt lat="47.415485" lon="8.048228">
        <ele>411.571261</ele>
        <time>2021-11-20T17:51:22.662Z</time>
      </trkpt>
      <trkpt lat="47.415342" lon="8.048265">
        <ele>411.303041</ele>
        <time>2021-11-20T17:51:25.059Z</time>
      </trkpt>
      <trkpt lat="47.415207" lon="8.048280">
        <ele>411.052916</ele>
        <time>2021-11-20T17:51:26.528Z</time>
      </trkpt>
      <trkpt lat="47.415204" lon="8.048501">
        <ele>410.776564</ele>
        <time>2021-11-20T17:51:29.125Z</time>
      </trkpt>
      <trkpt lat="47.415173" lon="8.048677">
        <ele>410.549195</ele>
        <time>2021-11-20T17:51:32.214Z</time>
      </trkpt>
      <trkpt lat="47.415066" lon="8.048847">
        <ele>410.258933</ele>
        <time>2021-11-20T17:51:34.479Z</time>
      </trkpt>
      <trkpt lat="47.415034" lon="8.049054">
        <ele>409.993471</ele>
        <time>2021-11-20T17:51:36.922Z</time>
      </trkpt>
      <trkpt lat="47.415024" lon="8.049102">
        <ele>409.930681</ele>
        <time>2021-11-20T17:51:37.578Z</time>
      </trkpt>
      <trkpt lat="47.414997" lon="8.049151">
        <ele>409.851680</ele>
        <time>2021-11-20T17:51:38.181Z</time>
      </trkpt>
      <trkpt lat="47.414894" lon="8.049271">
        <ele>409.609354</ele>
        <time>2021-11-20T17:51:40.111Z</time>
      </trkpt>
      <trkpt lat="47.414872" lon="8.049314">
        <ele>409.541959</ele>
        <time>2021-11-20T17:51:40.754Z</time>
      </trkpt>
      <trkpt lat="47.414853" lon="8.049350">
        <ele>409.484880</ele>
        <time>2021-11-20T17:51:41.336Z</time>
      </trkpt>
      <trkpt lat="47.414829" lon="8.049416">
        <ele>409.391206</ele>
        <time>2021-11-20T17:51:42.229Z</time>
      </trkpt>
      <trkpt lat="47.414820" lon="8.049459">
        <ele>409.334934</ele>
        <time>2021-11-20T17:51:42.704Z</time>
      </trkpt>
      <trkpt lat="47.414800" lon="8.049553">
        <ele>409.211741</ele>
        <time>2021-11-20T17:51:43.667Z</time>
      </trkpt>
      <trkpt lat="47.414635" lon="8.049963">
        <ele>408.322576</ele>
        <time>2021-11-20T17:51:48.835Z</time>
      </trkpt>
      <trkpt lat="47.414579" lon="8.050081">
        <ele>408.044390</ele>
        <time>2021-11-20T17:51:50.222Z</time>
      </trkpt>
      <trkpt lat="47.414537" lon="8.050163">
        <ele>407.845891</ele>
        <time>2021-11-20T17:51:51.243Z</time>
      </trkpt>
      <trkpt lat="47.414116" lon="8.051267">
        <ele>405.399932</ele>
        <time>2021-11-20T17:52:04.236Z</time>
      </trkpt>
      <trkpt lat="47.414026" lon="8.051355">
        <ele>405.092116</ele>
        <time>2021-11-20T17:52:05.671Z</time>
      </trkpt>
      <trkpt lat="47.414168" lon="8.051800">
        <ele>404.142484</ele>
        <time>2021-11-20T17:52:10.441Z</time>
      </trkpt>
      <trkpt lat="47.413974" lon="8.051951">
        <ele>403.517359</ele>
        <time>2021-11-20T17:52:13.531Z</time>
      </trkpt>
      <trkpt lat="47.413758" lon="8.052151">
        <ele>402.790724</ele>
        <time>2021-11-20T17:52:17.233Z</time>
      </trkpt>
      <trkpt lat="47.413635" lon="8.052265">
        <ele>402.376831</ele>
        <time>2021-11-20T17:52:19.364Z</time>
      </trkpt>
      <trkpt lat="47.413317" lon="8.052581">
        <ele>401.284414</ele>
        <time>2021-11-20T17:52:24.938Z</time>
      </trkpt>
      <trkpt lat="47.413186" lon="8.052656">
        <ele>400.883926</ele>
        <time>2021-11-20T17:52:26.892Z</time>
      </trkpt>
      <trkpt lat="47.413162" lon="8.052742">
        <ele>400.704471</ele>
        <time>2021-11-20T17:52:27.870Z</time>
      </trkpt>
      <trkpt lat="47.413178" lon="8.053085">
        <ele>400.041225</ele>
        <time>2021-11-20T17:52:31.365Z</time>
      </trkpt>
      <trkpt lat="47.413169" lon="8.053324">
        <ele>399.579461</ele>
        <time>2021-11-20T17:52:33.849Z</time>
      </trkpt>
      <trkpt lat="47.413166" lon="8.053493">
        <ele>399.253333</ele>
        <time>2021-11-20T17:52:35.675Z</time>
      </trkpt>
      <trkpt lat="47.413154" lon="8.053586">
        <ele>399.070696</ele>
        <time>2021-11-20T17:52:36.708Z</time>
      </trkpt>
      <trkpt lat="47.413124" lon="8.053817">
        <ele>398.921754</ele>
        <time>2021-11-20T17:52:39.305Z</time>
      </trkpt>
      <trkpt lat="47.413095" lon="8.053912">
        <ele>398.940333</ele>
        <time>2021-11-20T17:52:40.428Z</time>
      </trkpt>
      <trkpt lat="47.413141" lon="8.054110">
        <ele>398.977651</ele>
        <time>2021-11-20T17:52:42.900Z</time>
      </trkpt>
      <trkpt lat="47.413108" lon="8.054809">
        <ele>399.102561</ele>
        <time>2021-11-20T17:52:51.773Z</time>
      </trkpt>
      <trkpt lat="47.413090" lon="8.055181">
        <ele>399.169044</ele>
        <time>2021-11-20T17:52:57.474Z</time>
      </trkpt>
      <trkpt lat="47.413029" lon="8.055478">
        <ele>399.224373</ele>
        <time>2021-11-20T17:53:02.265Z</time>
      </trkpt>
      <trkpt lat="47.412936" lon="8.055688">
        <ele>399.269113</ele>
        <time>2021-11-20T17:53:06.602Z</time>
      </trkpt>
      <trkpt lat="47.412413" lon="8.056424">
        <ele>399.968573</ele>
        <time>2021-11-20T17:53:27.083Z</time>
      </trkpt>
      <trkpt lat="47.411818" lon="8.057645">
        <ele>401.761489</ele>
        <time>2021-11-20T17:53:56.273Z</time>
      </trkpt>
      <trkpt lat="47.411629" lon="8.057877">
        <ele>402.194135</ele>
        <time>2021-11-20T17:54:01.847Z</time>
      </trkpt>
      <trkpt lat="47.411545" lon="8.057958">
        <ele>402.370753</ele>
        <time>2021-11-20T17:54:05.274Z</time>
      </trkpt>
      <trkpt lat="47.411396" lon="8.058058">
        <ele>402.610574</ele>
        <time>2021-11-20T17:54:08.830Z</time>
      </trkpt>
      <trkpt lat="47.411218" lon="8.058271">
        <ele>402.854076</ele>
        <time>2021-11-20T17:54:14.900Z</time>
      </trkpt>
      <trkpt lat="47.410857" lon="8.058864">
        <ele>403.427931</ele>
        <time>2021-11-20T17:54:27.003Z</time>
      </trkpt>
      <trkpt lat="47.410821" lon="8.058941">
        <ele>403.495264</ele>
        <time>2021-11-20T17:54:28.379Z</time>
      </trkpt>
      <trkpt lat="47.410821" lon="8.058941">
        <ele>403.495264</ele>
        <time>2021-11-20T17:54:28.384Z</time>
      </trkpt>
      <trkpt lat="47.410779" lon="8.059157">
        <ele>403.656953</ele>
        <time>2021-11-20T17:54:32.545Z</time>
      </trkpt>
      <trkpt lat="47.410783" lon="8.060536">
        <ele>404.058864</ele>
        <time>2021-11-20T17:54:57.287Z</time>
      </trkpt>
      <trkpt lat="47.410789" lon="8.060894">
        <ele>403.556141</ele>
        <time>2021-11-20T17:55:01.841Z</time>
      </trkpt>
      <trkpt lat="47.410815" lon="8.061194">
        <ele>403.131554</ele>
        <time>2021-11-20T17:55:05.503Z</time>
      </trkpt>
      <trkpt lat="47.410851" lon="8.061363">
        <ele>402.882832</ele>
        <time>2021-11-20T17:55:07.330Z</time>
      </trkpt>
      <trkpt lat="47.410881" lon="8.061443">
        <ele>402.754436</ele>
        <time>2021-11-20T17:55:08.251Z</time>
      </trkpt>
      <trkpt lat="47.411023" lon="8.061464">
        <ele>402.458400</ele>
        <time>2021-11-20T17:55:10.997Z</time>
      </trkpt>
      <trkpt lat="47.411152" lon="8.061490">
        <ele>402.188324</ele>
        <time>2021-11-20T17:55:12.897Z</time>
      </trkpt>
      <trkpt lat="47.411217" lon="8.061524">
        <ele>402.045290</ele>
        <time>2021-11-20T17:55:13.990Z</time>
      </trkpt>
      <trkpt lat="47.411292" lon="8.061644">
        <ele>401.815980</ele>
        <time>2021-11-20T17:55:15.649Z</time>
      </trkpt>
      <trkpt lat="47.411360" lon="8.061902">
        <ele>401.427297</ele>
        <time>2021-11-20T17:55:18.272Z</time>
      </trkpt>
      <trkpt lat="47.411324" lon="8.062373">
        <ele>400.761898</ele>
        <time>2021-11-20T17:55:22.781Z</time>
      </trkpt>
      <trkpt lat="47.411310" lon="8.062557">
        <ele>400.023069</ele>
        <time>2021-11-20T17:55:24.368Z</time>
      </trkpt>
      <trkpt lat="47.411147" lon="8.063820">
        <ele>394.216607</ele>
        <time>2021-11-20T17:55:35.759Z</time>
      </trkpt>
      <trkpt lat="47.411030" lon="8.064234">
        <ele>392.190512</ele>
        <time>2021-11-20T17:55:39.520Z</time>
      </trkpt>
      <trkpt lat="47.411009" lon="8.064289">
        <ele>391.905327</ele>
        <time>2021-11-20T17:55:40.074Z</time>
      </trkpt>
      <trkpt lat="47.411125" lon="8.064353">
        <ele>391.079039</ele>
        <time>2021-11-20T17:55:41.643Z</time>
      </trkpt>
      <trkpt lat="47.411040" lon="8.064796">
        <ele>388.999601</ele>
        <time>2021-11-20T17:55:45.523Z</time>
      </trkpt>
      <trkpt lat="47.411012" lon="8.064966">
        <ele>388.322706</ele>
        <time>2021-11-20T17:55:47.022Z</time>
      </trkpt>
      <trkpt lat="47.410973" lon="8.065575">
        <ele>386.178629</ele>
        <time>2021-11-20T17:55:52.421Z</time>
      </trkpt>
      <trkpt lat="47.411060" lon="8.066219">
        <ele>383.876878</ele>
        <time>2021-11-20T17:55:58.310Z</time>
      </trkpt>
      <trkpt lat="47.411089" lon="8.066312">
        <ele>383.517973</ele>
        <time>2021-11-20T17:55:59.253Z</time>
      </trkpt>
      <trkpt lat="47.411308" lon="8.067009">
        <ele>380.824526</ele>
        <time>2021-11-20T17:56:06.539Z</time>
      </trkpt>
      <trkpt lat="47.411470" lon="8.067506">
        <ele>379.150353</ele>
        <time>2021-11-20T17:56:11.964Z</time>
      </trkpt>
      <trkpt lat="47.411541" lon="8.068096">
        <ele>378.120975</ele>
        <time>2021-11-20T17:56:17.914Z</time>
      </trkpt>
      <trkpt lat="47.411697" lon="8.068608">
        <ele>377.156452</ele>
        <time>2021-11-20T17:56:23.541Z</time>
      </trkpt>
      <trkpt lat="47.411805" lon="8.068819">
        <ele>376.702008</ele>
        <time>2021-11-20T17:56:26.217Z</time>
      </trkpt>
      <trkpt lat="47.411858" lon="8.068922">
        <ele>376.479742</ele>
        <time>2021-11-20T17:56:27.651Z</time>
      </trkpt>
      <trkpt lat="47.411904" lon="8.069127">
        <ele>376.108750</ele>
        <time>2021-11-20T17:56:29.979Z</time>
      </trkpt>
      <trkpt lat="47.412048" lon="8.069786">
        <ele>374.919207</ele>
        <time>2021-11-20T17:56:37.425Z</time>
      </trkpt>
      <trkpt lat="47.412200" lon="8.070334">
        <ele>374.504911</ele>
        <time>2021-11-20T17:56:43.874Z</time>
      </trkpt>
      <trkpt lat="47.412249" lon="8.070484">
        <ele>374.403887</ele>
        <time>2021-11-20T17:56:45.887Z</time>
      </trkpt>
      <trkpt lat="47.412278" lon="8.070617">
        <ele>374.319135</ele>
        <time>2021-11-20T17:56:47.486Z</time>
      </trkpt>
      <trkpt lat="47.412297" lon="8.070819">
        <ele>374.195439</ele>
        <time>2021-11-20T17:56:49.706Z</time>
      </trkpt>
      <trkpt lat="47.412312" lon="8.071009">
        <ele>374.079417</ele>
        <time>2021-11-20T17:56:52.108Z</time>
      </trkpt>
      <trkpt lat="47.412325" lon="8.071183">
        <ele>373.973241</ele>
        <time>2021-11-20T17:56:54.322Z</time>
      </trkpt>
      <trkpt lat="47.412370" lon="8.071607">
        <ele>373.712931</ele>
        <time>2021-11-20T17:57:00.030Z</time>
      </trkpt>
      <trkpt lat="47.412455" lon="8.072516">
        <ele>373.206756</ele>
        <time>2021-11-20T17:57:11.659Z</time>
      </trkpt>
      <trkpt lat="47.412501" lon="8.072764">
        <ele>373.170571</ele>
        <time>2021-11-20T17:57:14.904Z</time>
      </trkpt>
      <trkpt lat="47.412735" lon="8.073330">
        <ele>373.077237</ele>
        <time>2021-11-20T17:57:23.110Z</time>
      </trkpt>
      <trkpt lat="47.412805" lon="8.073508">
        <ele>373.048267</ele>
        <time>2021-11-20T17:57:25.962Z</time>
      </trkpt>
      <trkpt lat="47.412891" lon="8.073728">
        <ele>373.012516</ele>
        <time>2021-11-20T17:57:29.062Z</time>
      </trkpt>
      <trkpt lat="47.412971" lon="8.074232">
        <ele>372.939670</ele>
        <time>2021-11-20T17:57:36.045Z</time>
      </trkpt>
      <trkpt lat="47.413172" lon="8.074761">
        <ele>372.854299</ele>
        <time>2021-11-20T17:57:44.704Z</time>
      </trkpt>
      <trkpt lat="47.413293" lon="8.075248">
        <ele>372.961134</ele>
        <time>2021-11-20T17:57:52.031Z</time>
      </trkpt>
      <trkpt lat="47.413408" lon="8.075571">
        <ele>373.048313</ele>
        <time>2021-11-20T17:57:57.298Z</time>
      </trkpt>
      <trkpt lat="47.413620" lon="8.076062">
        <ele>373.187434</ele>
        <time>2021-11-20T17:58:05.371Z</time>
      </trkpt>
      <trkpt lat="47.413817" lon="8.076562">
        <ele>373.325633</ele>
        <time>2021-11-20T17:58:13.784Z</time>
      </trkpt>
      <trkpt lat="47.413986" lon="8.077590">
        <ele>373.763760</ele>
        <time>2021-11-20T17:58:30.218Z</time>
      </trkpt>
      <trkpt lat="47.414002" lon="8.077706">
        <ele>373.846960</ele>
        <time>2021-11-20T17:58:32.661Z</time>
      </trkpt>
      <trkpt lat="47.414002" lon="8.077706">
        <ele>373.846960</ele>
        <time>2021-11-20T17:58:32.962Z</time>
      </trkpt>
      <trkpt lat="47.414002" lon="8.077706">
        <ele>373.846960</ele>
        <time>2021-11-20T17:58:32.992Z</time>
      </trkpt>
      <trkpt lat="47.413930" lon="8.078329">
        <ele>374.291136</ele>
        <time>2021-11-20T17:58:43.030Z</time>
      </trkpt>
      <trkpt lat="47.413885" lon="8.078419">
        <ele>374.369780</ele>
        <time>2021-11-20T17:58:44.635Z</time>
      </trkpt>
      <trkpt lat="47.413852" lon="8.078433">
        <ele>374.405436</ele>
        <time>2021-11-20T17:58:45.117Z</time>
      </trkpt>
      <trkpt lat="47.413861" lon="8.078615">
        <ele>374.533685</ele>
        <time>2021-11-20T17:58:48.864Z</time>
      </trkpt>
      <trkpt lat="47.413677" lon="8.081136">
        <ele>376.828942</ele>
        <time>2021-11-20T17:59:32.408Z</time>
      </trkpt>
      <trkpt lat="47.413656" lon="8.081309">
        <ele>377.018173</ele>
        <time>2021-11-20T17:59:34.721Z</time>
      </trkpt>
      <trkpt lat="47.413627" lon="8.081504">
        <ele>377.233127</ele>
        <time>2021-11-20T17:59:39.507Z</time>
      </trkpt>
      <trkpt lat="47.413599" lon="8.081785">
        <ele>377.538924</ele>
        <time>2021-11-20T17:59:45.661Z</time>
      </trkpt>
      <trkpt lat="47.413596" lon="8.082128">
        <ele>377.908242</ele>
        <time>2021-11-20T17:59:53.405Z</time>
      </trkpt>
      <trkpt lat="47.413609" lon="8.082416">
        <ele>378.216631</ele>
        <time>2021-11-20T17:59:56.883Z</time>
      </trkpt>
      <trkpt lat="47.413638" lon="8.082547">
        <ele>378.310923</ele>
        <time>2021-11-20T17:59:59.102Z</time>
      </trkpt>
      <trkpt lat="47.413640" lon="8.082556">
        <ele>378.317404</ele>
        <time>2021-11-20T17:59:59.801Z</time>
      </trkpt>
      <trkpt lat="47.413794" lon="8.083040">
        <ele>378.683288</ele>
        <time>2021-11-20T18:00:09.084Z</time>
      </trkpt>
      <trkpt lat="47.413791" lon="8.083121">
        <ele>378.738783</ele>
        <time>2021-11-20T18:00:11.789Z</time>
      </trkpt>
      <trkpt lat="47.413790" lon="8.083144">
        <ele>378.754550</ele>
        <time>2021-11-20T18:00:12.347Z</time>
      </trkpt>
      <trkpt lat="47.413781" lon="8.083242">
        <ele>378.822207</ele>
        <time>2021-11-20T18:00:13.536Z</time>
      </trkpt>
      <trkpt lat="47.413767" lon="8.083362">
        <ele>378.905511</ele>
        <time>2021-11-20T18:00:14.724Z</time>
      </trkpt>
      <trkpt lat="47.413721" lon="8.083537">
        <ele>379.033945</ele>
        <time>2021-11-20T18:00:16.407Z</time>
      </trkpt>
      <trkpt lat="47.413670" lon="8.083685">
        <ele>379.147565</ele>
        <time>2021-11-20T18:00:20.664Z</time>
      </trkpt>
      <trkpt lat="47.413607" lon="8.083830">
        <ele>379.265447</ele>
        <time>2021-11-20T18:00:22.038Z</time>
      </trkpt>
      <trkpt lat="47.413511" lon="8.084039">
        <ele>379.438253</ele>
        <time>2021-11-20T18:00:25.072Z</time>
      </trkpt>
      <trkpt lat="47.413294" lon="8.084553">
        <ele>379.852707</ele>
        <time>2021-11-20T18:00:33.797Z</time>
      </trkpt>
      <trkpt lat="47.413177" lon="8.084992">
        <ele>380.361812</ele>
        <time>2021-11-20T18:00:38.225Z</time>
      </trkpt>
      <trkpt lat="47.413137" lon="8.085779">
        <ele>381.597189</ele>
        <time>2021-11-20T18:00:45.731Z</time>
      </trkpt>
      <trkpt lat="47.413145" lon="8.085887">
        <ele>381.767254</ele>
        <time>2021-11-20T18:00:46.518Z</time>
      </trkpt>
      <trkpt lat="47.413173" lon="8.086079">
        <ele>382.074695</ele>
        <time>2021-11-20T18:00:49.331Z</time>
      </trkpt>
      <trkpt lat="47.413215" lon="8.086271">
        <ele>382.390549</ele>
        <time>2021-11-20T18:00:52.217Z</time>
      </trkpt>
      <trkpt lat="47.413391" lon="8.086974">
        <ele>383.563860</ele>
        <time>2021-11-20T18:01:04.520Z</time>
      </trkpt>
      <trkpt lat="47.413429" lon="8.087190">
        <ele>383.913206</ele>
        <time>2021-11-20T18:01:11.101Z</time>
      </trkpt>
      <trkpt lat="47.413532" lon="8.087788">
        <ele>386.912300</ele>
        <time>2021-11-20T18:01:29.380Z</time>
      </trkpt>
      <trkpt lat="47.413531" lon="8.088154">
        <ele>389.178884</ele>
        <time>2021-11-20T18:01:39.812Z</time>
      </trkpt>
      <trkpt lat="47.413528" lon="8.088231">
        <ele>389.656519</ele>
        <time>2021-11-20T18:01:43.854Z</time>
      </trkpt>
      <trkpt lat="47.413517" lon="8.088629">
        <ele>392.123310</ele>
        <time>2021-11-20T18:01:57.423Z</time>
      </trkpt>
      <trkpt lat="47.413542" lon="8.088830">
        <ele>393.388914</ele>
        <time>2021-11-20T18:02:06.969Z</time>
      </trkpt>
      <trkpt lat="47.413624" lon="8.089064">
        <ele>395.020802</ele>
        <time>2021-11-20T18:02:17.020Z</time>
      </trkpt>
      <trkpt lat="47.413688" lon="8.089155">
        <ele>395.833586</ele>
        <time>2021-11-20T18:02:22.231Z</time>
      </trkpt>
      <trkpt lat="47.413707" lon="8.089172">
        <ele>396.036851</ele>
        <time>2021-11-20T18:02:24.411Z</time>
      </trkpt>
      <trkpt lat="47.413753" lon="8.089216">
        <ele>396.538308</ele>
        <time>2021-11-20T18:02:27.968Z</time>
      </trkpt>
      <trkpt lat="47.413895" lon="8.089286">
        <ele>397.908210</ele>
        <time>2021-11-20T18:02:35.308Z</time>
      </trkpt>
      <trkpt lat="47.413981" lon="8.089320">
        <ele>398.722912</ele>
        <time>2021-11-20T18:02:40.032Z</time>
      </trkpt>
      <trkpt lat="47.414016" lon="8.089354">
        <ele>399.106220</ele>
        <time>2021-11-20T18:02:42.555Z</time>
      </trkpt>
      <trkpt lat="47.414086" lon="8.089557">
        <ele>400.517155</ele>
        <time>2021-11-20T18:02:51.986Z</time>
      </trkpt>
      <trkpt lat="47.414152" lon="8.090034">
        <ele>402.959088</ele>
        <time>2021-11-20T18:03:10.295Z</time>
      </trkpt>
      <trkpt lat="47.414185" lon="8.090104">
        <ele>403.382293</ele>
        <time>2021-11-20T18:03:12.979Z</time>
      </trkpt>
      <trkpt lat="47.414223" lon="8.090148">
        <ele>403.736188</ele>
        <time>2021-11-20T18:03:15.094Z</time>
      </trkpt>
      <trkpt lat="47.414263" lon="8.090177">
        <ele>404.062805</ele>
        <time>2021-11-20T18:03:17.315Z</time>
      </trkpt>
      <trkpt lat="47.414311" lon="8.090206">
        <ele>404.442952</ele>
        <time>2021-11-20T18:03:19.659Z</time>
      </trkpt>
      <trkpt lat="47.414455" lon="8.090224">
        <ele>405.502348</ele>
        <time>2021-11-20T18:03:27.815Z</time>
      </trkpt>
      <trkpt lat="47.414478" lon="8.090226">
        <ele>405.671246</ele>
        <time>2021-11-20T18:03:29.365Z</time>
      </trkpt>
      <trkpt lat="47.414549" lon="8.090243">
        <ele>406.198516</ele>
        <time>2021-11-20T18:03:32.273Z</time>
      </trkpt>
      <trkpt lat="47.414616" lon="8.090305">
        <ele>406.778024</ele>
        <time>2021-11-20T18:03:36.260Z</time>
      </trkpt>
      <trkpt lat="47.414644" lon="8.090357">
        <ele>407.107678</ele>
        <time>2021-11-20T18:03:38.170Z</time>
      </trkpt>
      <trkpt lat="47.414620" lon="8.090763">
        <ele>409.129359</ele>
        <time>2021-11-20T18:03:51.040Z</time>
      </trkpt>
      <trkpt lat="47.414618" lon="8.090799">
        <ele>409.308543</ele>
        <time>2021-11-20T18:03:52.090Z</time>
      </trkpt>
      <trkpt lat="47.414614" lon="8.090877">
        <ele>409.696581</ele>
        <time>2021-11-20T18:03:54.380Z</time>
      </trkpt>
      <trkpt lat="47.414713" lon="8.092540">
        <ele>414.959851</ele>
        <time>2021-11-20T18:04:29.431Z</time>
      </trkpt>
      <trkpt lat="47.414903" lon="8.093941">
        <ele>416.881924</ele>
        <time>2021-11-20T18:04:47.541Z</time>
      </trkpt>
      <trkpt lat="47.414916" lon="8.094068">
        <ele>417.054705</ele>
        <time>2021-11-20T18:04:49.679Z</time>
      </trkpt>
      <trkpt lat="47.414968" lon="8.094524">
        <ele>417.395470</ele>
        <time>2021-11-20T18:04:54.765Z</time>
      </trkpt>
      <trkpt lat="47.415215" lon="8.095887">
        <ele>417.273685</ele>
        <time>2021-11-20T18:05:10.162Z</time>
      </trkpt>
      <trkpt lat="47.415283" lon="8.096239">
        <ele>417.242090</ele>
        <time>2021-11-20T18:05:14.331Z</time>
      </trkpt>
      <trkpt lat="47.415297" lon="8.096293">
        <ele>417.237099</ele>
        <time>2021-11-20T18:05:14.797Z</time>
      </trkpt>
      <trkpt lat="47.415477" lon="8.097066">
        <ele>416.697190</ele>
        <time>2021-11-20T18:05:21.483Z</time>
      </trkpt>
      <trkpt lat="47.415504" lon="8.097256">
        <ele>416.203032</ele>
        <time>2021-11-20T18:05:23.055Z</time>
      </trkpt>
      <trkpt lat="47.415531" lon="8.097443">
        <ele>415.716345</ele>
        <time>2021-11-20T18:05:24.424Z</time>
      </trkpt>
      <trkpt lat="47.415537" lon="8.098107">
        <ele>414.026112</ele>
        <time>2021-11-20T18:05:28.851Z</time>
      </trkpt>
      <trkpt lat="47.415527" lon="8.098358">
        <ele>413.386133</ele>
        <time>2021-11-20T18:05:30.524Z</time>
      </trkpt>
      <trkpt lat="47.415523" lon="8.098469">
        <ele>413.103204</ele>
        <time>2021-11-20T18:05:31.205Z</time>
      </trkpt>
      <trkpt lat="47.415494" lon="8.098736">
        <ele>412.414908</ele>
        <time>2021-11-20T18:05:32.991Z</time>
      </trkpt>
      <trkpt lat="47.415444" lon="8.098950">
        <ele>411.838657</ele>
        <time>2021-11-20T18:05:34.443Z</time>
      </trkpt>
      <trkpt lat="47.415420" lon="8.099037">
        <ele>411.599520</ele>
        <time>2021-11-20T18:05:35.005Z</time>
      </trkpt>
      <trkpt lat="47.415223" lon="8.099531">
        <ele>410.046413</ele>
        <time>2021-11-20T18:05:38.649Z</time>
      </trkpt>
      <trkpt lat="47.415159" lon="8.099742">
        <ele>409.259262</ele>
        <time>2021-11-20T18:05:40.203Z</time>
      </trkpt>
      <trkpt lat="47.415142" lon="8.100043">
        <ele>408.231028</ele>
        <time>2021-11-20T18:05:42.031Z</time>
      </trkpt>
      <trkpt lat="47.415178" lon="8.100941">
        <ele>405.168674</ele>
        <time>2021-11-20T18:05:47.647Z</time>
      </trkpt>
      <trkpt lat="47.415260" lon="8.101494">
        <ele>403.241471</ele>
        <time>2021-11-20T18:05:51.205Z</time>
      </trkpt>
      <trkpt lat="47.415689" lon="8.102575">
        <ele>401.076893</ele>
        <time>2021-11-20T18:05:59.689Z</time>
      </trkpt>
      <trkpt lat="47.415790" lon="8.102844">
        <ele>400.949132</ele>
        <time>2021-11-20T18:06:01.960Z</time>
      </trkpt>
      <trkpt lat="47.415831" lon="8.102972">
        <ele>400.890319</ele>
        <time>2021-11-20T18:06:03.110Z</time>
      </trkpt>
      <trkpt lat="47.415849" lon="8.103052">
        <ele>400.855306</ele>
        <time>2021-11-20T18:06:03.900Z</time>
      </trkpt>
      <trkpt lat="47.416031" lon="8.103825">
        <ele>400.515402</ele>
        <time>2021-11-20T18:06:10.915Z</time>
      </trkpt>
      <trkpt lat="47.416047" lon="8.104088">
        <ele>400.405738</ele>
        <time>2021-11-20T18:06:15.277Z</time>
      </trkpt>
      <trkpt lat="47.416028" lon="8.104385">
        <ele>400.281844</ele>
        <time>2021-11-20T18:06:20.290Z</time>
      </trkpt>
      <trkpt lat="47.416014" lon="8.104593">
        <ele>401.019428</ele>
        <time>2021-11-20T18:06:24.575Z</time>
      </trkpt>
      <trkpt lat="47.416062" lon="8.105399">
        <ele>404.642654</ele>
        <time>2021-11-20T18:06:43.421Z</time>
      </trkpt>
      <trkpt lat="47.416098" lon="8.105876">
        <ele>406.791907</ele>
        <time>2021-11-20T18:06:57.248Z</time>
      </trkpt>
      <trkpt lat="47.416086" lon="8.106072">
        <ele>407.673181</ele>
        <time>2021-11-20T18:07:02.859Z</time>
      </trkpt>
      <trkpt lat="47.416051" lon="8.106404">
        <ele>409.177813</ele>
        <time>2021-11-20T18:07:15.302Z</time>
      </trkpt>
      <trkpt lat="47.415963" lon="8.107311">
        <ele>413.327515</ele>
        <time>2021-11-20T18:07:47.199Z</time>
      </trkpt>
      <trkpt lat="47.415914" lon="8.108288">
        <ele>417.898250</ele>
        <time>2021-11-20T18:08:20.709Z</time>
      </trkpt>
      <trkpt lat="47.415904" lon="8.108426">
        <ele>418.545777</ele>
        <time>2021-11-20T18:08:25.562Z</time>
      </trkpt>
      <trkpt lat="47.415825" lon="8.109168">
        <ele>422.050201</ele>
        <time>2021-11-20T18:08:44.319Z</time>
      </trkpt>
      <trkpt lat="47.415819" lon="8.109294">
        <ele>422.639515</ele>
        <time>2021-11-20T18:08:48.231Z</time>
      </trkpt>
      <trkpt lat="47.415828" lon="8.109519">
        <ele>423.691096</ele>
        <time>2021-11-20T18:08:53.061Z</time>
      </trkpt>
      <trkpt lat="47.415853" lon="8.109698">
        <ele>424.543832</ele>
        <time>2021-11-20T18:08:56.429Z</time>
      </trkpt>
      <trkpt lat="47.415887" lon="8.109940">
        <ele>424.799424</ele>
        <time>2021-11-20T18:09:02.444Z</time>
      </trkpt>
      <trkpt lat="47.416029" lon="8.110430">
        <ele>425.306991</ele>
        <time>2021-11-20T18:09:10.966Z</time>
      </trkpt>
      <trkpt lat="47.416110" lon="8.110685">
        <ele>425.575224</ele>
        <time>2021-11-20T18:09:13.381Z</time>
      </trkpt>
      <trkpt lat="47.416140" lon="8.110825">
        <ele>425.715057</ele>
        <time>2021-11-20T18:09:15.993Z</time>
      </trkpt>
      <trkpt lat="47.416289" lon="8.112654">
        <ele>428.127627</ele>
        <time>2021-11-20T18:09:34.493Z</time>
      </trkpt>
      <trkpt lat="47.416317" lon="8.112836">
        <ele>428.622547</ele>
        <time>2021-11-20T18:09:36.635Z</time>
      </trkpt>
      <trkpt lat="47.416367" lon="8.113057">
        <ele>429.240454</ele>
        <time>2021-11-20T18:09:40.583Z</time>
      </trkpt>
      <trkpt lat="47.416914" lon="8.114547">
        <ele>433.735439</ele>
        <time>2021-11-20T18:10:20.235Z</time>
      </trkpt>
      <trkpt lat="47.417019" lon="8.115079">
        <ele>435.750239</ele>
        <time>2021-11-20T18:10:36.972Z</time>
      </trkpt>
      <trkpt lat="47.417128" lon="8.115588">
        <ele>437.896832</ele>
        <time>2021-11-20T18:10:52.819Z</time>
      </trkpt>
      <trkpt lat="47.417162" lon="8.115799">
        <ele>438.768928</ele>
        <time>2021-11-20T18:10:57.435Z</time>
      </trkpt>
      <trkpt lat="47.417169" lon="8.115967">
        <ele>439.445688</ele>
        <time>2021-11-20T18:11:02.795Z</time>
      </trkpt>
      <trkpt lat="47.417159" lon="8.116098">
        <ele>439.975744</ele>
        <time>2021-11-20T18:11:07.823Z</time>
      </trkpt>
      <trkpt lat="47.417111" lon="8.116280">
        <ele>440.761135</ele>
        <time>2021-11-20T18:11:11.729Z</time>
      </trkpt>
      <trkpt lat="47.416999" lon="8.116493">
        <ele>441.845731</ele>
        <time>2021-11-20T18:11:20.156Z</time>
      </trkpt>
      <trkpt lat="47.416825" lon="8.116822">
        <ele>443.524673</ele>
        <time>2021-11-20T18:11:30.077Z</time>
      </trkpt>
      <trkpt lat="47.416771" lon="8.116964">
        <ele>444.179606</ele>
        <time>2021-11-20T18:11:35.961Z</time>
      </trkpt>
      <trkpt lat="47.416715" lon="8.117196">
        <ele>444.825620</ele>
        <time>2021-11-20T18:11:40.028Z</time>
      </trkpt>
      <trkpt lat="47.416676" lon="8.117709">
        <ele>444.759121</ele>
        <time>2021-11-20T18:11:50.341Z</time>
      </trkpt>
      <trkpt lat="47.416641" lon="8.118223">
        <ele>444.692576</ele>
        <time>2021-11-20T18:11:57.972Z</time>
      </trkpt>
      <trkpt lat="47.416569" lon="8.118732">
        <ele>444.625591</ele>
        <time>2021-11-20T18:12:02.116Z</time>
      </trkpt>
      <trkpt lat="47.416459" lon="8.119431">
        <ele>444.533146</ele>
        <time>2021-11-20T18:12:07.266Z</time>
      </trkpt>
      <trkpt lat="47.416298" lon="8.120228">
        <ele>442.697089</ele>
        <time>2021-11-20T18:12:12.574Z</time>
      </trkpt>
      <trkpt lat="47.416291" lon="8.121196">
        <ele>439.397236</ele>
        <time>2021-11-20T18:12:18.687Z</time>
      </trkpt>
      <trkpt lat="47.416479" lon="8.122061">
        <ele>436.300314</ele>
        <time>2021-11-20T18:12:24.464Z</time>
      </trkpt>
      <trkpt lat="47.416514" lon="8.122219">
        <ele>435.733609</ele>
        <time>2021-11-20T18:12:25.471Z</time>
      </trkpt>
      <trkpt lat="47.416581" lon="8.122489">
        <ele>434.604612</ele>
        <time>2021-11-20T18:12:27.347Z</time>
      </trkpt>
      <trkpt lat="47.416611" lon="8.122801">
        <ele>433.295436</ele>
        <time>2021-11-20T18:12:29.337Z</time>
      </trkpt>
      <trkpt lat="47.416603" lon="8.123016">
        <ele>432.400902</ele>
        <time>2021-11-20T18:12:30.702Z</time>
      </trkpt>
      <trkpt lat="47.416592" lon="8.123486">
        <ele>430.447192</ele>
        <time>2021-11-20T18:12:33.635Z</time>
      </trkpt>
      <trkpt lat="47.416602" lon="8.123985">
        <ele>428.373264</ele>
        <time>2021-11-20T18:12:36.733Z</time>
      </trkpt>
      <trkpt lat="47.416618" lon="8.125016">
        <ele>423.979122</ele>
        <time>2021-11-20T18:12:43.033Z</time>
      </trkpt>
      <trkpt lat="47.416621" lon="8.125394">
        <ele>421.836165</ele>
        <time>2021-11-20T18:12:45.293Z</time>
      </trkpt>
      <trkpt lat="47.416600" lon="8.126042">
        <ele>418.158566</ele>
        <time>2021-11-20T18:12:49.208Z</time>
      </trkpt>
      <trkpt lat="47.416577" lon="8.126284">
        <ele>416.773248</ele>
        <time>2021-11-20T18:12:50.636Z</time>
      </trkpt>
      <trkpt lat="47.416502" lon="8.126735">
        <ele>414.140536</ele>
        <time>2021-11-20T18:12:53.418Z</time>
      </trkpt>
      <trkpt lat="47.416433" lon="8.127309">
        <ele>410.835684</ele>
        <time>2021-11-20T18:12:56.810Z</time>
      </trkpt>
      <trkpt lat="47.416388" lon="8.127799">
        <ele>407.999310</ele>
        <time>2021-11-20T18:12:59.725Z</time>
      </trkpt>
      <trkpt lat="47.416342" lon="8.127992">
        <ele>406.809494</ele>
        <time>2021-11-20T18:13:00.921Z</time>
      </trkpt>
      <trkpt lat="47.416247" lon="8.128328">
        <ele>404.692061</ele>
        <time>2021-11-20T18:13:03.055Z</time>
      </trkpt>
      <trkpt lat="47.416135" lon="8.128791">
        <ele>401.832992</ele>
        <time>2021-11-20T18:13:05.996Z</time>
      </trkpt>
      <trkpt lat="47.416094" lon="8.128954">
        <ele>400.821828</ele>
        <time>2021-11-20T18:13:07.010Z</time>
      </trkpt>
      <trkpt lat="47.416075" lon="8.129039">
        <ele>400.301308</ele>
        <time>2021-11-20T18:13:07.554Z</time>
      </trkpt>
      <trkpt lat="47.416061" lon="8.129132">
        <ele>399.747318</ele>
        <time>2021-11-20T18:13:08.134Z</time>
      </trkpt>
      <trkpt lat="47.416055" lon="8.129260">
        <ele>399.001249</ele>
        <time>2021-11-20T18:13:08.918Z</time>
      </trkpt>
      <trkpt lat="47.416060" lon="8.129331">
        <ele>398.586174</ele>
        <time>2021-11-20T18:13:09.329Z</time>
      </trkpt>
      <trkpt lat="47.416325" lon="8.130531">
        <ele>391.332246</ele>
        <time>2021-11-20T18:13:16.851Z</time>
      </trkpt>
      <trkpt lat="47.416527" lon="8.132520">
        <ele>380.020810</ele>
        <time>2021-11-20T18:13:28.788Z</time>
      </trkpt>
      <trkpt lat="47.416534" lon="8.132698">
        <ele>379.018050</ele>
        <time>2021-11-20T18:13:29.824Z</time>
      </trkpt>
      <trkpt lat="47.416563" lon="8.133578">
        <ele>375.057073</ele>
        <time>2021-11-20T18:13:35.183Z</time>
      </trkpt>
      <trkpt lat="47.416587" lon="8.134102">
        <ele>372.708237</ele>
        <time>2021-11-20T18:13:38.367Z</time>
      </trkpt>
      <trkpt lat="47.416604" lon="8.134318">
        <ele>371.735713</ele>
        <time>2021-11-20T18:13:39.648Z</time>
      </trkpt>
      <trkpt lat="47.416625" lon="8.134534">
        <ele>370.759782</ele>
        <time>2021-11-20T18:13:41.025Z</time>
      </trkpt>
      <trkpt lat="47.416658" lon="8.134672">
        <ele>370.105203</ele>
        <time>2021-11-20T18:13:41.941Z</time>
      </trkpt>
      <trkpt lat="47.416726" lon="8.134959">
        <ele>368.745251</ele>
        <time>2021-11-20T18:13:43.786Z</time>
      </trkpt>
      <trkpt lat="47.416749" lon="8.135179">
        <ele>367.749679</ele>
        <time>2021-11-20T18:13:45.236Z</time>
      </trkpt>
      <trkpt lat="47.416750" lon="8.135267">
        <ele>367.356065</ele>
        <time>2021-11-20T18:13:45.799Z</time>
      </trkpt>
      <trkpt lat="47.416747" lon="8.135379">
        <ele>366.962112</ele>
        <time>2021-11-20T18:13:46.514Z</time>
      </trkpt>
      <trkpt lat="47.416720" lon="8.135730">
        <ele>366.354775</ele>
        <time>2021-11-20T18:13:48.882Z</time>
      </trkpt>
      <trkpt lat="47.416691" lon="8.136112">
        <ele>365.693907</ele>
        <time>2021-11-20T18:13:51.478Z</time>
      </trkpt>
      <trkpt lat="47.416679" lon="8.136263">
        <ele>365.432519</ele>
        <time>2021-11-20T18:13:52.558Z</time>
      </trkpt>
      <trkpt lat="47.416663" lon="8.136694">
        <ele>364.690415</ele>
        <time>2021-11-20T18:13:55.634Z</time>
      </trkpt>
      <trkpt lat="47.416661" lon="8.136761">
        <ele>364.575114</ele>
        <time>2021-11-20T18:13:56.151Z</time>
      </trkpt>
      <trkpt lat="47.416653" lon="8.136955">
        <ele>364.240964</ele>
        <time>2021-11-20T18:13:57.492Z</time>
      </trkpt>
      <trkpt lat="47.416633" lon="8.137189">
        <ele>363.835466</ele>
        <time>2021-11-20T18:13:59.443Z</time>
      </trkpt>
      <trkpt lat="47.416589" lon="8.137547">
        <ele>363.209909</ele>
        <time>2021-11-20T18:14:02.109Z</time>
      </trkpt>
      <trkpt lat="47.416510" lon="8.138093">
        <ele>362.504018</ele>
        <time>2021-11-20T18:14:06.730Z</time>
      </trkpt>
      <trkpt lat="47.416461" lon="8.138482">
        <ele>362.649660</ele>
        <time>2021-11-20T18:14:10.675Z</time>
      </trkpt>
      <trkpt lat="47.416432" lon="8.138879">
        <ele>362.796637</ele>
        <time>2021-11-20T18:14:15.064Z</time>
      </trkpt>
      <trkpt lat="47.416397" lon="8.138974">
        <ele>362.836451</ele>
        <time>2021-11-20T18:14:16.085Z</time>
      </trkpt>
      <trkpt lat="47.416327" lon="8.139061">
        <ele>362.886204</ele>
        <time>2021-11-20T18:14:17.716Z</time>
      </trkpt>
      <trkpt lat="47.416289" lon="8.139081">
        <ele>362.908146</ele>
        <time>2021-11-20T18:14:18.183Z</time>
      </trkpt>
      <trkpt lat="47.416307" lon="8.139144">
        <ele>362.933318</ele>
        <time>2021-11-20T18:14:19.363Z</time>
      </trkpt>
      <trkpt lat="47.416304" lon="8.139422">
        <ele>363.035657</ele>
        <time>2021-11-20T18:14:22.673Z</time>
      </trkpt>
      <trkpt lat="47.416191" lon="8.139979">
        <ele>363.249694</ele>
        <time>2021-11-20T18:14:30.225Z</time>
      </trkpt>
      <trkpt lat="47.416177" lon="8.140095">
        <ele>363.293065</ele>
        <time>2021-11-20T18:14:31.697Z</time>
      </trkpt>
      <trkpt lat="47.416163" lon="8.140318">
        <ele>363.375499</ele>
        <time>2021-11-20T18:14:35.039Z</time>
      </trkpt>
      <trkpt lat="47.416163" lon="8.140356">
        <ele>363.389486</ele>
        <time>2021-11-20T18:14:35.715Z</time>
      </trkpt>
      <trkpt lat="47.416160" lon="8.140586">
        <ele>363.462158</ele>
        <time>2021-11-20T18:14:39.222Z</time>
      </trkpt>
      <trkpt lat="47.416159" lon="8.140657">
        <ele>363.479712</ele>
        <time>2021-11-20T18:14:39.913Z</time>
      </trkpt>
      <trkpt lat="47.416161" lon="8.141080">
        <ele>363.584279</ele>
        <time>2021-11-20T18:14:46.599Z</time>
      </trkpt>
      <trkpt lat="47.416161" lon="8.141192">
        <ele>363.611964</ele>
        <time>2021-11-20T18:14:47.945Z</time>
      </trkpt>
      <trkpt lat="47.416163" lon="8.141430">
        <ele>363.670801</ele>
        <time>2021-11-20T18:14:51.420Z</time>
      </trkpt>
      <trkpt lat="47.416163" lon="8.141465">
        <ele>363.679453</ele>
        <time>2021-11-20T18:14:51.973Z</time>
      </trkpt>
      <trkpt lat="47.416149" lon="8.141961">
        <ele>363.802169</ele>
        <time>2021-11-20T18:14:57.960Z</time>
      </trkpt>
      <trkpt lat="47.416140" lon="8.142099">
        <ele>363.836440</ele>
        <time>2021-11-20T18:14:59.654Z</time>
      </trkpt>
      <trkpt lat="47.416098" lon="8.142501">
        <ele>363.936990</ele>
        <time>2021-11-20T18:15:03.703Z</time>
      </trkpt>
      <trkpt lat="47.416040" lon="8.142873">
        <ele>364.031357</ele>
        <time>2021-11-20T18:15:06.874Z</time>
      </trkpt>
      <trkpt lat="47.415961" lon="8.143285">
        <ele>363.790137</ele>
        <time>2021-11-20T18:15:10.257Z</time>
      </trkpt>
      <trkpt lat="47.415927" lon="8.143455">
        <ele>363.476365</ele>
        <time>2021-11-20T18:15:11.595Z</time>
      </trkpt>
      <trkpt lat="47.415782" lon="8.144293">
        <ele>361.945357</ele>
        <time>2021-11-20T18:15:17.885Z</time>
      </trkpt>
      <trkpt lat="47.415749" lon="8.144559">
        <ele>361.466681</ele>
        <time>2021-11-20T18:15:19.783Z</time>
      </trkpt>
      <trkpt lat="47.415703" lon="8.145094">
        <ele>360.512101</ele>
        <time>2021-11-20T18:15:23.444Z</time>
      </trkpt>
      <trkpt lat="47.415660" lon="8.145467">
        <ele>359.842366</ele>
        <time>2021-11-20T18:15:25.994Z</time>
      </trkpt>
      <trkpt lat="47.415619" lon="8.145817">
        <ele>359.217072</ele>
        <time>2021-11-20T18:15:28.360Z</time>
      </trkpt>
      <trkpt lat="47.415601" lon="8.145965">
        <ele>358.956093</ele>
        <time>2021-11-20T18:15:29.383Z</time>
      </trkpt>
      <trkpt lat="47.415531" lon="8.146555">
        <ele>357.916493</ele>
        <time>2021-11-20T18:15:33.487Z</time>
      </trkpt>
      <trkpt lat="47.415487" lon="8.146937">
        <ele>357.243973</ele>
        <time>2021-11-20T18:15:36.184Z</time>
      </trkpt>
      <trkpt lat="47.415443" lon="8.147291">
        <ele>356.619306</ele>
        <time>2021-11-20T18:15:38.710Z</time>
      </trkpt>
      <trkpt lat="47.415271" lon="8.148640">
        <ele>354.627945</ele>
        <time>2021-11-20T18:15:48.969Z</time>
      </trkpt>
      <trkpt lat="47.415243" lon="8.149157">
        <ele>354.380026</ele>
        <time>2021-11-20T18:15:53.402Z</time>
      </trkpt>
      <trkpt lat="47.415244" lon="8.149230">
        <ele>354.345125</ele>
        <time>2021-11-20T18:15:54.011Z</time>
      </trkpt>
      <trkpt lat="47.415244" lon="8.149230">
        <ele>354.345125</ele>
        <time>2021-11-20T18:15:54.101Z</time>
      </trkpt>
      <trkpt lat="47.415244" lon="8.149230">
        <ele>354.345125</ele>
        <time>2021-11-20T18:15:54.136Z</time>
      </trkpt>
      <trkpt lat="47.415246" lon="8.149567">
        <ele>354.184031</ele>
        <time>2021-11-20T18:15:57.441Z</time>
      </trkpt>
      <trkpt lat="47.415264" lon="8.149983">
        <ele>353.984775</ele>
        <time>2021-11-20T18:16:01.483Z</time>
      </trkpt>
      <trkpt lat="47.415291" lon="8.150310">
        <ele>353.827309</ele>
        <time>2021-11-20T18:16:04.413Z</time>
      </trkpt>
      <trkpt lat="47.415341" lon="8.150705">
        <ele>353.635222</ele>
        <time>2021-11-20T18:16:08.563Z</time>
      </trkpt>
      <trkpt lat="47.415493" lon="8.151582">
        <ele>353.161225</ele>
        <time>2021-11-20T18:16:16.498Z</time>
      </trkpt>
      <trkpt lat="47.415545" lon="8.151791">
        <ele>353.040318</ele>
        <time>2021-11-20T18:16:18.398Z</time>
      </trkpt>
      <trkpt lat="47.415657" lon="8.152225">
        <ele>352.788117</ele>
        <time>2021-11-20T18:16:22.542Z</time>
      </trkpt>
      <trkpt lat="47.415814" lon="8.152754">
        <ele>352.474478</ele>
        <time>2021-11-20T18:16:27.522Z</time>
      </trkpt>
      <trkpt lat="47.415897" lon="8.152993">
        <ele>352.328619</ele>
        <time>2021-11-20T18:16:29.592Z</time>
      </trkpt>
      <trkpt lat="47.416136" lon="8.153630">
        <ele>351.972264</ele>
        <time>2021-11-20T18:16:35.369Z</time>
      </trkpt>
      <trkpt lat="47.416565" lon="8.154411">
        <ele>351.590839</ele>
        <time>2021-11-20T18:16:43.623Z</time>
      </trkpt>
      <trkpt lat="47.416777" lon="8.154683">
        <ele>351.433521</ele>
        <time>2021-11-20T18:16:47.422Z</time>
      </trkpt>
      <trkpt lat="47.417050" lon="8.155013">
        <ele>351.235888</ele>
        <time>2021-11-20T18:16:53.002Z</time>
      </trkpt>
      <trkpt lat="47.417349" lon="8.155387">
        <ele>351.029240</ele>
        <time>2021-11-20T18:16:58.862Z</time>
      </trkpt>
      <trkpt lat="47.417678" lon="8.155825">
        <ele>350.863824</ele>
        <time>2021-11-20T18:17:05.193Z</time>
      </trkpt>
      <trkpt lat="47.417784" lon="8.155967">
        <ele>350.810380</ele>
        <time>2021-11-20T18:17:07.559Z</time>
      </trkpt>
      <trkpt lat="47.417842" lon="8.156043">
        <ele>350.781423</ele>
        <time>2021-11-20T18:17:08.580Z</time>
      </trkpt>
      <trkpt lat="47.417945" lon="8.156210">
        <ele>350.724306</ele>
        <time>2021-11-20T18:17:10.603Z</time>
      </trkpt>
      <trkpt lat="47.418118" lon="8.156488">
        <ele>350.628837</ele>
        <time>2021-11-20T18:17:14.315Z</time>
      </trkpt>
      <trkpt lat="47.418155" lon="8.156547">
        <ele>350.608504</ele>
        <time>2021-11-20T18:17:14.962Z</time>
      </trkpt>
      <trkpt lat="47.418313" lon="8.156805">
        <ele>350.520546</ele>
        <time>2021-11-20T18:17:18.349Z</time>
      </trkpt>
      <trkpt lat="47.418372" lon="8.156901">
        <ele>350.487766</ele>
        <time>2021-11-20T18:17:19.382Z</time>
      </trkpt>
      <trkpt lat="47.418814" lon="8.157624">
        <ele>350.040102</ele>
        <time>2021-11-20T18:17:27.548Z</time>
      </trkpt>
      <trkpt lat="47.419193" lon="8.158226">
        <ele>349.536620</ele>
        <time>2021-11-20T18:17:34.022Z</time>
      </trkpt>
      <trkpt lat="47.419233" lon="8.158285">
        <ele>349.485481</ele>
        <time>2021-11-20T18:17:34.707Z</time>
      </trkpt>
      <trkpt lat="47.419324" lon="8.158381">
        <ele>349.384306</ele>
        <time>2021-11-20T18:17:36.052Z</time>
      </trkpt>
      <trkpt lat="47.419465" lon="8.158501">
        <ele>349.237069</ele>
        <time>2021-11-20T18:17:38.038Z</time>
      </trkpt>
      <trkpt lat="47.419614" lon="8.158620">
        <ele>349.083808</ele>
        <time>2021-11-20T18:17:40.197Z</time>
      </trkpt>
      <trkpt lat="47.419775" lon="8.158714">
        <ele>348.927159</ele>
        <time>2021-11-20T18:17:42.415Z</time>
      </trkpt>
      <trkpt lat="47.419895" lon="8.158784">
        <ele>348.810416</ele>
        <time>2021-11-20T18:17:44.082Z</time>
      </trkpt>
      <trkpt lat="47.420004" lon="8.158855">
        <ele>348.736979</ele>
        <time>2021-11-20T18:17:45.680Z</time>
      </trkpt>
      <trkpt lat="47.420021" lon="8.158866">
        <ele>348.731114</ele>
        <time>2021-11-20T18:17:45.925Z</time>
      </trkpt>
      <trkpt lat="47.420051" lon="8.158886">
        <ele>348.720713</ele>
        <time>2021-11-20T18:17:46.486Z</time>
      </trkpt>
      <trkpt lat="47.420791" lon="8.159468">
        <ele>348.455809</ele>
        <time>2021-11-20T18:17:58.087Z</time>
      </trkpt>
      <trkpt lat="47.421022" lon="8.159550">
        <ele>348.380732</ele>
        <time>2021-11-20T18:18:01.698Z</time>
      </trkpt>
      <trkpt lat="47.421146" lon="8.159582">
        <ele>348.340953</ele>
        <time>2021-11-20T18:18:03.485Z</time>
      </trkpt>
      <trkpt lat="47.421508" lon="8.159635">
        <ele>348.225994</ele>
        <time>2021-11-20T18:18:08.756Z</time>
      </trkpt>
      <trkpt lat="47.421686" lon="8.159661">
        <ele>348.145093</ele>
        <time>2021-11-20T18:18:11.127Z</time>
      </trkpt>
      <trkpt lat="47.422969" lon="8.160283">
        <ele>347.125346</ele>
        <time>2021-11-20T18:18:28.131Z</time>
      </trkpt>
      <trkpt lat="47.423331" lon="8.160349">
        <ele>346.849883</ele>
        <time>2021-11-20T18:18:32.603Z</time>
      </trkpt>
      <trkpt lat="47.423707" lon="8.160329">
        <ele>346.671785</ele>
        <time>2021-11-20T18:18:37.313Z</time>
      </trkpt>
      <trkpt lat="47.423972" lon="8.160266">
        <ele>346.550850</ele>
        <time>2021-11-20T18:18:40.704Z</time>
      </trkpt>
      <trkpt lat="47.424146" lon="8.160232">
        <ele>346.471769</ele>
        <time>2021-11-20T18:18:42.959Z</time>
      </trkpt>
      <trkpt lat="47.424450" lon="8.160184">
        <ele>346.334017</ele>
        <time>2021-11-20T18:18:46.931Z</time>
      </trkpt>
      <trkpt lat="47.424982" lon="8.160076">
        <ele>346.092064</ele>
        <time>2021-11-20T18:18:54.368Z</time>
      </trkpt>
      <trkpt lat="47.425250" lon="8.160026">
        <ele>346.132219</ele>
        <time>2021-11-20T18:18:58.416Z</time>
      </trkpt>
      <trkpt lat="47.425561" lon="8.159911">
        <ele>346.476270</ele>
        <time>2021-11-20T18:19:03.520Z</time>
      </trkpt>
      <trkpt lat="47.425842" lon="8.159776">
        <ele>346.793368</ele>
        <time>2021-11-20T18:19:08.804Z</time>
      </trkpt>
      <trkpt lat="47.425955" lon="8.159702">
        <ele>346.926008</ele>
        <time>2021-11-20T18:19:11.632Z</time>
      </trkpt>
      <trkpt lat="47.426234" lon="8.159476">
        <ele>347.267445</ele>
        <time>2021-11-20T18:19:17.946Z</time>
      </trkpt>
      <trkpt lat="47.426380" lon="8.159332">
        <ele>347.455812</ele>
        <time>2021-11-20T18:19:21.518Z</time>
      </trkpt>
      <trkpt lat="47.426687" lon="8.158983">
        <ele>347.871456</ele>
        <time>2021-11-20T18:19:29.985Z</time>
      </trkpt>
      <trkpt lat="47.426993" lon="8.158713">
        <ele>348.373217</ele>
        <time>2021-11-20T18:19:37.923Z</time>
      </trkpt>
      <trkpt lat="47.427111" lon="8.158647">
        <ele>348.561510</ele>
        <time>2021-11-20T18:19:40.738Z</time>
      </trkpt>
      <trkpt lat="47.427154" lon="8.158623">
        <ele>348.630107</ele>
        <time>2021-11-20T18:19:42.048Z</time>
      </trkpt>
      <trkpt lat="47.427577" lon="8.158494">
        <ele>349.274703</ele>
        <time>2021-11-20T18:19:51.537Z</time>
      </trkpt>
      <trkpt lat="47.427702" lon="8.158461">
        <ele>349.464209</ele>
        <time>2021-11-20T18:19:54.347Z</time>
      </trkpt>
      <trkpt lat="47.427991" lon="8.158393">
        <ele>349.900953</ele>
        <time>2021-11-20T18:20:00.641Z</time>
      </trkpt>
      <trkpt lat="47.429069" lon="8.158108">
        <ele>350.689146</ele>
        <time>2021-11-20T18:20:20.396Z</time>
      </trkpt>
      <trkpt lat="47.429793" lon="8.157802">
        <ele>350.759223</ele>
        <time>2021-11-20T18:20:30.563Z</time>
      </trkpt>
      <trkpt lat="47.430633" lon="8.157295">
        <ele>351.529683</ele>
        <time>2021-11-20T18:20:42.881Z</time>
      </trkpt>
      <trkpt lat="47.431742" lon="8.156640">
        <ele>353.397496</ele>
        <time>2021-11-20T18:21:07.101Z</time>
      </trkpt>
      <trkpt lat="47.431963" lon="8.156509">
        <ele>354.177658</ele>
        <time>2021-11-20T18:21:15.131Z</time>
      </trkpt>
      <trkpt lat="47.432176" lon="8.156350">
        <ele>355.523050</ele>
        <time>2021-11-20T18:21:24.793Z</time>
      </trkpt>
      <trkpt lat="47.432413" lon="8.156031">
        <ele>357.330256</ele>
        <time>2021-11-20T18:21:37.134Z</time>
      </trkpt>
      <trkpt lat="47.432612" lon="8.155394">
        <ele>360.006399</ele>
        <time>2021-11-20T18:21:55.041Z</time>
      </trkpt>
      <trkpt lat="47.432636" lon="8.155184">
        <ele>360.818704</ele>
        <time>2021-11-20T18:22:01.183Z</time>
      </trkpt>
      <trkpt lat="47.432643" lon="8.155002">
        <ele>361.513986</ele>
        <time>2021-11-20T18:22:07.028Z</time>
      </trkpt>
      <trkpt lat="47.432684" lon="8.153991">
        <ele>365.080970</ele>
        <time>2021-11-20T18:22:34.350Z</time>
      </trkpt>
      <trkpt lat="47.432970" lon="8.152838">
        <ele>368.910375</ele>
        <time>2021-11-20T18:23:04.967Z</time>
      </trkpt>
      <trkpt lat="47.433109" lon="8.152489">
        <ele>370.173249</ele>
        <time>2021-11-20T18:23:12.619Z</time>
      </trkpt>
      <trkpt lat="47.433307" lon="8.152181">
        <ele>371.498173</ele>
        <time>2021-11-20T18:23:20.316Z</time>
      </trkpt>
      <trkpt lat="47.433428" lon="8.152019">
        <ele>372.107745</ele>
        <time>2021-11-20T18:23:23.915Z</time>
      </trkpt>
      <trkpt lat="47.433514" lon="8.151850">
        <ele>372.307102</ele>
        <time>2021-11-20T18:23:27.696Z</time>
      </trkpt>
      <trkpt lat="47.433591" lon="8.151630">
        <ele>372.540604</ele>
        <time>2021-11-20T18:23:30.887Z</time>
      </trkpt>
      <trkpt lat="47.433623" lon="8.151489">
        <ele>372.680801</ele>
        <time>2021-11-20T18:23:33.747Z</time>
      </trkpt>
      <trkpt lat="47.433679" lon="8.151071">
        <ele>373.082488</ele>
        <time>2021-11-20T18:23:39.280Z</time>
      </trkpt>
      <trkpt lat="47.433714" lon="8.150838">
        <ele>373.307479</ele>
        <time>2021-11-20T18:23:43.003Z</time>
      </trkpt>
      <trkpt lat="47.433738" lon="8.150719">
        <ele>373.424536</ele>
        <time>2021-11-20T18:23:44.594Z</time>
      </trkpt>
      <trkpt lat="47.433787" lon="8.150557">
        <ele>373.591819</ele>
        <time>2021-11-20T18:23:46.372Z</time>
      </trkpt>
      <trkpt lat="47.433981" lon="8.150197">
        <ele>374.025700</ele>
        <time>2021-11-20T18:23:51.952Z</time>
      </trkpt>
      <trkpt lat="47.434345" lon="8.149712">
        <ele>374.604139</ele>
        <time>2021-11-20T18:24:01.520Z</time>
      </trkpt>
      <trkpt lat="47.435477" lon="8.148648">
        <ele>375.224015</ele>
        <time>2021-11-20T18:24:23.033Z</time>
      </trkpt>
      <trkpt lat="47.435655" lon="8.148462">
        <ele>375.324742</ele>
        <time>2021-11-20T18:24:26.359Z</time>
      </trkpt>
      <trkpt lat="47.435751" lon="8.148349">
        <ele>375.381448</ele>
        <time>2021-11-20T18:24:28.486Z</time>
      </trkpt>
      <trkpt lat="47.435898" lon="8.148174">
        <ele>375.541039</ele>
        <time>2021-11-20T18:24:31.662Z</time>
      </trkpt>
      <trkpt lat="47.436053" lon="8.147987">
        <ele>375.712039</ele>
        <time>2021-11-20T18:24:35.125Z</time>
      </trkpt>
      <trkpt lat="47.436565" lon="8.147678">
        <ele>376.184725</ele>
        <time>2021-11-20T18:24:45.008Z</time>
      </trkpt>
      <trkpt lat="47.436610" lon="8.147666">
        <ele>376.223809</ele>
        <time>2021-11-20T18:24:45.765Z</time>
      </trkpt>
      <trkpt lat="47.436647" lon="8.147472">
        <ele>376.340343</ele>
        <time>2021-11-20T18:24:48.527Z</time>
      </trkpt>
      <trkpt lat="47.436789" lon="8.147229">
        <ele>376.526001</ele>
        <time>2021-11-20T18:24:52.487Z</time>
      </trkpt>
      <trkpt lat="47.436840" lon="8.147218">
        <ele>376.570054</ele>
        <time>2021-11-20T18:24:53.628Z</time>
      </trkpt>
      <trkpt lat="47.436876" lon="8.147206">
        <ele>376.601597</ele>
        <time>2021-11-20T18:24:54.328Z</time>
      </trkpt>
      <trkpt lat="47.437074" lon="8.147140">
        <ele>376.775083</ele>
        <time>2021-11-20T18:24:58.177Z</time>
      </trkpt>
      <trkpt lat="47.437959" lon="8.146894">
        <ele>379.278928</ele>
        <time>2021-11-20T18:25:15.426Z</time>
      </trkpt>
      <trkpt lat="47.438170" lon="8.146818">
        <ele>379.980478</ele>
        <time>2021-11-20T18:25:21.400Z</time>
      </trkpt>
      <trkpt lat="47.438451" lon="8.146713">
        <ele>380.916762</ele>
        <time>2021-11-20T18:25:29.790Z</time>
      </trkpt>
      <trkpt lat="47.438510" lon="8.146691">
        <ele>381.113323</ele>
        <time>2021-11-20T18:25:31.844Z</time>
      </trkpt>
      <trkpt lat="47.438799" lon="8.146584">
        <ele>382.075735</ele>
        <time>2021-11-20T18:25:41.911Z</time>
      </trkpt>
      <trkpt lat="47.438872" lon="8.146541">
        <ele>382.329581</ele>
        <time>2021-11-20T18:25:45.538Z</time>
      </trkpt>
      <trkpt lat="47.438978" lon="8.146396">
        <ele>382.855345</ele>
        <time>2021-11-20T18:25:51.210Z</time>
      </trkpt>
      <trkpt lat="47.439035" lon="8.146242">
        <ele>383.589082</ele>
        <time>2021-11-20T18:25:55.742Z</time>
      </trkpt>
      <trkpt lat="47.439042" lon="8.146081">
        <ele>384.263393</ele>
        <time>2021-11-20T18:26:00.738Z</time>
      </trkpt>
      <trkpt lat="47.438991" lon="8.145854">
        <ele>385.263144</ele>
        <time>2021-11-20T18:26:07.180Z</time>
      </trkpt>
      <trkpt lat="47.438801" lon="8.145435">
        <ele>387.371572</ele>
        <time>2021-11-20T18:26:21.446Z</time>
      </trkpt>
      <trkpt lat="47.438715" lon="8.144871">
        <ele>389.788061</ele>
        <time>2021-11-20T18:26:37.138Z</time>
      </trkpt>
      <trkpt lat="47.438758" lon="8.144614">
        <ele>390.894612</ele>
        <time>2021-11-20T18:26:44.937Z</time>
      </trkpt>
      <trkpt lat="47.438782" lon="8.144495">
        <ele>391.413631</ele>
        <time>2021-11-20T18:26:47.458Z</time>
      </trkpt>
      <trkpt lat="47.438782" lon="8.144495">
        <ele>391.413631</ele>
        <time>2021-11-20T18:26:47.573Z</time>
      </trkpt>
      <trkpt lat="47.438824" lon="8.144295">
        <ele>392.288926</ele>
        <time>2021-11-20T18:26:53.019Z</time>
      </trkpt>
      <trkpt lat="47.438937" lon="8.144018">
        <ele>393.640966</ele>
        <time>2021-11-20T18:27:01.653Z</time>
      </trkpt>
      <trkpt lat="47.439021" lon="8.143799">
        <ele>394.316275</ele>
        <time>2021-11-20T18:27:08.759Z</time>
      </trkpt>
      <trkpt lat="47.439124" lon="8.143531">
        <ele>395.031493</ele>
        <time>2021-11-20T18:27:16.014Z</time>
      </trkpt>
      <trkpt lat="47.439216" lon="8.143281">
        <ele>395.691867</ele>
        <time>2021-11-20T18:27:23.069Z</time>
      </trkpt>
      <trkpt lat="47.439344" lon="8.142648">
        <ele>397.224848</ele>
        <time>2021-11-20T18:27:36.713Z</time>
      </trkpt>
      <trkpt lat="47.439373" lon="8.142503">
        <ele>397.575690</ele>
        <time>2021-11-20T18:27:39.259Z</time>
      </trkpt>
      <trkpt lat="47.439410" lon="8.142333">
        <ele>397.990059</ele>
        <time>2021-11-20T18:27:42.733Z</time>
      </trkpt>
      <trkpt lat="47.439476" lon="8.142040">
        <ele>398.706613</ele>
        <time>2021-11-20T18:27:46.118Z</time>
      </trkpt>
      <trkpt lat="47.439553" lon="8.141724">
        <ele>399.485954</ele>
        <time>2021-11-20T18:27:51.357Z</time>
      </trkpt>
      <trkpt lat="47.439779" lon="8.140647">
        <ele>400.665990</ele>
        <time>2021-11-20T18:28:05.349Z</time>
      </trkpt>
      <trkpt lat="47.439918" lon="8.140057">
        <ele>401.117556</ele>
        <time>2021-11-20T18:28:13.459Z</time>
      </trkpt>
      <trkpt lat="47.439969" lon="8.139888">
        <ele>401.251311</ele>
        <time>2021-11-20T18:28:16.040Z</time>
      </trkpt>
      <trkpt lat="47.440259" lon="8.139001">
        <ele>401.971042</ele>
        <time>2021-11-20T18:28:28.491Z</time>
      </trkpt>
      <trkpt lat="47.440731" lon="8.137532">
        <ele>403.503572</ele>
        <time>2021-11-20T18:28:48.926Z</time>
      </trkpt>
      <trkpt lat="47.440960" lon="8.136820">
        <ele>404.246497</ele>
        <time>2021-11-20T18:29:01.245Z</time>
      </trkpt>
      <trkpt lat="47.441023" lon="8.136600">
        <ele>404.480038</ele>
        <time>2021-11-20T18:29:04.589Z</time>
      </trkpt>
      <trkpt lat="47.441048" lon="8.136493">
        <ele>404.619324</ele>
        <time>2021-11-20T18:29:07.043Z</time>
      </trkpt>
      <trkpt lat="47.441129" lon="8.136076">
        <ele>405.153137</ele>
        <time>2021-11-20T18:29:13.347Z</time>
      </trkpt>
      <trkpt lat="47.441151" lon="8.135898">
        <ele>405.375772</ele>
        <time>2021-11-20T18:29:16.882Z</time>
      </trkpt>
      <trkpt lat="47.441171" lon="8.135712">
        <ele>405.607498</ele>
        <time>2021-11-20T18:29:19.484Z</time>
      </trkpt>
      <trkpt lat="47.441179" lon="8.135579">
        <ele>405.771786</ele>
        <time>2021-11-20T18:29:21.469Z</time>
      </trkpt>
      <trkpt lat="47.441186" lon="8.135414">
        <ele>405.975199</ele>
        <time>2021-11-20T18:29:24.937Z</time>
      </trkpt>
      <trkpt lat="47.441218" lon="8.134425">
        <ele>407.193442</ele>
        <time>2021-11-20T18:29:39.337Z</time>
      </trkpt>
      <trkpt lat="47.441256" lon="8.133234">
        <ele>407.786217</ele>
        <time>2021-11-20T18:29:54.525Z</time>
      </trkpt>
      <trkpt lat="47.441285" lon="8.133039">
        <ele>407.804452</ele>
        <time>2021-11-20T18:29:57.412Z</time>
      </trkpt>
      <trkpt lat="47.441370" lon="8.132424">
        <ele>407.861782</ele>
        <time>2021-11-20T18:30:04.201Z</time>
      </trkpt>
      <trkpt lat="47.441373" lon="8.132396">
        <ele>407.864371</ele>
        <time>2021-11-20T18:30:04.380Z</time>
      </trkpt>
      <trkpt lat="47.441406" lon="8.131816">
        <ele>407.917531</ele>
        <time>2021-11-20T18:30:09.684Z</time>
      </trkpt>
      <trkpt lat="47.441442" lon="8.131718">
        <ele>407.927716</ele>
        <time>2021-11-20T18:30:10.437Z</time>
      </trkpt>
      <trkpt lat="47.441375" lon="8.131552">
        <ele>407.945371</ele>
        <time>2021-11-20T18:30:12.565Z</time>
      </trkpt>
      <trkpt lat="47.441088" lon="8.130997">
        <ele>407.734481</ele>
        <time>2021-11-20T18:30:17.988Z</time>
      </trkpt>
      <trkpt lat="47.441024" lon="8.130926">
        <ele>407.686135</ele>
        <time>2021-11-20T18:30:19.441Z</time>
      </trkpt>
      <trkpt lat="47.441000" lon="8.130897">
        <ele>407.667407</ele>
        <time>2021-11-20T18:30:19.724Z</time>
      </trkpt>
      <trkpt lat="47.440978" lon="8.130862">
        <ele>407.647880</ele>
        <time>2021-11-20T18:30:20.302Z</time>
      </trkpt>
      <trkpt lat="47.440943" lon="8.130809">
        <ele>407.617608</ele>
        <time>2021-11-20T18:30:21.118Z</time>
      </trkpt>
      <trkpt lat="47.440891" lon="8.130708">
        <ele>407.565734</ele>
        <time>2021-11-20T18:30:22.301Z</time>
      </trkpt>
      <trkpt lat="47.440840" lon="8.130492">
        <ele>407.472236</ele>
        <time>2021-11-20T18:30:24.519Z</time>
      </trkpt>
      <trkpt lat="47.440840" lon="8.130427">
        <ele>407.445673</ele>
        <time>2021-11-20T18:30:24.925Z</time>
      </trkpt>
      <trkpt lat="47.440963" lon="8.129769">
        <ele>407.166684</ele>
        <time>2021-11-20T18:30:32.025Z</time>
      </trkpt>
      <trkpt lat="47.440994" lon="8.129640">
        <ele>407.110737</ele>
        <time>2021-11-20T18:30:33.063Z</time>
      </trkpt>
      <trkpt lat="47.441146" lon="8.128500">
        <ele>407.106241</ele>
        <time>2021-11-20T18:30:43.376Z</time>
      </trkpt>
      <trkpt lat="47.441262" lon="8.127516">
        <ele>407.510497</ele>
        <time>2021-11-20T18:30:54.732Z</time>
      </trkpt>
      <trkpt lat="47.441277" lon="8.127183">
        <ele>407.645570</ele>
        <time>2021-11-20T18:30:58.610Z</time>
      </trkpt>
      <trkpt lat="47.441266" lon="8.126867">
        <ele>407.773633</ele>
        <time>2021-11-20T18:31:04.374Z</time>
      </trkpt>
      <trkpt lat="47.441238" lon="8.126576">
        <ele>407.892595</ele>
        <time>2021-11-20T18:31:07.843Z</time>
      </trkpt>
      <trkpt lat="47.441214" lon="8.126456">
        <ele>407.943241</ele>
        <time>2021-11-20T18:31:10.833Z</time>
      </trkpt>
      <trkpt lat="47.441104" lon="8.125606">
        <ele>408.951541</ele>
        <time>2021-11-20T18:31:20.740Z</time>
      </trkpt>
      <trkpt lat="47.441091" lon="8.125443">
        <ele>409.144676</ele>
        <time>2021-11-20T18:31:24.305Z</time>
      </trkpt>
      <trkpt lat="47.441081" lon="8.125303">
        <ele>409.310334</ele>
        <time>2021-11-20T18:31:25.944Z</time>
      </trkpt>
      <trkpt lat="47.441067" lon="8.125024">
        <ele>409.639544</ele>
        <time>2021-11-20T18:31:29.668Z</time>
      </trkpt>
      <trkpt lat="47.441063" lon="8.124846">
        <ele>409.849117</ele>
        <time>2021-11-20T18:31:33.646Z</time>
      </trkpt>
      <trkpt lat="47.441073" lon="8.124657">
        <ele>410.072198</ele>
        <time>2021-11-20T18:31:35.931Z</time>
      </trkpt>
      <trkpt lat="47.441181" lon="8.123600">
        <ele>411.224745</ele>
        <time>2021-11-20T18:31:52.803Z</time>
      </trkpt>
      <trkpt lat="47.441230" lon="8.123139">
        <ele>411.544516</ele>
        <time>2021-11-20T18:31:59.449Z</time>
      </trkpt>
      <trkpt lat="47.441253" lon="8.122860">
        <ele>411.737112</ele>
        <time>2021-11-20T18:32:03.151Z</time>
      </trkpt>
      <trkpt lat="47.441259" lon="8.122119">
        <ele>412.244908</ele>
        <time>2021-11-20T18:32:10.999Z</time>
      </trkpt>
      <trkpt lat="47.441260" lon="8.121851">
        <ele>412.428554</ele>
        <time>2021-11-20T18:32:14.558Z</time>
      </trkpt>
      <trkpt lat="47.441242" lon="8.121608">
        <ele>412.596062</ele>
        <time>2021-11-20T18:32:17.002Z</time>
      </trkpt>
      <trkpt lat="47.441185" lon="8.120992">
        <ele>412.997737</ele>
        <time>2021-11-20T18:32:24.792Z</time>
      </trkpt>
      <trkpt lat="47.441158" lon="8.120592">
        <ele>413.218176</ele>
        <time>2021-11-20T18:32:30.310Z</time>
      </trkpt>
      <trkpt lat="47.441147" lon="8.120369">
        <ele>413.340787</ele>
        <time>2021-11-20T18:32:33.250Z</time>
      </trkpt>
      <trkpt lat="47.441139" lon="8.120050">
        <ele>413.515838</ele>
        <time>2021-11-20T18:32:37.224Z</time>
      </trkpt>
      <trkpt lat="47.441148" lon="8.119325">
        <ele>413.913475</ele>
        <time>2021-11-20T18:32:45.946Z</time>
      </trkpt>
      <trkpt lat="47.441161" lon="8.118889">
        <ele>414.152797</ele>
        <time>2021-11-20T18:32:50.944Z</time>
      </trkpt>
      <trkpt lat="47.441160" lon="8.118632">
        <ele>414.293731</ele>
        <time>2021-11-20T18:32:53.959Z</time>
      </trkpt>
      <trkpt lat="47.441151" lon="8.118249">
        <ele>414.508590</ele>
        <time>2021-11-20T18:32:58.290Z</time>
      </trkpt>
      <trkpt lat="47.441143" lon="8.117969">
        <ele>414.667244</ele>
        <time>2021-11-20T18:33:01.738Z</time>
      </trkpt>
      <trkpt lat="47.441126" lon="8.117583">
        <ele>414.886228</ele>
        <time>2021-11-20T18:33:06.478Z</time>
      </trkpt>
      <trkpt lat="47.441072" lon="8.117175">
        <ele>415.121584</ele>
        <time>2021-11-20T18:33:11.463Z</time>
      </trkpt>
      <trkpt lat="47.441002" lon="8.116649">
        <ele>415.425072</ele>
        <time>2021-11-20T18:33:17.834Z</time>
      </trkpt>
      <trkpt lat="47.440589" lon="8.115040">
        <ele>417.050922</ele>
        <time>2021-11-20T18:33:40.512Z</time>
      </trkpt>
      <trkpt lat="47.440417" lon="8.114455">
        <ele>417.851513</ele>
        <time>2021-11-20T18:33:49.956Z</time>
      </trkpt>
      <trkpt lat="47.440342" lon="8.114157">
        <ele>418.250580</ele>
        <time>2021-11-20T18:33:55.122Z</time>
      </trkpt>
      <trkpt lat="47.440229" lon="8.113672">
        <ele>418.894398</ele>
        <time>2021-11-20T18:34:03.435Z</time>
      </trkpt>
      <trkpt lat="47.440053" lon="8.112608">
        <ele>420.993637</ele>
        <time>2021-11-20T18:34:22.967Z</time>
      </trkpt>
      <trkpt lat="47.439893" lon="8.111132">
        <ele>424.142966</ele>
        <time>2021-11-20T18:34:51.076Z</time>
      </trkpt>
      <trkpt lat="47.439868" lon="8.110864">
        <ele>424.712935</ele>
        <time>2021-11-20T18:34:56.471Z</time>
      </trkpt>
      <trkpt lat="47.439797" lon="8.110143">
        <ele>426.294766</ele>
        <time>2021-11-20T18:35:10.380Z</time>
      </trkpt>
      <trkpt lat="47.439783" lon="8.110028">
        <ele>426.548923</ele>
        <time>2021-11-20T18:35:12.588Z</time>
      </trkpt>
      <trkpt lat="47.439736" lon="8.109646">
        <ele>427.393452</ele>
        <time>2021-11-20T18:35:20.366Z</time>
      </trkpt>
      <trkpt lat="47.439627" lon="8.109005">
        <ele>428.831091</ele>
        <time>2021-11-20T18:35:32.841Z</time>
      </trkpt>
      <trkpt lat="47.439529" lon="8.108595">
        <ele>429.776940</ele>
        <time>2021-11-20T18:35:41.066Z</time>
      </trkpt>
      <trkpt lat="47.439446" lon="8.108296">
        <ele>430.479945</ele>
        <time>2021-11-20T18:35:46.400Z</time>
      </trkpt>
      <trkpt lat="47.439314" lon="8.107942">
        <ele>431.150591</ele>
        <time>2021-11-20T18:35:53.292Z</time>
      </trkpt>
      <trkpt lat="47.439207" lon="8.107635">
        <ele>431.698489</ele>
        <time>2021-11-20T18:35:59.384Z</time>
      </trkpt>
      <trkpt lat="47.438974" lon="8.106907">
        <ele>432.976199</ele>
        <time>2021-11-20T18:36:13.055Z</time>
      </trkpt>
      <trkpt lat="47.438899" lon="8.106626">
        <ele>433.455446</ele>
        <time>2021-11-20T18:36:18.274Z</time>
      </trkpt>
      <trkpt lat="47.438874" lon="8.106523">
        <ele>433.629053</ele>
        <time>2021-11-20T18:36:20.037Z</time>
      </trkpt>
      <trkpt lat="47.438818" lon="8.106296">
        <ele>434.012385</ele>
        <time>2021-11-20T18:36:23.823Z</time>
      </trkpt>
      <trkpt lat="47.438752" lon="8.106005">
        <ele>434.499307</ele>
        <time>2021-11-20T18:36:28.508Z</time>
      </trkpt>
      <trkpt lat="47.438729" lon="8.105870">
        <ele>434.720169</ele>
        <time>2021-11-20T18:36:30.516Z</time>
      </trkpt>
      <trkpt lat="47.438707" lon="8.105651">
        <ele>435.025679</ele>
        <time>2021-11-20T18:36:33.534Z</time>
      </trkpt>
      <trkpt lat="47.438700" lon="8.105458">
        <ele>435.279234</ele>
        <time>2021-11-20T18:36:36.130Z</time>
      </trkpt>
      <trkpt lat="47.438736" lon="8.105033">
        <ele>435.841136</ele>
        <time>2021-11-20T18:36:41.746Z</time>
      </trkpt>
      <trkpt lat="47.438760" lon="8.104786">
        <ele>436.168495</ele>
        <time>2021-11-20T18:36:45.155Z</time>
      </trkpt>
      <trkpt lat="47.438813" lon="8.104797">
        <ele>436.272300</ele>
        <time>2021-11-20T18:36:46.604Z</time>
      </trkpt>
      <trkpt lat="47.439073" lon="8.105954">
        <ele>437.871711</ele>
        <time>2021-11-20T18:37:08.008Z</time>
      </trkpt>
      <trkpt lat="47.439163" lon="8.106335">
        <ele>438.647099</ele>
        <time>2021-11-20T18:37:16.889Z</time>
      </trkpt>
      <trkpt lat="47.439185" lon="8.106426">
        <ele>439.069732</ele>
        <time>2021-11-20T18:37:18.986Z</time>
      </trkpt>
      <trkpt lat="47.439441" lon="8.107093">
        <ele>442.423667</ele>
        <time>2021-11-20T18:37:39.500Z</time>
      </trkpt>
      <trkpt lat="47.439678" lon="8.107507">
        <ele>444.795669</ele>
        <time>2021-11-20T18:37:56.184Z</time>
      </trkpt>
      <trkpt lat="47.439846" lon="8.107679">
        <ele>446.116954</ele>
        <time>2021-11-20T18:38:07.671Z</time>
      </trkpt>
      <trkpt lat="47.439907" lon="8.107724">
        <ele>446.557744</ele>
        <time>2021-11-20T18:38:10.631Z</time>
      </trkpt>
      <trkpt lat="47.440017" lon="8.107818">
        <ele>447.379246</ele>
        <time>2021-11-20T18:38:17.190Z</time>
      </trkpt>
      <trkpt lat="47.440127" lon="8.107870">
        <ele>448.125964</ele>
        <time>2021-11-20T18:38:24.461Z</time>
      </trkpt>
      <trkpt lat="47.440314" lon="8.107933">
        <ele>449.366078</ele>
        <time>2021-11-20T18:38:33.149Z</time>
      </trkpt>
      <trkpt lat="47.440469" lon="8.107972">
        <ele>450.637899</ele>
        <time>2021-11-20T18:38:43.362Z</time>
      </trkpt>
      <trkpt lat="47.440596" lon="8.107972">
        <ele>451.917487</ele>
        <time>2021-11-20T18:38:49.115Z</time>
      </trkpt>
      <trkpt lat="47.441060" lon="8.107957">
        <ele>456.593634</ele>
        <time>2021-11-20T18:39:18.095Z</time>
      </trkpt>
      <trkpt lat="47.441182" lon="8.107948">
        <ele>457.824374</ele>
        <time>2021-11-20T18:39:27.508Z</time>
      </trkpt>
      <trkpt lat="47.441720" lon="8.107942">
        <ele>463.245145</ele>
        <time>2021-11-20T18:39:59.664Z</time>
      </trkpt>
      <trkpt lat="47.442001" lon="8.108074">
        <ele>466.215815</ele>
        <time>2021-11-20T18:40:18.238Z</time>
      </trkpt>
      <trkpt lat="47.442160" lon="8.108211">
        <ele>468.072191</ele>
        <time>2021-11-20T18:40:29.166Z</time>
      </trkpt>
      <trkpt lat="47.442307" lon="8.108385">
        <ele>470.157135</ele>
        <time>2021-11-20T18:40:40.948Z</time>
      </trkpt>
      <trkpt lat="47.442446" lon="8.108490">
        <ele>471.885407</ele>
        <time>2021-11-20T18:40:50.297Z</time>
      </trkpt>
      <trkpt lat="47.442659" lon="8.108648">
        <ele>474.523958</ele>
        <time>2021-11-20T18:41:05.408Z</time>
      </trkpt>
      <trkpt lat="47.442971" lon="8.108644">
        <ele>477.978639</ele>
        <time>2021-11-20T18:41:23.889Z</time>
      </trkpt>
      <trkpt lat="47.443213" lon="8.108540">
        <ele>480.769015</ele>
        <time>2021-11-20T18:41:39.013Z</time>
      </trkpt>
      <trkpt lat="47.443350" lon="8.108462">
        <ele>482.394486</ele>
        <time>2021-11-20T18:41:49.673Z</time>
      </trkpt>
      <trkpt lat="47.444084" lon="8.108009">
        <ele>491.571987</ele>
        <time>2021-11-20T18:42:45.330Z</time>
      </trkpt>
      <trkpt lat="47.444311" lon="8.107879">
        <ele>494.576054</ele>
        <time>2021-11-20T18:43:03.404Z</time>
      </trkpt>
      <trkpt lat="47.444437" lon="8.107791">
        <ele>496.295685</ele>
        <time>2021-11-20T18:43:12.916Z</time>
      </trkpt>
      <trkpt lat="47.444547" lon="8.107680">
        <ele>497.939125</ele>
        <time>2021-11-20T18:43:23.245Z</time>
      </trkpt>
      <trkpt lat="47.444665" lon="8.107474">
        <ele>500.192190</ele>
        <time>2021-11-20T18:43:36.234Z</time>
      </trkpt>
      <trkpt lat="47.444721" lon="8.107308">
        <ele>501.740402</ele>
        <time>2021-11-20T18:43:46.649Z</time>
      </trkpt>
      <trkpt lat="47.444877" lon="8.106575">
        <ele>508.153690</ele>
        <time>2021-11-20T18:44:21.440Z</time>
      </trkpt>
      <trkpt lat="47.445222" lon="8.105663">
        <ele>514.998773</ele>
        <time>2021-11-20T18:45:06.281Z</time>
      </trkpt>
      <trkpt lat="47.445384" lon="8.104372">
        <ele>522.895818</ele>
        <time>2021-11-20T18:45:52.991Z</time>
      </trkpt>
      <trkpt lat="47.445516" lon="8.103896">
        <ele>525.989967</ele>
        <time>2021-11-20T18:46:10.318Z</time>
      </trkpt>
      <trkpt lat="47.445784" lon="8.103632">
        <ele>528.724651</ele>
        <time>2021-11-20T18:46:26.217Z</time>
      </trkpt>
      <trkpt lat="47.446337" lon="8.103649">
        <ele>533.408290</ele>
        <time>2021-11-20T18:46:54.768Z</time>
      </trkpt>
      <trkpt lat="47.446481" lon="8.103583">
        <ele>534.684868</ele>
        <time>2021-11-20T18:47:02.696Z</time>
      </trkpt>
      <trkpt lat="47.446540" lon="8.103496">
        <ele>535.390420</ele>
        <time>2021-11-20T18:47:06.979Z</time>
      </trkpt>
      <trkpt lat="47.446600" lon="8.103410">
        <ele>536.097994</ele>
        <time>2021-11-20T18:47:12.870Z</time>
      </trkpt>
      <trkpt lat="47.446555" lon="8.103111">
        <ele>537.852106</ele>
        <time>2021-11-20T18:47:23.998Z</time>
      </trkpt>
      <trkpt lat="47.446446" lon="8.102981">
        <ele>539.037891</ele>
        <time>2021-11-20T18:47:32.232Z</time>
      </trkpt>
      <trkpt lat="47.446418" lon="8.102948">
        <ele>539.341084</ele>
        <time>2021-11-20T18:47:34.525Z</time>
      </trkpt>
      <trkpt lat="47.446169" lon="8.102790">
        <ele>541.629260</ele>
        <time>2021-11-20T18:47:48.581Z</time>
      </trkpt>
      <trkpt lat="47.445915" lon="8.102630">
        <ele>543.909133</ele>
        <time>2021-11-20T18:48:06.102Z</time>
      </trkpt>
      <trkpt lat="47.445719" lon="8.102466">
        <ele>545.768826</ele>
        <time>2021-11-20T18:48:21.462Z</time>
      </trkpt>
      <trkpt lat="47.445541" lon="8.102255">
        <ele>547.652732</ele>
        <time>2021-11-20T18:48:32.383Z</time>
      </trkpt>
      <trkpt lat="47.445462" lon="8.102139">
        <ele>548.572108</ele>
        <time>2021-11-20T18:48:41.284Z</time>
      </trkpt>
      <trkpt lat="47.445293" lon="8.101950">
        <ele>550.321877</ele>
        <time>2021-11-20T18:48:49.961Z</time>
      </trkpt>
      <trkpt lat="47.444927" lon="8.101811">
        <ele>553.442324</ele>
        <time>2021-11-20T18:49:08.666Z</time>
      </trkpt>
      <trkpt lat="47.444868" lon="8.101755">
        <ele>554.021274</ele>
        <time>2021-11-20T18:49:13.653Z</time>
      </trkpt>
      <trkpt lat="47.444829" lon="8.101664">
        <ele>554.622935</ele>
        <time>2021-11-20T18:49:17.824Z</time>
      </trkpt>
      <trkpt lat="47.444798" lon="8.101417">
        <ele>556.025918</ele>
        <time>2021-11-20T18:49:23.885Z</time>
      </trkpt>
      <trkpt lat="47.444853" lon="8.101203">
        <ele>557.012561</ele>
        <time>2021-11-20T18:49:31.587Z</time>
      </trkpt>
      <trkpt lat="47.444888" lon="8.101135">
        <ele>557.359220</ele>
        <time>2021-11-20T18:49:34.296Z</time>
      </trkpt>
      <trkpt lat="47.445047" lon="8.101092">
        <ele>558.328785</ele>
        <time>2021-11-20T18:49:38.960Z</time>
      </trkpt>
      <trkpt lat="47.445358" lon="8.101030">
        <ele>560.211162</ele>
        <time>2021-11-20T18:49:54.714Z</time>
      </trkpt>
      <trkpt lat="47.445503" lon="8.101140">
        <ele>561.188719</ele>
        <time>2021-11-20T18:50:03.815Z</time>
      </trkpt>
      <trkpt lat="47.445750" lon="8.101336">
        <ele>562.870186</ele>
        <time>2021-11-20T18:50:12.465Z</time>
      </trkpt>
      <trkpt lat="47.446361" lon="8.101612">
        <ele>566.702404</ele>
        <time>2021-11-20T18:50:40.587Z</time>
      </trkpt>
      <trkpt lat="47.446445" lon="8.101608">
        <ele>567.307388</ele>
        <time>2021-11-20T18:50:43.422Z</time>
      </trkpt>
      <trkpt lat="47.446517" lon="8.101594">
        <ele>567.987186</ele>
        <time>2021-11-20T18:50:48.750Z</time>
      </trkpt>
      <trkpt lat="47.446695" lon="8.101455">
        <ele>569.871537</ele>
        <time>2021-11-20T18:50:56.250Z</time>
      </trkpt>
      <trkpt lat="47.446814" lon="8.101074">
        <ele>572.528328</ele>
        <time>2021-11-20T18:51:10.954Z</time>
      </trkpt>
      <trkpt lat="47.446765" lon="8.100748">
        <ele>574.642476</ele>
        <time>2021-11-20T18:51:24.357Z</time>
      </trkpt>
      <trkpt lat="47.446540" lon="8.100064">
        <ele>579.457721</ele>
        <time>2021-11-20T18:51:54.609Z</time>
      </trkpt>
      <trkpt lat="47.446463" lon="8.099344">
        <ele>584.131454</ele>
        <time>2021-11-20T18:52:27.603Z</time>
      </trkpt>
      <trkpt lat="47.446471" lon="8.098693">
        <ele>589.419119</ele>
        <time>2021-11-20T18:53:00.073Z</time>
      </trkpt>
      <trkpt lat="47.446494" lon="8.098088">
        <ele>594.340100</ele>
        <time>2021-11-20T18:53:29.298Z</time>
      </trkpt>
      <trkpt lat="47.446502" lon="8.097618">
        <ele>598.158192</ele>
        <time>2021-11-20T18:53:51.705Z</time>
      </trkpt>
      <trkpt lat="47.446518" lon="8.097394">
        <ele>599.987421</ele>
        <time>2021-11-20T18:54:01.657Z</time>
      </trkpt>
      <trkpt lat="47.446536" lon="8.097261">
        <ele>601.088933</ele>
        <time>2021-11-20T18:54:08.434Z</time>
      </trkpt>
      <trkpt lat="47.446686" lon="8.097097">
        <ele>603.329102</ele>
        <time>2021-11-20T18:54:20.448Z</time>
      </trkpt>
      <trkpt lat="47.446818" lon="8.096990">
        <ele>605.136764</ele>
        <time>2021-11-20T18:54:30.375Z</time>
      </trkpt>
      <trkpt lat="47.446857" lon="8.096977">
        <ele>605.570008</ele>
        <time>2021-11-20T18:54:33.746Z</time>
      </trkpt>
      <trkpt lat="47.447261" lon="8.097036">
        <ele>608.964265</ele>
        <time>2021-11-20T18:54:58.658Z</time>
      </trkpt>
      <trkpt lat="47.448390" lon="8.097811">
        <ele>619.371293</ele>
        <time>2021-11-20T18:56:04.268Z</time>
      </trkpt>
      <trkpt lat="47.448609" lon="8.098034">
        <ele>621.184100</ele>
        <time>2021-11-20T18:56:14.412Z</time>
      </trkpt>
      <trkpt lat="47.448732" lon="8.098162">
        <ele>621.969683</ele>
        <time>2021-11-20T18:56:20.870Z</time>
      </trkpt>
      <trkpt lat="47.448898" lon="8.098398">
        <ele>623.172435</ele>
        <time>2021-11-20T18:56:29.616Z</time>
      </trkpt>
      <trkpt lat="47.449094" lon="8.098917">
        <ele>625.272083</ele>
        <time>2021-11-20T18:56:46.295Z</time>
      </trkpt>
      <trkpt lat="47.449172" lon="8.099049">
        <ele>625.891240</ele>
        <time>2021-11-20T18:56:50.758Z</time>
      </trkpt>
      <trkpt lat="47.449289" lon="8.099119">
        <ele>626.550466</ele>
        <time>2021-11-20T18:56:55.758Z</time>
      </trkpt>
      <trkpt lat="47.449419" lon="8.099114">
        <ele>627.229701</ele>
        <time>2021-11-20T18:57:01.532Z</time>
      </trkpt>
      <trkpt lat="47.449730" lon="8.099057">
        <ele>628.866519</ele>
        <time>2021-11-20T18:57:19.213Z</time>
      </trkpt>
      <trkpt lat="47.450335" lon="8.099063">
        <ele>631.782434</ele>
        <time>2021-11-20T18:57:52.107Z</time>
      </trkpt>
      <trkpt lat="47.450346" lon="8.099071">
        <ele>631.839125</ele>
        <time>2021-11-20T18:57:53.474Z</time>
      </trkpt>
      <trkpt lat="47.451072" lon="8.099594">
        <ele>635.573881</ele>
        <time>2021-11-20T18:58:42.258Z</time>
      </trkpt>
      <trkpt lat="47.451809" lon="8.099983">
        <ele>638.570143</ele>
        <time>2021-11-20T18:59:20.276Z</time>
      </trkpt>
      <trkpt lat="47.452046" lon="8.100178">
        <ele>639.026655</ele>
        <time>2021-11-20T18:59:34.452Z</time>
      </trkpt>
      <trkpt lat="47.452383" lon="8.100515">
        <ele>639.711417</ele>
        <time>2021-11-20T18:59:54.931Z</time>
      </trkpt>
      <trkpt lat="47.452462" lon="8.100606">
        <ele>639.879971</ele>
        <time>2021-11-20T18:59:57.445Z</time>
      </trkpt>
      <trkpt lat="47.452547" lon="8.100436">
        <ele>640.120616</ele>
        <time>2021-11-20T19:00:07.179Z</time>
      </trkpt>
      <trkpt lat="47.452621" lon="8.100146">
        <ele>640.473414</ele>
        <time>2021-11-20T19:00:14.462Z</time>
      </trkpt>
      <trkpt lat="47.452628" lon="8.099741">
        <ele>640.934534</ele>
        <time>2021-11-20T19:00:29.734Z</time>
      </trkpt>
      <trkpt lat="47.452550" lon="8.098497">
        <ele>638.619794</ele>
        <time>2021-11-20T19:00:55.211Z</time>
      </trkpt>
      <trkpt lat="47.452540" lon="8.098021">
        <ele>637.345634</ele>
        <time>2021-11-20T19:01:04.691Z</time>
      </trkpt>
      <trkpt lat="47.452427" lon="8.097435">
        <ele>635.715274</ele>
        <time>2021-11-20T19:01:10.225Z</time>
      </trkpt>
      <trkpt lat="47.452289" lon="8.096834">
        <ele>633.930205</ele>
        <time>2021-11-20T19:01:15.806Z</time>
      </trkpt>
      <trkpt lat="47.452224" lon="8.096532">
        <ele>632.396934</ele>
        <time>2021-11-20T19:01:18.548Z</time>
      </trkpt>
      <trkpt lat="47.452165" lon="8.096250">
        <ele>630.968835</ele>
        <time>2021-11-20T19:01:23.579Z</time>
      </trkpt>
      <trkpt lat="47.451946" lon="8.095203">
        <ele>625.666735</ele>
        <time>2021-11-20T19:01:42.254Z</time>
      </trkpt>
      <trkpt lat="47.451813" lon="8.094131">
        <ele>620.841560</ele>
        <time>2021-11-20T19:02:01.232Z</time>
      </trkpt>
      <trkpt lat="47.451856" lon="8.093496">
        <ele>619.356876</ele>
        <time>2021-11-20T19:02:14.507Z</time>
      </trkpt>
      <trkpt lat="47.451992" lon="8.092939">
        <ele>617.979160</ele>
        <time>2021-11-20T19:02:27.010Z</time>
      </trkpt>
      <trkpt lat="47.452039" lon="8.092803">
        <ele>617.623839</ele>
        <time>2021-11-20T19:02:29.862Z</time>
      </trkpt>
      <trkpt lat="47.452144" lon="8.092529">
        <ele>616.891151</ele>
        <time>2021-11-20T19:02:36.709Z</time>
      </trkpt>
      <trkpt lat="47.452185" lon="8.092377">
        <ele>616.510437</ele>
        <time>2021-11-20T19:02:40.035Z</time>
      </trkpt>
      <trkpt lat="47.452299" lon="8.092109">
        <ele>615.773851</ele>
        <time>2021-11-20T19:02:46.583Z</time>
      </trkpt>
      <trkpt lat="47.452406" lon="8.091960">
        <ele>615.268209</ele>
        <time>2021-11-20T19:02:51.092Z</time>
      </trkpt>
      <trkpt lat="47.452552" lon="8.091846">
        <ele>614.194443</ele>
        <time>2021-11-20T19:02:53.567Z</time>
      </trkpt>
      <trkpt lat="47.452687" lon="8.091702">
        <ele>612.834649</ele>
        <time>2021-11-20T19:02:56.242Z</time>
      </trkpt>
      <trkpt lat="47.452885" lon="8.091073">
        <ele>609.001988</ele>
        <time>2021-11-20T19:03:08.885Z</time>
      </trkpt>
      <trkpt lat="47.453084" lon="8.090459">
        <ele>605.240772</ele>
        <time>2021-11-20T19:03:20.876Z</time>
      </trkpt>
      <trkpt lat="47.453427" lon="8.089778">
        <ele>600.550049</ele>
        <time>2021-11-20T19:03:34.469Z</time>
      </trkpt>
      <trkpt lat="47.453614" lon="8.089441">
        <ele>595.801802</ele>
        <time>2021-11-20T19:03:41.270Z</time>
      </trkpt>
      <trkpt lat="47.453817" lon="8.089139">
        <ele>590.984089</ele>
        <time>2021-11-20T19:03:47.790Z</time>
      </trkpt>
      <trkpt lat="47.453949" lon="8.088877">
        <ele>587.287590</ele>
        <time>2021-11-20T19:03:52.800Z</time>
      </trkpt>
      <trkpt lat="47.454007" lon="8.088592">
        <ele>583.920341</ele>
        <time>2021-11-20T19:03:57.385Z</time>
      </trkpt>
      <trkpt lat="47.454014" lon="8.088492">
        <ele>582.782934</ele>
        <time>2021-11-20T19:03:58.891Z</time>
      </trkpt>
      <trkpt lat="47.454055" lon="8.088369">
        <ele>581.231462</ele>
        <time>2021-11-20T19:04:01.041Z</time>
      </trkpt>
      <trkpt lat="47.454367" lon="8.088192">
        <ele>575.640296</ele>
        <time>2021-11-20T19:04:08.576Z</time>
      </trkpt>
      <trkpt lat="47.454440" lon="8.088070">
        <ele>573.797221</ele>
        <time>2021-11-20T19:04:11.076Z</time>
      </trkpt>
      <trkpt lat="47.454505" lon="8.087849">
        <ele>571.070648</ele>
        <time>2021-11-20T19:04:14.712Z</time>
      </trkpt>
      <trkpt lat="47.454576" lon="8.087620">
        <ele>568.845079</ele>
        <time>2021-11-20T19:04:16.703Z</time>
      </trkpt>
      <trkpt lat="47.454752" lon="8.087222">
        <ele>565.096243</ele>
        <time>2021-11-20T19:04:20.471Z</time>
      </trkpt>
      <trkpt lat="47.455192" lon="8.086692">
        <ele>558.480421</ele>
        <time>2021-11-20T19:04:27.240Z</time>
      </trkpt>
      <trkpt lat="47.455443" lon="8.086426">
        <ele>554.880458</ele>
        <time>2021-11-20T19:04:30.993Z</time>
      </trkpt>
      <trkpt lat="47.455713" lon="8.086247">
        <ele>551.430913</ele>
        <time>2021-11-20T19:04:34.642Z</time>
      </trkpt>
      <trkpt lat="47.455929" lon="8.086169">
        <ele>548.963583</ele>
        <time>2021-11-20T19:04:37.567Z</time>
      </trkpt>
      <trkpt lat="47.456058" lon="8.086163">
        <ele>547.856516</ele>
        <time>2021-11-20T19:04:39.279Z</time>
      </trkpt>
      <trkpt lat="47.456335" lon="8.086211">
        <ele>545.464248</ele>
        <time>2021-11-20T19:04:42.960Z</time>
      </trkpt>
      <trkpt lat="47.456732" lon="8.086172">
        <ele>542.051409</ele>
        <time>2021-11-20T19:04:48.000Z</time>
      </trkpt>
      <trkpt lat="47.457101" lon="8.086047">
        <ele>538.804285</ele>
        <time>2021-11-20T19:04:52.708Z</time>
      </trkpt>
      <trkpt lat="47.457844" lon="8.085524">
        <ele>531.368297</ele>
        <time>2021-11-20T19:05:02.706Z</time>
      </trkpt>
      <trkpt lat="47.458074" lon="8.085331">
        <ele>528.699023</ele>
        <time>2021-11-20T19:05:05.896Z</time>
      </trkpt>
      <trkpt lat="47.458174" lon="8.085121">
        <ele>526.946014</ele>
        <time>2021-11-20T19:05:07.973Z</time>
      </trkpt>
      <trkpt lat="47.458370" lon="8.084552">
        <ele>522.587731</ele>
        <time>2021-11-20T19:05:13.226Z</time>
      </trkpt>
      <trkpt lat="47.458485" lon="8.084264">
        <ele>520.304989</ele>
        <time>2021-11-20T19:05:15.956Z</time>
      </trkpt>
      <trkpt lat="47.458600" lon="8.084069">
        <ele>518.539021</ele>
        <time>2021-11-20T19:05:18.089Z</time>
      </trkpt>
      <trkpt lat="47.458780" lon="8.083846">
        <ele>516.168890</ele>
        <time>2021-11-20T19:05:20.925Z</time>
      </trkpt>
      <trkpt lat="47.458959" lon="8.083721">
        <ele>514.878273</ele>
        <time>2021-11-20T19:05:23.410Z</time>
      </trkpt>
      <trkpt lat="47.459355" lon="8.083651">
        <ele>512.682263</ele>
        <time>2021-11-20T19:05:28.547Z</time>
      </trkpt>
      <trkpt lat="47.459674" lon="8.083680">
        <ele>510.922441</ele>
        <time>2021-11-20T19:05:32.970Z</time>
      </trkpt>
      <trkpt lat="47.459853" lon="8.083756">
        <ele>509.897008</ele>
        <time>2021-11-20T19:05:35.507Z</time>
      </trkpt>
      <trkpt lat="47.460206" lon="8.083943">
        <ele>507.832376</ele>
        <time>2021-11-20T19:05:40.955Z</time>
      </trkpt>
      <trkpt lat="47.460689" lon="8.084064">
        <ele>505.040252</ele>
        <time>2021-11-20T19:05:47.837Z</time>
      </trkpt>
      <trkpt lat="47.461288" lon="8.084046">
        <ele>501.287589</ele>
        <time>2021-11-20T19:05:55.942Z</time>
      </trkpt>
      <trkpt lat="47.461543" lon="8.084041">
        <ele>499.690233</ele>
        <time>2021-11-20T19:05:59.397Z</time>
      </trkpt>
      <trkpt lat="47.461704" lon="8.084025">
        <ele>498.679522</ele>
        <time>2021-11-20T19:06:01.416Z</time>
      </trkpt>
      <trkpt lat="47.462086" lon="8.084041">
        <ele>496.285872</ele>
        <time>2021-11-20T19:06:06.282Z</time>
      </trkpt>
      <trkpt lat="47.462537" lon="8.084155">
        <ele>493.146259</ele>
        <time>2021-11-20T19:06:11.984Z</time>
      </trkpt>
      <trkpt lat="47.463130" lon="8.084333">
        <ele>488.444074</ele>
        <time>2021-11-20T19:06:19.425Z</time>
      </trkpt>
      <trkpt lat="47.463805" lon="8.084529">
        <ele>483.098475</ele>
        <time>2021-11-20T19:06:28.157Z</time>
      </trkpt>
      <trkpt lat="47.463971" lon="8.084597">
        <ele>481.759920</ele>
        <time>2021-11-20T19:06:30.370Z</time>
      </trkpt>
      <trkpt lat="47.464419" lon="8.084815">
        <ele>479.246754</ele>
        <time>2021-11-20T19:06:36.540Z</time>
      </trkpt>
      <trkpt lat="47.464774" lon="8.084973">
        <ele>477.701040</ele>
        <time>2021-11-20T19:06:41.620Z</time>
      </trkpt>
      <trkpt lat="47.464937" lon="8.085050">
        <ele>476.987600</ele>
        <time>2021-11-20T19:06:43.953Z</time>
      </trkpt>
      <trkpt lat="47.465099" lon="8.085104">
        <ele>476.295208</ele>
        <time>2021-11-20T19:06:46.372Z</time>
      </trkpt>
      <trkpt lat="47.465460" lon="8.085074">
        <ele>474.787655</ele>
        <time>2021-11-20T19:06:51.723Z</time>
      </trkpt>
      <trkpt lat="47.465655" lon="8.085165">
        <ele>473.935107</ele>
        <time>2021-11-20T19:06:54.746Z</time>
      </trkpt>
      <trkpt lat="47.465714" lon="8.085219">
        <ele>473.645826</ele>
        <time>2021-11-20T19:06:55.726Z</time>
      </trkpt>
      <trkpt lat="47.465715" lon="8.085396">
        <ele>473.146900</ele>
        <time>2021-11-20T19:06:57.683Z</time>
      </trkpt>
      <trkpt lat="47.465762" lon="8.085475">
        <ele>472.935142</ele>
        <time>2021-11-20T19:06:58.736Z</time>
      </trkpt>
      <trkpt lat="47.465899" lon="8.085583">
        <ele>472.526173</ele>
        <time>2021-11-20T19:07:00.969Z</time>
      </trkpt>
      <trkpt lat="47.466078" lon="8.085633">
        <ele>472.046278</ele>
        <time>2021-11-20T19:07:03.873Z</time>
      </trkpt>
      <trkpt lat="47.466123" lon="8.085646">
        <ele>471.925489</ele>
        <time>2021-11-20T19:07:04.487Z</time>
      </trkpt>
      <trkpt lat="47.466871" lon="8.085735">
        <ele>469.948578</ele>
        <time>2021-11-20T19:07:15.926Z</time>
      </trkpt>
      <trkpt lat="47.466978" lon="8.085740">
        <ele>469.666554</ele>
        <time>2021-11-20T19:07:17.465Z</time>
      </trkpt>
      <trkpt lat="47.467107" lon="8.085730">
        <ele>469.326247</ele>
        <time>2021-11-20T19:07:19.556Z</time>
      </trkpt>
      <trkpt lat="47.467360" lon="8.085700">
        <ele>468.657601</ele>
        <time>2021-11-20T19:07:23.356Z</time>
      </trkpt>
      <trkpt lat="47.467423" lon="8.085681">
        <ele>468.488218</ele>
        <time>2021-11-20T19:07:24.354Z</time>
      </trkpt>
      <trkpt lat="47.467666" lon="8.085607">
        <ele>467.862872</ele>
        <time>2021-11-20T19:07:28.060Z</time>
      </trkpt>
      <trkpt lat="47.468410" lon="8.085335">
        <ele>465.956187</ele>
        <time>2021-11-20T19:07:39.568Z</time>
      </trkpt>
      <trkpt lat="47.468855" lon="8.085090">
        <ele>464.774883</ele>
        <time>2021-11-20T19:07:46.927Z</time>
      </trkpt>
      <trkpt lat="47.469201" lon="8.084715">
        <ele>463.696948</ele>
        <time>2021-11-20T19:07:53.571Z</time>
      </trkpt>
      <trkpt lat="47.469271" lon="8.084606">
        <ele>463.426984</ele>
        <time>2021-11-20T19:07:55.053Z</time>
      </trkpt>
      <trkpt lat="47.469474" lon="8.084350">
        <ele>462.718420</ele>
        <time>2021-11-20T19:07:59.241Z</time>
      </trkpt>
      <trkpt lat="47.470120" lon="8.083775">
        <ele>460.715801</ele>
        <time>2021-11-20T19:08:10.557Z</time>
      </trkpt>
      <trkpt lat="47.471176" lon="8.082983">
        <ele>457.495043</ele>
        <time>2021-11-20T19:08:28.041Z</time>
      </trkpt>
      <trkpt lat="47.471499" lon="8.082733">
        <ele>456.478387</ele>
        <time>2021-11-20T19:08:33.479Z</time>
      </trkpt>
      <trkpt lat="47.471817" lon="8.082485">
        <ele>455.475832</ele>
        <time>2021-11-20T19:08:38.893Z</time>
      </trkpt>
      <trkpt lat="47.472080" lon="8.082388">
        <ele>454.719900</ele>
        <time>2021-11-20T19:08:43.102Z</time>
      </trkpt>
      <trkpt lat="47.472182" lon="8.082379">
        <ele>454.434927</ele>
        <time>2021-11-20T19:08:44.552Z</time>
      </trkpt>
      <trkpt lat="47.472243" lon="8.082374">
        <ele>454.264543</ele>
        <time>2021-11-20T19:08:45.438Z</time>
      </trkpt>
      <trkpt lat="47.472467" lon="8.082423">
        <ele>453.655965</ele>
        <time>2021-11-20T19:08:48.966Z</time>
      </trkpt>
      <trkpt lat="47.473259" lon="8.082972">
        <ele>451.343654</ele>
        <time>2021-11-20T19:09:01.921Z</time>
      </trkpt>
      <trkpt lat="47.473472" lon="8.083074">
        <ele>450.751766</ele>
        <time>2021-11-20T19:09:05.466Z</time>
      </trkpt>
      <trkpt lat="47.473676" lon="8.083091">
        <ele>450.211583</ele>
        <time>2021-11-20T19:09:08.431Z</time>
      </trkpt>
      <trkpt lat="47.473894" lon="8.083088">
        <ele>449.635216</ele>
        <time>2021-11-20T19:09:12.045Z</time>
      </trkpt>
      <trkpt lat="47.474251" lon="8.083086">
        <ele>448.554620</ele>
        <time>2021-11-20T19:09:17.675Z</time>
      </trkpt>
      <trkpt lat="47.474348" lon="8.083085">
        <ele>448.242234</ele>
        <time>2021-11-20T19:09:19.094Z</time>
      </trkpt>
      <trkpt lat="47.474963" lon="8.083258">
        <ele>446.226213</ele>
        <time>2021-11-20T19:09:27.684Z</time>
      </trkpt>
      <trkpt lat="47.475100" lon="8.083306">
        <ele>445.772817</ele>
        <time>2021-11-20T19:09:29.632Z</time>
      </trkpt>
      <trkpt lat="47.475215" lon="8.083355">
        <ele>445.387419</ele>
        <time>2021-11-20T19:09:32.738Z</time>
      </trkpt>
      <trkpt lat="47.475254" lon="8.083373">
        <ele>445.255854</ele>
        <time>2021-11-20T19:09:33.221Z</time>
      </trkpt>
      <trkpt lat="47.475513" lon="8.083417">
        <ele>444.416293</ele>
        <time>2021-11-20T19:09:37.337Z</time>
      </trkpt>
      <trkpt lat="47.475639" lon="8.083505">
        <ele>443.967585</ele>
        <time>2021-11-20T19:09:39.310Z</time>
      </trkpt>
      <trkpt lat="47.475842" lon="8.083634">
        <ele>443.348966</ele>
        <time>2021-11-20T19:09:42.746Z</time>
      </trkpt>
      <trkpt lat="47.475902" lon="8.083659">
        <ele>443.217271</ele>
        <time>2021-11-20T19:09:44.183Z</time>
      </trkpt>
      <trkpt lat="47.475914" lon="8.083632">
        <ele>443.171127</ele>
        <time>2021-11-20T19:09:44.363Z</time>
      </trkpt>
      <trkpt lat="47.475976" lon="8.083576">
        <ele>443.017657</ele>
        <time>2021-11-20T19:09:45.807Z</time>
      </trkpt>
      <trkpt lat="47.476183" lon="8.083476">
        <ele>442.557599</ele>
        <time>2021-11-20T19:09:48.305Z</time>
      </trkpt>
      <trkpt lat="47.476458" lon="8.083344">
        <ele>441.946787</ele>
        <time>2021-11-20T19:09:51.193Z</time>
      </trkpt>
      <trkpt lat="47.476520" lon="8.083301">
        <ele>441.802120</ele>
        <time>2021-11-20T19:09:52.982Z</time>
      </trkpt>
      <trkpt lat="47.476582" lon="8.083243">
        <ele>441.647144</ele>
        <time>2021-11-20T19:09:53.629Z</time>
      </trkpt>
      <trkpt lat="47.476627" lon="8.083189">
        <ele>441.524731</ele>
        <time>2021-11-20T19:09:54.956Z</time>
      </trkpt>
      <trkpt lat="47.476671" lon="8.083122">
        <ele>441.391333</ele>
        <time>2021-11-20T19:09:55.642Z</time>
      </trkpt>
      <trkpt lat="47.476711" lon="8.083045">
        <ele>441.252655</ele>
        <time>2021-11-20T19:09:56.289Z</time>
      </trkpt>
      <trkpt lat="47.476862" lon="8.082473">
        <ele>440.375765</ele>
        <time>2021-11-20T19:10:00.898Z</time>
      </trkpt>
      <trkpt lat="47.476884" lon="8.082262">
        <ele>440.070900</ele>
        <time>2021-11-20T19:10:02.344Z</time>
      </trkpt>
      <trkpt lat="47.477235" lon="8.082227">
        <ele>439.468575</ele>
        <time>2021-11-20T19:10:06.728Z</time>
      </trkpt>
      <trkpt lat="47.477544" lon="8.082234">
        <ele>439.046609</ele>
        <time>2021-11-20T19:10:12.643Z</time>
      </trkpt>
      <trkpt lat="47.477616" lon="8.082223">
        <ele>438.947776</ele>
        <time>2021-11-20T19:10:13.493Z</time>
      </trkpt>
      <trkpt lat="47.477722" lon="8.082181">
        <ele>438.797941</ele>
        <time>2021-11-20T19:10:14.691Z</time>
      </trkpt>
      <trkpt lat="47.477822" lon="8.082067">
        <ele>438.625569</ele>
        <time>2021-11-20T19:10:16.080Z</time>
      </trkpt>
      <trkpt lat="47.478231" lon="8.081453">
        <ele>437.829989</ele>
        <time>2021-11-20T19:10:22.857Z</time>
      </trkpt>
      <trkpt lat="47.478462" lon="8.081099">
        <ele>437.375885</ele>
        <time>2021-11-20T19:10:26.636Z</time>
      </trkpt>
      <trkpt lat="47.479043" lon="8.080208">
        <ele>435.627119</ele>
        <time>2021-11-20T19:10:35.619Z</time>
      </trkpt>
      <trkpt lat="47.479342" lon="8.079816">
        <ele>434.762719</ele>
        <time>2021-11-20T19:10:39.874Z</time>
      </trkpt>
      <trkpt lat="47.479645" lon="8.079484">
        <ele>433.946903</ele>
        <time>2021-11-20T19:10:43.924Z</time>
      </trkpt>
      <trkpt lat="47.479948" lon="8.079192">
        <ele>433.232797</ele>
        <time>2021-11-20T19:10:47.903Z</time>
      </trkpt>
      <trkpt lat="47.480493" lon="8.078716">
        <ele>432.300874</ele>
        <time>2021-11-20T19:10:54.957Z</time>
      </trkpt>
      <trkpt lat="47.480717" lon="8.078508">
        <ele>431.911450</ele>
        <time>2021-11-20T19:10:57.951Z</time>
      </trkpt>
      <trkpt lat="47.481210" lon="8.078069">
        <ele>431.064160</ele>
        <time>2021-11-20T19:11:04.948Z</time>
      </trkpt>
      <trkpt lat="47.481574" lon="8.077775">
        <ele>430.427357</ele>
        <time>2021-11-20T19:11:10.290Z</time>
      </trkpt>
      <trkpt lat="47.481888" lon="8.077545">
        <ele>429.862604</ele>
        <time>2021-11-20T19:11:14.630Z</time>
      </trkpt>
      <trkpt lat="47.482606" lon="8.077102">
        <ele>428.608688</ele>
        <time>2021-11-20T19:11:23.444Z</time>
      </trkpt>
      <trkpt lat="47.482846" lon="8.076901">
        <ele>428.164170</ele>
        <time>2021-11-20T19:11:26.403Z</time>
      </trkpt>
      <trkpt lat="47.483204" lon="8.076386">
        <ele>427.078485</ele>
        <time>2021-11-20T19:11:31.700Z</time>
      </trkpt>
      <trkpt lat="47.483442" lon="8.075992">
        <ele>426.159670</ele>
        <time>2021-11-20T19:11:35.490Z</time>
      </trkpt>
      <trkpt lat="47.483708" lon="8.075503">
        <ele>425.068245</ele>
        <time>2021-11-20T19:11:39.851Z</time>
      </trkpt>
      <trkpt lat="47.483940" lon="8.075218">
        <ele>424.292480</ele>
        <time>2021-11-20T19:11:42.970Z</time>
      </trkpt>
      <trkpt lat="47.484460" lon="8.074477">
        <ele>422.745194</ele>
        <time>2021-11-20T19:11:50.551Z</time>
      </trkpt>
      <trkpt lat="47.484546" lon="8.074390">
        <ele>422.585388</ele>
        <time>2021-11-20T19:11:51.639Z</time>
      </trkpt>
      <trkpt lat="47.484749" lon="8.074215">
        <ele>422.224997</ele>
        <time>2021-11-20T19:11:54.288Z</time>
      </trkpt>
      <trkpt lat="47.485670" lon="8.073279">
        <ele>420.511084</ele>
        <time>2021-11-20T19:12:07.671Z</time>
      </trkpt>
      <trkpt lat="47.485914" lon="8.073024">
        <ele>420.339973</ele>
        <time>2021-11-20T19:12:11.348Z</time>
      </trkpt>
      <trkpt lat="47.486053" lon="8.072916">
        <ele>420.275953</ele>
        <time>2021-11-20T19:12:13.373Z</time>
      </trkpt>
      <trkpt lat="47.486697" lon="8.072574">
        <ele>419.996944</ele>
        <time>2021-11-20T19:12:22.516Z</time>
      </trkpt>
      <trkpt lat="47.487572" lon="8.071962">
        <ele>419.647550</ele>
        <time>2021-11-20T19:12:36.892Z</time>
      </trkpt>
      <trkpt lat="47.487825" lon="8.071796">
        <ele>419.581908</ele>
        <time>2021-11-20T19:12:41.142Z</time>
      </trkpt>
      <trkpt lat="47.488398" lon="8.071466">
        <ele>419.436070</ele>
        <time>2021-11-20T19:12:50.617Z</time>
      </trkpt>
      <trkpt lat="47.489580" lon="8.070655">
        <ele>418.487386</ele>
        <time>2021-11-20T19:13:07.192Z</time>
      </trkpt>
      <trkpt lat="47.490102" lon="8.070230">
        <ele>417.769656</ele>
        <time>2021-11-20T19:13:14.206Z</time>
      </trkpt>
      <trkpt lat="47.490253" lon="8.070056">
        <ele>417.539108</ele>
        <time>2021-11-20T19:13:16.288Z</time>
      </trkpt>
      <trkpt lat="47.490515" lon="8.069809">
        <ele>417.164879</ele>
        <time>2021-11-20T19:13:19.839Z</time>
      </trkpt>
      <trkpt lat="47.490739" lon="8.069606">
        <ele>416.694831</ele>
        <time>2021-11-20T19:13:22.921Z</time>
      </trkpt>
      <trkpt lat="47.492282" lon="8.068118">
        <ele>413.030754</ele>
        <time>2021-11-20T19:13:43.299Z</time>
      </trkpt>
      <trkpt lat="47.492751" lon="8.067366">
        <ele>411.262340</ele>
        <time>2021-11-20T19:13:50.494Z</time>
      </trkpt>
      <trkpt lat="47.493032" lon="8.066764">
        <ele>409.997985</ele>
        <time>2021-11-20T19:13:55.672Z</time>
      </trkpt>
      <trkpt lat="47.493208" lon="8.066419">
        <ele>409.250985</ele>
        <time>2021-11-20T19:13:58.668Z</time>
      </trkpt>
      <trkpt lat="47.493543" lon="8.065948">
        <ele>408.118479</ele>
        <time>2021-11-20T19:14:03.503Z</time>
      </trkpt>
      <trkpt lat="47.493759" lon="8.065762">
        <ele>407.509553</ele>
        <time>2021-11-20T19:14:06.079Z</time>
      </trkpt>
      <trkpt lat="47.494846" lon="8.065397">
        <ele>404.793572</ele>
        <time>2021-11-20T19:14:18.068Z</time>
      </trkpt>
      <trkpt lat="47.495120" lon="8.065246">
        <ele>403.864803</ele>
        <time>2021-11-20T19:14:21.260Z</time>
      </trkpt>
      <trkpt lat="47.495626" lon="8.064806">
        <ele>401.956837</ele>
        <time>2021-11-20T19:14:27.454Z</time>
      </trkpt>
      <trkpt lat="47.496545" lon="8.063506">
        <ele>397.372960</ele>
        <time>2021-11-20T19:14:39.901Z</time>
      </trkpt>
      <trkpt lat="47.497823" lon="8.061938">
        <ele>390.034541</ele>
        <time>2021-11-20T19:14:55.560Z</time>
      </trkpt>
      <trkpt lat="47.498382" lon="8.061234">
        <ele>388.052081</ele>
        <time>2021-11-20T19:15:02.875Z</time>
      </trkpt>
      <trkpt lat="47.498687" lon="8.060849">
        <ele>386.969373</ele>
        <time>2021-11-20T19:15:07.209Z</time>
      </trkpt>
      <trkpt lat="47.498745" lon="8.060776">
        <ele>386.763734</ele>
        <time>2021-11-20T19:15:08.083Z</time>
      </trkpt>
      <trkpt lat="47.499412" lon="8.059771">
        <ele>385.429317</ele>
        <time>2021-11-20T19:15:20.388Z</time>
      </trkpt>
      <trkpt lat="47.499896" lon="8.058937">
        <ele>385.091163</ele>
        <time>2021-11-20T19:15:33.002Z</time>
      </trkpt>
      <trkpt lat="47.500311" lon="8.058239">
        <ele>384.551842</ele>
        <time>2021-11-20T19:15:40.882Z</time>
      </trkpt>
      <trkpt lat="47.500413" lon="8.058068">
        <ele>384.163866</ele>
        <time>2021-11-20T19:15:42.509Z</time>
      </trkpt>
      <trkpt lat="47.500613" lon="8.057724">
        <ele>383.391968</ele>
        <time>2021-11-20T19:15:45.828Z</time>
      </trkpt>
      <trkpt lat="47.500657" lon="8.057647">
        <ele>383.220442</ele>
        <time>2021-11-20T19:15:46.527Z</time>
      </trkpt>
      <trkpt lat="47.500865" lon="8.057376">
        <ele>382.522844</ele>
        <time>2021-11-20T19:15:49.449Z</time>
      </trkpt>
      <trkpt lat="47.501083" lon="8.057348">
        <ele>381.971963</ele>
        <time>2021-11-20T19:15:51.772Z</time>
      </trkpt>
      <trkpt lat="47.501197" lon="8.057405">
        <ele>381.669034</ele>
        <time>2021-11-20T19:15:52.990Z</time>
      </trkpt>
      <trkpt lat="47.501190" lon="8.057442">
        <ele>381.603685</ele>
        <time>2021-11-20T19:15:53.219Z</time>
      </trkpt>
      <trkpt lat="47.501236" lon="8.057572">
        <ele>381.354093</ele>
        <time>2021-11-20T19:15:54.243Z</time>
      </trkpt>
      <trkpt lat="47.501265" lon="8.057592">
        <ele>381.273549</ele>
        <time>2021-11-20T19:15:54.539Z</time>
      </trkpt>
      <trkpt lat="47.501287" lon="8.057595">
        <ele>381.217929</ele>
        <time>2021-11-20T19:15:54.812Z</time>
      </trkpt>
      <trkpt lat="47.501352" lon="8.057560">
        <ele>381.043800</ele>
        <time>2021-11-20T19:15:55.629Z</time>
      </trkpt>
      <trkpt lat="47.501377" lon="8.057505">
        <ele>380.931055</ele>
        <time>2021-11-20T19:15:56.093Z</time>
      </trkpt>
      <trkpt lat="47.501591" lon="8.057629">
        <ele>380.352499</ele>
        <time>2021-11-20T19:15:59.314Z</time>
      </trkpt>
      <trkpt lat="47.501628" lon="8.057651">
        <ele>380.240186</ele>
        <time>2021-11-20T19:15:59.981Z</time>
      </trkpt>
      <trkpt lat="47.501844" lon="8.057777">
        <ele>379.569476</ele>
        <time>2021-11-20T19:16:03.268Z</time>
      </trkpt>
      <trkpt lat="47.501911" lon="8.057816">
        <ele>379.361491</ele>
        <time>2021-11-20T19:16:04.246Z</time>
      </trkpt>
      <trkpt lat="47.502146" lon="8.057952">
        <ele>378.632557</ele>
        <time>2021-11-20T19:16:07.824Z</time>
      </trkpt>
      <trkpt lat="47.502365" lon="8.058079">
        <ele>377.953068</ele>
        <time>2021-11-20T19:16:11.291Z</time>
      </trkpt>
      <trkpt lat="47.502836" lon="8.058343">
        <ele>376.498112</ele>
        <time>2021-11-20T19:16:18.668Z</time>
      </trkpt>
      <trkpt lat="47.502927" lon="8.057944">
        <ele>375.676241</ele>
        <time>2021-11-20T19:16:23.104Z</time>
      </trkpt>
      <trkpt lat="47.503232" lon="8.056115">
        <ele>373.385162</ele>
        <time>2021-11-20T19:16:43.847Z</time>
      </trkpt>
      <trkpt lat="47.503298" lon="8.055555">
        <ele>372.765717</ele>
        <time>2021-11-20T19:16:50.216Z</time>
      </trkpt>
      <trkpt lat="47.503340" lon="8.055072">
        <ele>372.235116</ele>
        <time>2021-11-20T19:16:55.684Z</time>
      </trkpt>
      <trkpt lat="47.503413" lon="8.053999">
        <ele>371.195060</ele>
        <time>2021-11-20T19:17:07.596Z</time>
      </trkpt>
      <trkpt lat="47.503429" lon="8.053339">
        <ele>370.558134</ele>
        <time>2021-11-20T19:17:14.914Z</time>
      </trkpt>
      <trkpt lat="47.503433" lon="8.053143">
        <ele>370.369022</ele>
        <time>2021-11-20T19:17:17.100Z</time>
      </trkpt>
      <trkpt lat="47.503431" lon="8.052821">
        <ele>370.058466</ele>
        <time>2021-11-20T19:17:20.770Z</time>
      </trkpt>
      <trkpt lat="47.503428" lon="8.052697">
        <ele>369.938801</ele>
        <time>2021-11-20T19:17:21.784Z</time>
      </trkpt>
      <trkpt lat="47.503428" lon="8.052181">
        <ele>369.484443</ele>
        <time>2021-11-20T19:17:25.961Z</time>
      </trkpt>
      <trkpt lat="47.503421" lon="8.051996">
        <ele>369.339869</ele>
        <time>2021-11-20T19:17:27.467Z</time>
      </trkpt>
      <trkpt lat="47.503397" lon="8.051365">
        <ele>368.846747</ele>
        <time>2021-11-20T19:17:32.570Z</time>
      </trkpt>
      <trkpt lat="47.503386" lon="8.051161">
        <ele>368.687068</ele>
        <time>2021-11-20T19:17:34.191Z</time>
      </trkpt>
      <trkpt lat="47.503363" lon="8.050738">
        <ele>368.355951</ele>
        <time>2021-11-20T19:17:37.673Z</time>
      </trkpt>
      <trkpt lat="47.503323" lon="8.050248">
        <ele>367.970842</ele>
        <time>2021-11-20T19:17:41.709Z</time>
      </trkpt>
      <trkpt lat="47.503303" lon="8.050012">
        <ele>367.785258</ele>
        <time>2021-11-20T19:17:43.588Z</time>
      </trkpt>
      <trkpt lat="47.503126" lon="8.048338">
        <ele>366.203721</ele>
        <time>2021-11-20T19:17:57.168Z</time>
      </trkpt>
      <trkpt lat="47.502959" lon="8.047023">
        <ele>364.901400</ele>
        <time>2021-11-20T19:18:07.410Z</time>
      </trkpt>
      <trkpt lat="47.502592" lon="8.044305">
        <ele>361.851167</ele>
        <time>2021-11-20T19:18:28.628Z</time>
      </trkpt>
      <trkpt lat="47.502261" lon="8.042085">
        <ele>359.574484</ele>
        <time>2021-11-20T19:18:46.311Z</time>
      </trkpt>
      <trkpt lat="47.502240" lon="8.041844">
        <ele>359.381790</ele>
        <time>2021-11-20T19:18:48.243Z</time>
      </trkpt>
      <trkpt lat="47.502162" lon="8.040946">
        <ele>359.024776</ele>
        <time>2021-11-20T19:18:55.498Z</time>
      </trkpt>
      <trkpt lat="47.502104" lon="8.038924">
        <ele>358.544939</ele>
        <time>2021-11-20T19:19:14.348Z</time>
      </trkpt>
      <trkpt lat="47.502099" lon="8.038844">
        <ele>358.586257</ele>
        <time>2021-11-20T19:19:15.487Z</time>
      </trkpt>
      <trkpt lat="47.502088" lon="8.038680">
        <ele>358.671015</ele>
        <time>2021-11-20T19:19:17.997Z</time>
      </trkpt>
      <trkpt lat="47.502069" lon="8.038565">
        <ele>358.731900</ele>
        <time>2021-11-20T19:19:19.226Z</time>
      </trkpt>
      <trkpt lat="47.501901" lon="8.038376">
        <ele>358.892537</ele>
        <time>2021-11-20T19:19:23.466Z</time>
      </trkpt>
      <trkpt lat="47.501267" lon="8.038284">
        <ele>359.377494</ele>
        <time>2021-11-20T19:19:35.412Z</time>
      </trkpt>
      <trkpt lat="47.501231" lon="8.038279">
        <ele>359.405019</ele>
        <time>2021-11-20T19:19:36.319Z</time>
      </trkpt>
      <trkpt lat="47.501234" lon="8.038241">
        <ele>359.424696</ele>
        <time>2021-11-20T19:19:37.517Z</time>
      </trkpt>
      <trkpt lat="47.501437" lon="8.035841">
        <ele>359.654345</ele>
        <time>2021-11-20T19:20:14.237Z</time>
      </trkpt>
      <trkpt lat="47.501454" lon="8.035709">
        <ele>359.648449</ele>
        <time>2021-11-20T19:20:15.959Z</time>
      </trkpt>
      <trkpt lat="47.501518" lon="8.035634">
        <ele>359.643147</ele>
        <time>2021-11-20T19:20:17.217Z</time>
      </trkpt>
      <trkpt lat="47.501617" lon="8.035668">
        <ele>359.636546</ele>
        <time>2021-11-20T19:20:19.013Z</time>
      </trkpt>
      <trkpt lat="47.502046" lon="8.036004">
        <ele>359.256246</ele>
        <time>2021-11-20T19:20:27.045Z</time>
      </trkpt>
      <trkpt lat="47.502156" lon="8.035747">
        <ele>358.862350</ele>
        <time>2021-11-20T19:20:30.270Z</time>
      </trkpt>
      <trkpt lat="47.502581" lon="8.034740">
        <ele>357.325090</ele>
        <time>2021-11-20T19:20:42.986Z</time>
      </trkpt>
      <trkpt lat="47.502736" lon="8.034380">
        <ele>356.772392</ele>
        <time>2021-11-20T19:20:47.413Z</time>
      </trkpt>
      <trkpt lat="47.503241" lon="8.033161">
        <ele>354.791863</ele>
        <time>2021-11-20T19:21:02.535Z</time>
      </trkpt>
      <trkpt lat="47.503542" lon="8.032498">
        <ele>353.650702</ele>
        <time>2021-11-20T19:21:10.829Z</time>
      </trkpt>
      <trkpt lat="47.503900" lon="8.031853">
        <ele>352.458156</ele>
        <time>2021-11-20T19:21:19.659Z</time>
      </trkpt>
      <trkpt lat="47.504264" lon="8.031262">
        <ele>351.748973</ele>
        <time>2021-11-20T19:21:28.116Z</time>
      </trkpt>
      <trkpt lat="47.504830" lon="8.030312">
        <ele>350.685515</ele>
        <time>2021-11-20T19:21:42.518Z</time>
      </trkpt>
      <trkpt lat="47.505477" lon="8.029211">
        <ele>350.043522</ele>
        <time>2021-11-20T19:22:01.290Z</time>
      </trkpt>
      <trkpt lat="47.505673" lon="8.028775">
        <ele>349.986014</ele>
        <time>2021-11-20T19:22:08.557Z</time>
      </trkpt>
      <trkpt lat="47.505707" lon="8.028569">
        <ele>349.962729</ele>
        <time>2021-11-20T19:22:11.724Z</time>
      </trkpt>
      <trkpt lat="47.505717" lon="8.028403">
        <ele>349.944429</ele>
        <time>2021-11-20T19:22:13.983Z</time>
      </trkpt>
      <trkpt lat="47.505760" lon="8.028072">
        <ele>349.907417</ele>
        <time>2021-11-20T19:22:18.859Z</time>
      </trkpt>
      <trkpt lat="47.505841" lon="8.027752">
        <ele>349.869893</ele>
        <time>2021-11-20T19:22:23.146Z</time>
      </trkpt>
      <trkpt lat="47.505899" lon="8.027524">
        <ele>349.843141</ele>
        <time>2021-11-20T19:22:26.699Z</time>
      </trkpt>
      <trkpt lat="47.505918" lon="8.027442">
        <ele>349.809160</ele>
        <time>2021-11-20T19:22:27.722Z</time>
      </trkpt>
      <trkpt lat="47.505930" lon="8.027402">
        <ele>349.782078</ele>
        <time>2021-11-20T19:22:28.223Z</time>
      </trkpt>
      <trkpt lat="47.505953" lon="8.027396">
        <ele>349.760686</ele>
        <time>2021-11-20T19:22:28.584Z</time>
      </trkpt>
      <trkpt lat="47.505970" lon="8.027379">
        <ele>349.741894</ele>
        <time>2021-11-20T19:22:28.978Z</time>
      </trkpt>
      <trkpt lat="47.505975" lon="8.027370">
        <ele>349.734684</ele>
        <time>2021-11-20T19:22:29.104Z</time>
      </trkpt>
      <trkpt lat="47.505985" lon="8.027324">
        <ele>349.704783</ele>
        <time>2021-11-20T19:22:29.792Z</time>
      </trkpt>
      <trkpt lat="47.505969" lon="8.027270">
        <ele>349.668296</ele>
        <time>2021-11-20T19:22:30.596Z</time>
      </trkpt>
      <trkpt lat="47.505954" lon="8.027254">
        <ele>349.651361</ele>
        <time>2021-11-20T19:22:31.077Z</time>
      </trkpt>
      <trkpt lat="47.505967" lon="8.027229">
        <ele>349.631840</ele>
        <time>2021-11-20T19:22:31.539Z</time>
      </trkpt>
      <trkpt lat="47.505984" lon="8.027167">
        <ele>349.590436</ele>
        <time>2021-11-20T19:22:32.495Z</time>
      </trkpt>
      <trkpt lat="47.505984" lon="8.027167">
        <ele>349.590436</ele>
        <time>2021-11-20T19:22:32.498Z</time>
      </trkpt>
      <trkpt lat="47.506132" lon="8.026567">
        <ele>349.195200</ele>
        <time>2021-11-20T19:22:40.522Z</time>
      </trkpt>
      <trkpt lat="47.506281" lon="8.026061">
        <ele>348.853651</ele>
        <time>2021-11-20T19:22:46.992Z</time>
      </trkpt>
      <trkpt lat="47.506324" lon="8.025948">
        <ele>348.773400</ele>
        <time>2021-11-20T19:22:48.379Z</time>
      </trkpt>
      <trkpt lat="47.506408" lon="8.025723">
        <ele>348.614331</ele>
        <time>2021-11-20T19:22:51.459Z</time>
      </trkpt>
      <trkpt lat="47.506438" lon="8.025630">
        <ele>348.550562</ele>
        <time>2021-11-20T19:22:52.587Z</time>
      </trkpt>
      <trkpt lat="47.506464" lon="8.025540">
        <ele>348.489994</ele>
        <time>2021-11-20T19:22:53.657Z</time>
      </trkpt>
      <trkpt lat="47.506494" lon="8.025370">
        <ele>348.381275</ele>
        <time>2021-11-20T19:22:55.595Z</time>
      </trkpt>
      <trkpt lat="47.506550" lon="8.024942">
        <ele>348.041053</ele>
        <time>2021-11-20T19:23:00.397Z</time>
      </trkpt>
      <trkpt lat="47.506571" lon="8.024790">
        <ele>347.860309</ele>
        <time>2021-11-20T19:23:02.173Z</time>
      </trkpt>
      <trkpt lat="47.506634" lon="8.024331">
        <ele>347.314656</ele>
        <time>2021-11-20T19:23:07.336Z</time>
      </trkpt>
      <trkpt lat="47.506654" lon="8.024209">
        <ele>347.168403</ele>
        <time>2021-11-20T19:23:08.758Z</time>
      </trkpt>
      <trkpt lat="47.506661" lon="8.024170">
        <ele>347.121392</ele>
        <time>2021-11-20T19:23:09.217Z</time>
      </trkpt>
      <trkpt lat="47.506675" lon="8.024087">
        <ele>347.021729</ele>
        <time>2021-11-20T19:23:10.145Z</time>
      </trkpt>
      <trkpt lat="47.506747" lon="8.023829">
        <ele>346.696525</ele>
        <time>2021-11-20T19:23:13.095Z</time>
      </trkpt>
      <trkpt lat="47.506897" lon="8.023415">
        <ele>346.149227</ele>
        <time>2021-11-20T19:23:18.237Z</time>
      </trkpt>
      <trkpt lat="47.507083" lon="8.022900">
        <ele>345.468894</ele>
        <time>2021-11-20T19:23:24.532Z</time>
      </trkpt>
      <trkpt lat="47.507266" lon="8.022548">
        <ele>345.046236</ele>
        <time>2021-11-20T19:23:29.232Z</time>
      </trkpt>
      <trkpt lat="47.507331" lon="8.022469">
        <ele>345.000862</ele>
        <time>2021-11-20T19:23:30.537Z</time>
      </trkpt>
      <trkpt lat="47.507363" lon="8.022432">
        <ele>344.978955</ele>
        <time>2021-11-20T19:23:31.191Z</time>
      </trkpt>
      <trkpt lat="47.507378" lon="8.022417">
        <ele>344.969189</ele>
        <time>2021-11-20T19:23:31.467Z</time>
      </trkpt>
      <trkpt lat="47.507703" lon="8.022138">
        <ele>344.766492</ele>
        <time>2021-11-20T19:23:35.572Z</time>
      </trkpt>
      <trkpt lat="47.507911" lon="8.021815">
        <ele>344.603855</ele>
        <time>2021-11-20T19:23:39.053Z</time>
      </trkpt>
      <trkpt lat="47.508185" lon="8.021387">
        <ele>344.388948</ele>
        <time>2021-11-20T19:23:44.087Z</time>
      </trkpt>
      <trkpt lat="47.508213" lon="8.021364">
        <ele>344.371672</ele>
        <time>2021-11-20T19:23:44.409Z</time>
      </trkpt>
      <trkpt lat="47.508331" lon="8.021703">
        <ele>344.232686</ele>
        <time>2021-11-20T19:23:50.484Z</time>
      </trkpt>
      <trkpt lat="47.508453" lon="8.021990">
        <ele>344.163311</ele>
        <time>2021-11-20T19:23:54.624Z</time>
      </trkpt>
      <trkpt lat="47.508643" lon="8.022392">
        <ele>344.966597</ele>
        <time>2021-11-20T19:24:02.258Z</time>
      </trkpt>
      <trkpt lat="47.508786" lon="8.022604">
        <ele>345.457115</ele>
        <time>2021-11-20T19:24:08.432Z</time>
      </trkpt>
      <trkpt lat="47.508863" lon="8.022719">
        <ele>345.722222</ele>
        <time>2021-11-20T19:24:10.639Z</time>
      </trkpt>
      <trkpt lat="47.508958" lon="8.022838">
        <ele>346.023849</ele>
        <time>2021-11-20T19:24:14.940Z</time>
      </trkpt>
      <trkpt lat="47.509187" lon="8.023037">
        <ele>346.667458</ele>
        <time>2021-11-20T19:24:21.729Z</time>
      </trkpt>
      <trkpt lat="47.509313" lon="8.023129">
        <ele>347.007982</ele>
        <time>2021-11-20T19:24:26.262Z</time>
      </trkpt>
      <trkpt lat="47.509881" lon="8.023632">
        <ele>348.468925</ele>
        <time>2021-11-20T19:24:42.099Z</time>
      </trkpt>
      <trkpt lat="47.510365" lon="8.024216">
        <ele>348.360076</ele>
        <time>2021-11-20T19:24:55.312Z</time>
      </trkpt>
      <trkpt lat="47.510388" lon="8.024167">
        <ele>348.353050</ele>
        <time>2021-11-20T19:24:55.844Z</time>
      </trkpt>
      <trkpt lat="47.510482" lon="8.023869">
        <ele>348.314323</ele>
        <time>2021-11-20T19:25:02.156Z</time>
      </trkpt>
      <trkpt lat="47.510638" lon="8.023374">
        <ele>348.250004</ele>
        <time>2021-11-20T19:25:08.207Z</time>
      </trkpt>
      <trkpt lat="47.510740" lon="8.023224">
        <ele>348.224941</ele>
        <time>2021-11-20T19:25:10.216Z</time>
      </trkpt>
      <trkpt lat="47.510935" lon="8.022959">
        <ele>348.178797</ele>
        <time>2021-11-20T19:25:14.713Z</time>
      </trkpt>
      <trkpt lat="47.512343" lon="8.021241">
        <ele>343.516587</ele>
        <time>2021-11-20T19:25:41.726Z</time>
      </trkpt>
      <trkpt lat="47.512778" lon="8.020828">
        <ele>342.467689</ele>
        <time>2021-11-20T19:25:49.921Z</time>
      </trkpt>
      <trkpt lat="47.513167" lon="8.020663">
        <ele>341.675843</ele>
        <time>2021-11-20T19:25:56.239Z</time>
      </trkpt>
      <trkpt lat="47.513856" lon="8.020390">
        <ele>340.280111</ele>
        <time>2021-11-20T19:26:07.606Z</time>
      </trkpt>
      <trkpt lat="47.514214" lon="8.020312">
        <ele>339.701908</ele>
        <time>2021-11-20T19:26:13.594Z</time>
      </trkpt>
      <trkpt lat="47.514447" lon="8.020326">
        <ele>339.455146</ele>
        <time>2021-11-20T19:26:17.447Z</time>
      </trkpt>
      <trkpt lat="47.514678" lon="8.020338">
        <ele>339.210554</ele>
        <time>2021-11-20T19:26:21.406Z</time>
      </trkpt>
      <trkpt lat="47.514794" lon="8.020346">
        <ele>339.087670</ele>
        <time>2021-11-20T19:26:23.370Z</time>
      </trkpt>
      <trkpt lat="47.515011" lon="8.020364">
        <ele>338.857682</ele>
        <time>2021-11-20T19:26:27.140Z</time>
      </trkpt>
      <trkpt lat="47.515050" lon="8.020367">
        <ele>338.816357</ele>
        <time>2021-11-20T19:26:27.811Z</time>
      </trkpt>
      <trkpt lat="47.515452" lon="8.020407">
        <ele>338.390004</ele>
        <time>2021-11-20T19:26:34.830Z</time>
      </trkpt>
      <trkpt lat="47.515648" lon="8.020395">
        <ele>338.182421</ele>
        <time>2021-11-20T19:26:38.348Z</time>
      </trkpt>
      <trkpt lat="47.515685" lon="8.020393">
        <ele>338.143242</ele>
        <time>2021-11-20T19:26:38.999Z</time>
      </trkpt>
      <trkpt lat="47.516146" lon="8.020218">
        <ele>337.888841</ele>
        <time>2021-11-20T19:26:47.678Z</time>
      </trkpt>
      <trkpt lat="47.516172" lon="8.020201">
        <ele>337.882794</ele>
        <time>2021-11-20T19:26:48.176Z</time>
      </trkpt>
      <trkpt lat="47.516265" lon="8.020138">
        <ele>337.861035</ele>
        <time>2021-11-20T19:26:50.125Z</time>
      </trkpt>
      <trkpt lat="47.516418" lon="8.020012">
        <ele>337.823786</ele>
        <time>2021-11-20T19:26:53.567Z</time>
      </trkpt>
      <trkpt lat="47.516592" lon="8.019879">
        <ele>337.782124</ele>
        <time>2021-11-20T19:26:57.245Z</time>
      </trkpt>
      <trkpt lat="47.516606" lon="8.019868">
        <ele>337.778752</ele>
        <time>2021-11-20T19:26:57.668Z</time>
      </trkpt>
      <trkpt lat="47.516775" lon="8.019794">
        <ele>337.741256</ele>
        <time>2021-11-20T19:27:01.051Z</time>
      </trkpt>
      <trkpt lat="47.516798" lon="8.019784">
        <ele>337.736156</ele>
        <time>2021-11-20T19:27:01.514Z</time>
      </trkpt>
      <trkpt lat="47.517087" lon="8.019737">
        <ele>337.674298</ele>
        <time>2021-11-20T19:27:07.462Z</time>
      </trkpt>
      <trkpt lat="47.517205" lon="8.019691">
        <ele>337.648337</ele>
        <time>2021-11-20T19:27:09.577Z</time>
      </trkpt>
      <trkpt lat="47.517322" lon="8.019626">
        <ele>337.621749</ele>
        <time>2021-11-20T19:27:12.442Z</time>
      </trkpt>
      <trkpt lat="47.517543" lon="8.019449">
        <ele>337.568457</ele>
        <time>2021-11-20T19:27:17.363Z</time>
      </trkpt>
      <trkpt lat="47.517699" lon="8.019320">
        <ele>337.541256</ele>
        <time>2021-11-20T19:27:20.622Z</time>
      </trkpt>
      <trkpt lat="47.517787" lon="8.019247">
        <ele>337.525901</ele>
        <time>2021-11-20T19:27:21.978Z</time>
      </trkpt>
      <trkpt lat="47.517873" lon="8.019154">
        <ele>337.509689</ele>
        <time>2021-11-20T19:27:23.517Z</time>
      </trkpt>
      <trkpt lat="47.517945" lon="8.019080">
        <ele>337.496346</ele>
        <time>2021-11-20T19:27:25.372Z</time>
      </trkpt>
      <trkpt lat="47.518228" lon="8.018741">
        <ele>337.440931</ele>
        <time>2021-11-20T19:27:31.495Z</time>
      </trkpt>
      <trkpt lat="47.518485" lon="8.018258">
        <ele>337.377712</ele>
        <time>2021-11-20T19:27:37.707Z</time>
      </trkpt>
      <trkpt lat="47.518569" lon="8.018073">
        <ele>337.354793</ele>
        <time>2021-11-20T19:27:39.435Z</time>
      </trkpt>
      <trkpt lat="47.518733" lon="8.017694">
        <ele>337.308516</ele>
        <time>2021-11-20T19:27:43.375Z</time>
      </trkpt>
      <trkpt lat="47.518855" lon="8.017453">
        <ele>337.164557</ele>
        <time>2021-11-20T19:27:45.977Z</time>
      </trkpt>
      <trkpt lat="47.519079" lon="8.017167">
        <ele>336.828983</ele>
        <time>2021-11-20T19:27:49.458Z</time>
      </trkpt>
      <trkpt lat="47.519096" lon="8.017126">
        <ele>336.792120</ele>
        <time>2021-11-20T19:27:49.841Z</time>
      </trkpt>
      <trkpt lat="47.519107" lon="8.017079">
        <ele>336.754006</ele>
        <time>2021-11-20T19:27:50.275Z</time>
      </trkpt>
      <trkpt lat="47.519117" lon="8.017042">
        <ele>336.723470</ele>
        <time>2021-11-20T19:27:50.599Z</time>
      </trkpt>
      <trkpt lat="47.519123" lon="8.016537">
        <ele>336.336469</ele>
        <time>2021-11-20T19:27:54.655Z</time>
      </trkpt>
      <trkpt lat="47.519126" lon="8.016373">
        <ele>336.210763</ele>
        <time>2021-11-20T19:27:56.037Z</time>
      </trkpt>
      <trkpt lat="47.519171" lon="8.016191">
        <ele>336.062259</ele>
        <time>2021-11-20T19:27:57.481Z</time>
      </trkpt>
      <trkpt lat="47.519228" lon="8.016109">
        <ele>335.972094</ele>
        <time>2021-11-20T19:27:58.466Z</time>
      </trkpt>
      <trkpt lat="47.519330" lon="8.015986">
        <ele>335.822848</ele>
        <time>2021-11-20T19:28:00.079Z</time>
      </trkpt>
      <trkpt lat="47.519346" lon="8.015845">
        <ele>335.713297</ele>
        <time>2021-11-20T19:28:01.119Z</time>
      </trkpt>
      <trkpt lat="47.519424" lon="8.015360">
        <ele>335.331290</ele>
        <time>2021-11-20T19:28:05.125Z</time>
      </trkpt>
      <trkpt lat="47.519518" lon="8.015145">
        <ele>335.201266</ele>
        <time>2021-11-20T19:28:07.191Z</time>
      </trkpt>
      <trkpt lat="47.519564" lon="8.015041">
        <ele>335.158865</ele>
        <time>2021-11-20T19:28:08.303Z</time>
      </trkpt>
      <trkpt lat="47.519666" lon="8.015011">
        <ele>335.106345</ele>
        <time>2021-11-20T19:28:09.532Z</time>
      </trkpt>
      <trkpt lat="47.520115" lon="8.014648">
        <ele>334.847991</ele>
        <time>2021-11-20T19:28:15.985Z</time>
      </trkpt>
      <trkpt lat="47.520539" lon="8.014558">
        <ele>334.631669</ele>
        <time>2021-11-20T19:28:22.306Z</time>
      </trkpt>
      <trkpt lat="47.520848" lon="8.014542">
        <ele>334.475520</ele>
        <time>2021-11-20T19:28:26.751Z</time>
      </trkpt>
      <trkpt lat="47.520953" lon="8.014530">
        <ele>334.422334</ele>
        <time>2021-11-20T19:28:28.086Z</time>
      </trkpt>
      <trkpt lat="47.521150" lon="8.014447">
        <ele>334.341343</ele>
        <time>2021-11-20T19:28:31.296Z</time>
      </trkpt>
      <trkpt lat="47.521292" lon="8.014319">
        <ele>334.326862</ele>
        <time>2021-11-20T19:28:33.497Z</time>
      </trkpt>
      <trkpt lat="47.521454" lon="8.014134">
        <ele>334.309042</ele>
        <time>2021-11-20T19:28:36.693Z</time>
      </trkpt>
      <trkpt lat="47.521508" lon="8.014076">
        <ele>334.303231</ele>
        <time>2021-11-20T19:28:37.634Z</time>
      </trkpt>
      <trkpt lat="47.521532" lon="8.014046">
        <ele>334.300495</ele>
        <time>2021-11-20T19:28:38.086Z</time>
      </trkpt>
      <trkpt lat="47.521611" lon="8.013949">
        <ele>334.291556</ele>
        <time>2021-11-20T19:28:39.349Z</time>
      </trkpt>
      <trkpt lat="47.521782" lon="8.013652">
        <ele>334.268597</ele>
        <time>2021-11-20T19:28:43.583Z</time>
      </trkpt>
      <trkpt lat="47.521857" lon="8.013314">
        <ele>334.247669</ele>
        <time>2021-11-20T19:28:47.235Z</time>
      </trkpt>
      <trkpt lat="47.521867" lon="8.013168">
        <ele>334.239036</ele>
        <time>2021-11-20T19:28:48.661Z</time>
      </trkpt>
      <trkpt lat="47.521884" lon="8.013019">
        <ele>334.230147</ele>
        <time>2021-11-20T19:28:50.402Z</time>
      </trkpt>
      <trkpt lat="47.521999" lon="8.011997">
        <ele>334.303784</ele>
        <time>2021-11-20T19:29:04.037Z</time>
      </trkpt>
      <trkpt lat="47.522135" lon="8.011541">
        <ele>334.470343</ele>
        <time>2021-11-20T19:29:11.082Z</time>
      </trkpt>
      <trkpt lat="47.522752" lon="8.010942">
        <ele>334.835377</ele>
        <time>2021-11-20T19:29:28.139Z</time>
      </trkpt>
      <trkpt lat="47.523475" lon="8.009886">
        <ele>335.323136</ele>
        <time>2021-11-20T19:29:52.204Z</time>
      </trkpt>
      <trkpt lat="47.523750" lon="8.009595">
        <ele>335.480867</ele>
        <time>2021-11-20T19:29:59.844Z</time>
      </trkpt>
      <trkpt lat="47.525125" lon="8.008474">
        <ele>335.540037</ele>
        <time>2021-11-20T19:30:32.926Z</time>
      </trkpt>
      <trkpt lat="47.525704" lon="8.008036">
        <ele>335.150255</ele>
        <time>2021-11-20T19:30:44.634Z</time>
      </trkpt>
      <trkpt lat="47.526398" lon="8.007517">
        <ele>334.379734</ele>
        <time>2021-11-20T19:30:57.611Z</time>
      </trkpt>
      <trkpt lat="47.527466" lon="8.006442">
        <ele>332.096577</ele>
        <time>2021-11-20T19:31:18.166Z</time>
      </trkpt>
      <trkpt lat="47.528852" lon="8.005150">
        <ele>329.144796</ele>
        <time>2021-11-20T19:31:44.258Z</time>
      </trkpt>
      <trkpt lat="47.529337" lon="8.004498">
        <ele>327.850645</ele>
        <time>2021-11-20T19:31:55.012Z</time>
      </trkpt>
      <trkpt lat="47.529391" lon="8.004422">
        <ele>327.682911</ele>
        <time>2021-11-20T19:31:56.199Z</time>
      </trkpt>
      <trkpt lat="47.530077" lon="8.003471">
        <ele>325.567184</ele>
        <time>2021-11-20T19:32:10.499Z</time>
      </trkpt>
      <trkpt lat="47.531127" lon="8.002157">
        <ele>322.533572</ele>
        <time>2021-11-20T19:32:31.560Z</time>
      </trkpt>
      <trkpt lat="47.531407" lon="8.001793">
        <ele>321.722098</ele>
        <time>2021-11-20T19:32:37.297Z</time>
      </trkpt>
      <trkpt lat="47.531789" lon="8.001140">
        <ele>320.451479</ele>
        <time>2021-11-20T19:32:46.542Z</time>
      </trkpt>
      <trkpt lat="47.532176" lon="8.000088">
        <ele>319.381408</ele>
        <time>2021-11-20T19:32:59.660Z</time>
      </trkpt>
      <trkpt lat="47.532283" lon="7.999633">
        <ele>318.952900</ele>
        <time>2021-11-20T19:33:05.001Z</time>
      </trkpt>
      <trkpt lat="47.532321" lon="7.999312">
        <ele>318.663057</ele>
        <time>2021-11-20T19:33:08.620Z</time>
      </trkpt>
      <trkpt lat="47.532314" lon="7.998991">
        <ele>318.377420</ele>
        <time>2021-11-20T19:33:12.447Z</time>
      </trkpt>
      <trkpt lat="47.532258" lon="7.998707">
        <ele>318.114287</ele>
        <time>2021-11-20T19:33:15.861Z</time>
      </trkpt>
      <trkpt lat="47.532160" lon="7.998422">
        <ele>318.288843</ele>
        <time>2021-11-20T19:33:20.066Z</time>
      </trkpt>
      <trkpt lat="47.531992" lon="7.998158">
        <ele>318.581248</ele>
        <time>2021-11-20T19:33:25.116Z</time>
      </trkpt>
      <trkpt lat="47.531784" lon="7.997942">
        <ele>318.884508</ele>
        <time>2021-11-20T19:33:30.656Z</time>
      </trkpt>
      <trkpt lat="47.531662" lon="7.997822">
        <ele>319.059340</ele>
        <time>2021-11-20T19:33:34.712Z</time>
      </trkpt>
      <trkpt lat="47.531548" lon="7.997703">
        <ele>319.225836</ele>
        <time>2021-11-20T19:33:37.984Z</time>
      </trkpt>
      <trkpt lat="47.531480" lon="7.997629">
        <ele>319.326569</ele>
        <time>2021-11-20T19:33:39.844Z</time>
      </trkpt>
      <trkpt lat="47.531388" lon="7.997546">
        <ele>319.455168</ele>
        <time>2021-11-20T19:33:42.798Z</time>
      </trkpt>
      <trkpt lat="47.531173" lon="7.997275">
        <ele>319.792197</ele>
        <time>2021-11-20T19:33:50.580Z</time>
      </trkpt>
      <trkpt lat="47.530978" lon="7.996954">
        <ele>320.140239</ele>
        <time>2021-11-20T19:33:59.564Z</time>
      </trkpt>
      <trkpt lat="47.530713" lon="7.996416">
        <ele>321.289257</ele>
        <time>2021-11-20T19:34:14.410Z</time>
      </trkpt>
      <trkpt lat="47.530590" lon="7.996224">
        <ele>321.787018</ele>
        <time>2021-11-20T19:34:20.858Z</time>
      </trkpt>
      <trkpt lat="47.530590" lon="7.996224">
        <ele>321.787018</ele>
        <time>2021-11-20T19:34:20.862Z</time>
      </trkpt>
      <trkpt lat="47.530706" lon="7.996149">
        <ele>322.139571</ele>
        <time>2021-11-20T19:34:25.457Z</time>
      </trkpt>
      <trkpt lat="47.530913" lon="7.996007">
        <ele>322.774994</ele>
        <time>2021-11-20T19:34:33.297Z</time>
      </trkpt>
      <trkpt lat="47.530847" lon="7.995663">
        <ele>323.447561</ele>
        <time>2021-11-20T19:34:41.471Z</time>
      </trkpt>
      <trkpt lat="47.531019" lon="7.994829">
        <ele>325.087587</ele>
        <time>2021-11-20T19:34:58.821Z</time>
      </trkpt>
      <trkpt lat="47.531127" lon="7.994292">
        <ele>325.654736</ele>
        <time>2021-11-20T19:35:08.535Z</time>
      </trkpt>
      <trkpt lat="47.531174" lon="7.994082">
        <ele>325.849193</ele>
        <time>2021-11-20T19:35:11.975Z</time>
      </trkpt>
      <trkpt lat="47.531213" lon="7.993959">
        <ele>325.968631</ele>
        <time>2021-11-20T19:35:13.884Z</time>
      </trkpt>
      <trkpt lat="47.531229" lon="7.993825">
        <ele>326.088238</ele>
        <time>2021-11-20T19:35:16.372Z</time>
      </trkpt>
      <trkpt lat="47.531189" lon="7.993709">
        <ele>326.202724</ele>
        <time>2021-11-20T19:35:18.822Z</time>
      </trkpt>
      <trkpt lat="47.531135" lon="7.993591">
        <ele>326.328018</ele>
        <time>2021-11-20T19:35:21.252Z</time>
      </trkpt>
      <trkpt lat="47.531222" lon="7.993523">
        <ele>326.456077</ele>
        <time>2021-11-20T19:35:23.506Z</time>
      </trkpt>
      <trkpt lat="47.531301" lon="7.993435">
        <ele>326.584759</ele>
        <time>2021-11-20T19:35:26.001Z</time>
      </trkpt>
      <trkpt lat="47.531374" lon="7.993263">
        <ele>326.763325</ele>
        <time>2021-11-20T19:35:29.340Z</time>
      </trkpt>
      <trkpt lat="47.531342" lon="7.993200">
        <ele>326.832619</ele>
        <time>2021-11-20T19:35:30.574Z</time>
      </trkpt>
      <trkpt lat="47.531298" lon="7.993004">
        <ele>327.014165</ele>
        <time>2021-11-20T19:35:34.343Z</time>
      </trkpt>
      <trkpt lat="47.531297" lon="7.992935">
        <ele>327.074827</ele>
        <time>2021-11-20T19:35:35.510Z</time>
      </trkpt>
      <trkpt lat="47.531323" lon="7.992837">
        <ele>327.167375</ele>
        <time>2021-11-20T19:35:37.309Z</time>
      </trkpt>
      <trkpt lat="47.531392" lon="7.992656">
        <ele>327.350071</ele>
        <time>2021-11-20T19:35:40.767Z</time>
      </trkpt>
      <trkpt lat="47.531387" lon="7.992456">
        <ele>327.525981</ele>
        <time>2021-11-20T19:35:44.221Z</time>
      </trkpt>
      <trkpt lat="47.531336" lon="7.992338">
        <ele>327.655390</ele>
        <time>2021-11-20T19:35:46.419Z</time>
      </trkpt>
      <trkpt lat="47.531114" lon="7.992047">
        <ele>328.071564</ele>
        <time>2021-11-20T19:35:53.401Z</time>
      </trkpt>
      <trkpt lat="47.531061" lon="7.991976">
        <ele>328.171886</ele>
        <time>2021-11-20T19:35:55.239Z</time>
      </trkpt>
      <trkpt lat="47.531036" lon="7.991716">
        <ele>328.420811</ele>
        <time>2021-11-20T19:35:59.791Z</time>
      </trkpt>
      <trkpt lat="47.531019" lon="7.991469">
        <ele>328.656140</ele>
        <time>2021-11-20T19:36:04.086Z</time>
      </trkpt>
      <trkpt lat="47.530972" lon="7.991355">
        <ele>328.782746</ele>
        <time>2021-11-20T19:36:06.213Z</time>
      </trkpt>
      <trkpt lat="47.530933" lon="7.991310">
        <ele>328.852148</ele>
        <time>2021-11-20T19:36:07.738Z</time>
      </trkpt>
      <trkpt lat="47.530979" lon="7.991211">
        <ele>328.966057</ele>
        <time>2021-11-20T19:36:09.507Z</time>
      </trkpt>
      <trkpt lat="47.531363" lon="7.990436">
        <ele>329.877204</ele>
        <time>2021-11-20T19:36:23.565Z</time>
      </trkpt>
      <trkpt lat="47.531667" lon="7.989873">
        <ele>330.478269</ele>
        <time>2021-11-20T19:36:33.676Z</time>
      </trkpt>
      <trkpt lat="47.531823" lon="7.989607">
        <ele>330.753339</ele>
        <time>2021-11-20T19:36:38.113Z</time>
      </trkpt>
      <trkpt lat="47.531897" lon="7.989450">
        <ele>330.902822</ele>
        <time>2021-11-20T19:36:41.374Z</time>
      </trkpt>
      <trkpt lat="47.532014" lon="7.989225">
        <ele>331.124539</ele>
        <time>2021-11-20T19:36:44.163Z</time>
      </trkpt>
      <trkpt lat="47.532299" lon="7.988577">
        <ele>331.728301</ele>
        <time>2021-11-20T19:36:54.908Z</time>
      </trkpt>
      <trkpt lat="47.532373" lon="7.988399">
        <ele>331.891496</ele>
        <time>2021-11-20T19:36:58.187Z</time>
      </trkpt>
      <trkpt lat="47.532401" lon="7.988331">
        <ele>331.953678</ele>
        <time>2021-11-20T19:36:58.676Z</time>
      </trkpt>
      <trkpt lat="47.532464" lon="7.988171">
        <ele>332.098279</ele>
        <time>2021-11-20T19:37:01.826Z</time>
      </trkpt>
      <trkpt lat="47.532544" lon="7.987973">
        <ele>332.246973</ele>
        <time>2021-11-20T19:37:05.373Z</time>
      </trkpt>
      <trkpt lat="47.532621" lon="7.987826">
        <ele>332.348513</ele>
        <time>2021-11-20T19:37:06.806Z</time>
      </trkpt>
      <trkpt lat="47.532716" lon="7.987667">
        <ele>332.464388</ele>
        <time>2021-11-20T19:37:10.166Z</time>
      </trkpt>
      <trkpt lat="47.532879" lon="7.987447">
        <ele>332.642647</ele>
        <time>2021-11-20T19:37:13.465Z</time>
      </trkpt>
      <trkpt lat="47.533114" lon="7.987128">
        <ele>332.900317</ele>
        <time>2021-11-20T19:37:18.875Z</time>
      </trkpt>
      <trkpt lat="47.533208" lon="7.986980">
        <ele>333.011211</ele>
        <time>2021-11-20T19:37:22.238Z</time>
      </trkpt>
      <trkpt lat="47.533546" lon="7.986336">
        <ele>333.456380</ele>
        <time>2021-11-20T19:37:32.082Z</time>
      </trkpt>
      <trkpt lat="47.533975" lon="7.985526">
        <ele>333.988641</ele>
        <time>2021-11-20T19:37:43.511Z</time>
      </trkpt>
      <trkpt lat="47.534197" lon="7.985105">
        <ele>334.258084</ele>
        <time>2021-11-20T19:37:49.684Z</time>
      </trkpt>
      <trkpt lat="47.534320" lon="7.984882">
        <ele>334.403327</ele>
        <time>2021-11-20T19:37:52.902Z</time>
      </trkpt>
      <trkpt lat="47.534722" lon="7.984096">
        <ele>334.900690</ele>
        <time>2021-11-20T19:38:04.686Z</time>
      </trkpt>
      <trkpt lat="47.534817" lon="7.983835">
        <ele>335.180163</ele>
        <time>2021-11-20T19:38:08.631Z</time>
      </trkpt>
      <trkpt lat="47.535231" lon="7.982582">
        <ele>337.045373</ele>
        <time>2021-11-20T19:38:30.322Z</time>
      </trkpt>
      <trkpt lat="47.535300" lon="7.982379">
        <ele>337.349254</ele>
        <time>2021-11-20T19:38:34.085Z</time>
      </trkpt>
      <trkpt lat="47.535328" lon="7.982298">
        <ele>337.470927</ele>
        <time>2021-11-20T19:38:35.570Z</time>
      </trkpt>
      <trkpt lat="47.535345" lon="7.982248">
        <ele>337.545779</ele>
        <time>2021-11-20T19:38:36.461Z</time>
      </trkpt>
      <trkpt lat="47.535452" lon="7.981933">
        <ele>338.017256</ele>
        <time>2021-11-20T19:38:42.523Z</time>
      </trkpt>
      <trkpt lat="47.535599" lon="7.981498">
        <ele>338.588233</ele>
        <time>2021-11-20T19:38:50.799Z</time>
      </trkpt>
      <trkpt lat="47.536061" lon="7.980200">
        <ele>339.387380</ele>
        <time>2021-11-20T19:39:11.940Z</time>
      </trkpt>
      <trkpt lat="47.536340" lon="7.979418">
        <ele>339.869084</ele>
        <time>2021-11-20T19:39:20.819Z</time>
      </trkpt>
      <trkpt lat="47.536403" lon="7.979241">
        <ele>339.978058</ele>
        <time>2021-11-20T19:39:22.443Z</time>
      </trkpt>
      <trkpt lat="47.536460" lon="7.979083">
        <ele>339.738209</ele>
        <time>2021-11-20T19:39:23.887Z</time>
      </trkpt>
      <trkpt lat="47.536866" lon="7.977996">
        <ele>337.906973</ele>
        <time>2021-11-20T19:39:33.114Z</time>
      </trkpt>
      <trkpt lat="47.537896" lon="7.975317">
        <ele>332.747753</ele>
        <time>2021-11-20T19:39:54.568Z</time>
      </trkpt>
      <trkpt lat="47.538106" lon="7.974772">
        <ele>331.611765</ele>
        <time>2021-11-20T19:39:59.091Z</time>
      </trkpt>
      <trkpt lat="47.538490" lon="7.973699">
        <ele>329.741024</ele>
        <time>2021-11-20T19:40:07.918Z</time>
      </trkpt>
      <trkpt lat="47.538687" lon="7.972850">
        <ele>328.408350</ele>
        <time>2021-11-20T19:40:14.484Z</time>
      </trkpt>
      <trkpt lat="47.538858" lon="7.971696">
        <ele>326.607489</ele>
        <time>2021-11-20T19:40:23.154Z</time>
      </trkpt>
      <trkpt lat="47.538935" lon="7.971210">
        <ele>325.810670</ele>
        <time>2021-11-20T19:40:26.784Z</time>
      </trkpt>
      <trkpt lat="47.539052" lon="7.970439">
        <ele>324.549310</ele>
        <time>2021-11-20T19:40:32.411Z</time>
      </trkpt>
      <trkpt lat="47.539144" lon="7.969781">
        <ele>323.476741</ele>
        <time>2021-11-20T19:40:37.205Z</time>
      </trkpt>
      <trkpt lat="47.539248" lon="7.969246">
        <ele>322.661291</ele>
        <time>2021-11-20T19:40:41.218Z</time>
      </trkpt>
      <trkpt lat="47.539403" lon="7.968640">
        <ele>321.799608</ele>
        <time>2021-11-20T19:40:45.944Z</time>
      </trkpt>
      <trkpt lat="47.539680" lon="7.967625">
        <ele>320.343879</ele>
        <time>2021-11-20T19:40:54.155Z</time>
      </trkpt>
      <trkpt lat="47.539909" lon="7.966784">
        <ele>319.227503</ele>
        <time>2021-11-20T19:41:01.019Z</time>
      </trkpt>
      <trkpt lat="47.539949" lon="7.966627">
        <ele>319.062078</ele>
        <time>2021-11-20T19:41:02.329Z</time>
      </trkpt>
      <trkpt lat="47.540100" lon="7.966046">
        <ele>318.448356</ele>
        <time>2021-11-20T19:41:07.289Z</time>
      </trkpt>
      <trkpt lat="47.540200" lon="7.965632">
        <ele>318.014902</ele>
        <time>2021-11-20T19:41:10.801Z</time>
      </trkpt>
      <trkpt lat="47.540257" lon="7.965417">
        <ele>317.787200</ele>
        <time>2021-11-20T19:41:12.545Z</time>
      </trkpt>
      <trkpt lat="47.540467" lon="7.964759">
        <ele>317.069720</ele>
        <time>2021-11-20T19:41:18.286Z</time>
      </trkpt>
      <trkpt lat="47.540959" lon="7.963916">
        <ele>315.852925</ele>
        <time>2021-11-20T19:41:26.951Z</time>
      </trkpt>
      <trkpt lat="47.541019" lon="7.963815">
        <ele>315.702599</ele>
        <time>2021-11-20T19:41:27.902Z</time>
      </trkpt>
      <trkpt lat="47.541123" lon="7.963520">
        <ele>315.330742</ele>
        <time>2021-11-20T19:41:30.500Z</time>
      </trkpt>
      <trkpt lat="47.541217" lon="7.963187">
        <ele>314.927447</ele>
        <time>2021-11-20T19:41:33.257Z</time>
      </trkpt>
      <trkpt lat="47.541258" lon="7.962975">
        <ele>314.681043</ele>
        <time>2021-11-20T19:41:35.091Z</time>
      </trkpt>
      <trkpt lat="47.541293" lon="7.962730">
        <ele>314.401232</ele>
        <time>2021-11-20T19:41:36.935Z</time>
      </trkpt>
      <trkpt lat="47.541308" lon="7.962513">
        <ele>314.157502</ele>
        <time>2021-11-20T19:41:38.695Z</time>
      </trkpt>
      <trkpt lat="47.541314" lon="7.962377">
        <ele>314.005220</ele>
        <time>2021-11-20T19:41:39.762Z</time>
      </trkpt>
      <trkpt lat="47.541316" lon="7.962197">
        <ele>313.753188</ele>
        <time>2021-11-20T19:41:41.066Z</time>
      </trkpt>
      <trkpt lat="47.541242" lon="7.961294">
        <ele>312.058114</ele>
        <time>2021-11-20T19:41:47.713Z</time>
      </trkpt>
      <trkpt lat="47.541153" lon="7.960814">
        <ele>311.130517</ele>
        <time>2021-11-20T19:41:51.243Z</time>
      </trkpt>
      <trkpt lat="47.541060" lon="7.960321">
        <ele>310.176624</ele>
        <time>2021-11-20T19:41:54.833Z</time>
      </trkpt>
      <trkpt lat="47.541027" lon="7.959944">
        <ele>309.468208</ele>
        <time>2021-11-20T19:41:57.336Z</time>
      </trkpt>
      <trkpt lat="47.541019" lon="7.959792">
        <ele>309.184098</ele>
        <time>2021-11-20T19:41:58.380Z</time>
      </trkpt>
      <trkpt lat="47.541012" lon="7.959578">
        <ele>308.750061</ele>
        <time>2021-11-20T19:41:59.855Z</time>
      </trkpt>
      <trkpt lat="47.541016" lon="7.959388">
        <ele>308.301286</ele>
        <time>2021-11-20T19:42:01.058Z</time>
      </trkpt>
      <trkpt lat="47.541081" lon="7.958828">
        <ele>306.959826</ele>
        <time>2021-11-20T19:42:04.826Z</time>
      </trkpt>
      <trkpt lat="47.541226" lon="7.958150">
        <ele>305.280788</ele>
        <time>2021-11-20T19:42:09.587Z</time>
      </trkpt>
      <trkpt lat="47.541305" lon="7.957787">
        <ele>304.380380</ele>
        <time>2021-11-20T19:42:12.071Z</time>
      </trkpt>
      <trkpt lat="47.541355" lon="7.957559">
        <ele>303.814425</ele>
        <time>2021-11-20T19:42:13.773Z</time>
      </trkpt>
      <trkpt lat="47.541450" lon="7.956897">
        <ele>302.466863</ele>
        <time>2021-11-20T19:42:18.407Z</time>
      </trkpt>
      <trkpt lat="47.541464" lon="7.956698">
        <ele>302.283962</ele>
        <time>2021-11-20T19:42:19.812Z</time>
      </trkpt>
      <trkpt lat="47.541533" lon="7.955526">
        <ele>301.208512</ele>
        <time>2021-11-20T19:42:28.647Z</time>
      </trkpt>
      <trkpt lat="47.541554" lon="7.955311">
        <ele>301.009923</ele>
        <time>2021-11-20T19:42:30.684Z</time>
      </trkpt>
      <trkpt lat="47.541735" lon="7.953892">
        <ele>300.272693</ele>
        <time>2021-11-20T19:42:44.893Z</time>
      </trkpt>
      <trkpt lat="47.541773" lon="7.953695">
        <ele>300.303969</ele>
        <time>2021-11-20T19:42:47.141Z</time>
      </trkpt>
      <trkpt lat="47.541791" lon="7.953601">
        <ele>300.318885</ele>
        <time>2021-11-20T19:42:48.175Z</time>
      </trkpt>
      <trkpt lat="47.541991" lon="7.952667">
        <ele>300.468465</ele>
        <time>2021-11-20T19:42:59.031Z</time>
      </trkpt>
      <trkpt lat="47.542169" lon="7.951815">
        <ele>300.604514</ele>
        <time>2021-11-20T19:43:08.769Z</time>
      </trkpt>
      <trkpt lat="47.542192" lon="7.951713">
        <ele>300.620742</ele>
        <time>2021-11-20T19:43:10.032Z</time>
      </trkpt>
      <trkpt lat="47.542357" lon="7.951037">
        <ele>300.729214</ele>
        <time>2021-11-20T19:43:17.496Z</time>
      </trkpt>
      <trkpt lat="47.542444" lon="7.950687">
        <ele>300.785496</ele>
        <time>2021-11-20T19:43:21.327Z</time>
      </trkpt>
      <trkpt lat="47.542546" lon="7.950274">
        <ele>300.851858</ele>
        <time>2021-11-20T19:43:25.674Z</time>
      </trkpt>
      <trkpt lat="47.542554" lon="7.950231">
        <ele>300.858588</ele>
        <time>2021-11-20T19:43:26.161Z</time>
      </trkpt>
      <trkpt lat="47.542560" lon="7.950202">
        <ele>300.863165</ele>
        <time>2021-11-20T19:43:26.494Z</time>
      </trkpt>
      <trkpt lat="47.542609" lon="7.949914">
        <ele>300.907984</ele>
        <time>2021-11-20T19:43:29.493Z</time>
      </trkpt>
      <trkpt lat="47.542719" lon="7.949175">
        <ele>301.118138</ele>
        <time>2021-11-20T19:43:37.396Z</time>
      </trkpt>
      <trkpt lat="47.542826" lon="7.948298">
        <ele>301.788458</ele>
        <time>2021-11-20T19:43:48.339Z</time>
      </trkpt>
      <trkpt lat="47.542838" lon="7.948225">
        <ele>301.844969</ele>
        <time>2021-11-20T19:43:49.167Z</time>
      </trkpt>
      <trkpt lat="47.542875" lon="7.948001">
        <ele>302.018421</ele>
        <time>2021-11-20T19:43:52.050Z</time>
      </trkpt>
      <trkpt lat="47.542928" lon="7.947798">
        <ele>302.182128</ele>
        <time>2021-11-20T19:43:54.973Z</time>
      </trkpt>
      <trkpt lat="47.542957" lon="7.947651">
        <ele>302.297318</ele>
        <time>2021-11-20T19:43:56.681Z</time>
      </trkpt>
      <trkpt lat="47.543050" lon="7.947411">
        <ele>302.505461</ele>
        <time>2021-11-20T19:44:01.045Z</time>
      </trkpt>
      <trkpt lat="47.543087" lon="7.947317">
        <ele>302.587304</ele>
        <time>2021-11-20T19:44:02.324Z</time>
      </trkpt>
      <trkpt lat="47.543092" lon="7.947257">
        <ele>302.632775</ele>
        <time>2021-11-20T19:44:03.114Z</time>
      </trkpt>
      <trkpt lat="47.543097" lon="7.947186">
        <ele>302.686467</ele>
        <time>2021-11-20T19:44:03.963Z</time>
      </trkpt>
      <trkpt lat="47.543086" lon="7.947052">
        <ele>302.787996</ele>
        <time>2021-11-20T19:44:05.793Z</time>
      </trkpt>
      <trkpt lat="47.543056" lon="7.946935">
        <ele>302.882132</ele>
        <time>2021-11-20T19:44:08.160Z</time>
      </trkpt>
      <trkpt lat="47.543045" lon="7.946881">
        <ele>302.924556</ele>
        <time>2021-11-20T19:44:09.272Z</time>
      </trkpt>
      <trkpt lat="47.542982" lon="7.946547">
        <ele>303.304630</ele>
        <time>2021-11-20T19:44:13.871Z</time>
      </trkpt>
      <trkpt lat="47.542974" lon="7.946495">
        <ele>303.370851</ele>
        <time>2021-11-20T19:44:15.085Z</time>
      </trkpt>
      <trkpt lat="47.542960" lon="7.946400">
        <ele>303.491586</ele>
        <time>2021-11-20T19:44:16.921Z</time>
      </trkpt>
      <trkpt lat="47.542916" lon="7.945730">
        <ele>304.327421</ele>
        <time>2021-11-20T19:44:27.497Z</time>
      </trkpt>
      <trkpt lat="47.542913" lon="7.945267">
        <ele>304.902332</ele>
        <time>2021-11-20T19:44:34.984Z</time>
      </trkpt>
      <trkpt lat="47.543007" lon="7.943867">
        <ele>306.342515</ele>
        <time>2021-11-20T19:44:55.723Z</time>
      </trkpt>
      <trkpt lat="47.543161" lon="7.942213">
        <ele>306.538016</ele>
        <time>2021-11-20T19:45:14.129Z</time>
      </trkpt>
      <trkpt lat="47.543435" lon="7.940670">
        <ele>305.736922</ele>
        <time>2021-11-20T19:45:27.077Z</time>
      </trkpt>
      <trkpt lat="47.543826" lon="7.939433">
        <ele>304.351833</ele>
        <time>2021-11-20T19:45:37.479Z</time>
      </trkpt>
      <trkpt lat="47.544472" lon="7.937932">
        <ele>302.277865</ele>
        <time>2021-11-20T19:45:50.802Z</time>
      </trkpt>
      <trkpt lat="47.544705" lon="7.937395">
        <ele>301.503867</ele>
        <time>2021-11-20T19:45:55.642Z</time>
      </trkpt>
      <trkpt lat="47.544903" lon="7.936917">
        <ele>300.823891</ele>
        <time>2021-11-20T19:45:59.903Z</time>
      </trkpt>
      <trkpt lat="47.545074" lon="7.936484">
        <ele>300.335097</ele>
        <time>2021-11-20T19:46:03.733Z</time>
      </trkpt>
      <trkpt lat="47.545457" lon="7.935110">
        <ele>298.986708</ele>
        <time>2021-11-20T19:46:15.102Z</time>
      </trkpt>
      <trkpt lat="47.545674" lon="7.933625">
        <ele>298.535664</ele>
        <time>2021-11-20T19:46:28.182Z</time>
      </trkpt>
      <trkpt lat="47.545702" lon="7.933290">
        <ele>298.656763</ele>
        <time>2021-11-20T19:46:31.762Z</time>
      </trkpt>
      <trkpt lat="47.545724" lon="7.932758">
        <ele>298.847976</ele>
        <time>2021-11-20T19:46:38.029Z</time>
      </trkpt>
      <trkpt lat="47.545721" lon="7.931992">
        <ele>299.122782</ele>
        <time>2021-11-20T19:46:48.068Z</time>
      </trkpt>
      <trkpt lat="47.545696" lon="7.931497">
        <ele>299.487890</ele>
        <time>2021-11-20T19:46:55.274Z</time>
      </trkpt>
      <trkpt lat="47.545661" lon="7.930955">
        <ele>300.190476</ele>
        <time>2021-11-20T19:47:03.969Z</time>
      </trkpt>
      <trkpt lat="47.545563" lon="7.929641">
        <ele>301.896374</ele>
        <time>2021-11-20T19:47:26.309Z</time>
      </trkpt>
      <trkpt lat="47.545475" lon="7.928419">
        <ele>302.213784</ele>
        <time>2021-11-20T19:47:42.727Z</time>
      </trkpt>
      <trkpt lat="47.545421" lon="7.927686">
        <ele>301.684280</ele>
        <time>2021-11-20T19:47:49.063Z</time>
      </trkpt>
      <trkpt lat="47.545406" lon="7.927306">
        <ele>301.410929</ele>
        <time>2021-11-20T19:47:51.861Z</time>
      </trkpt>
      <trkpt lat="47.545407" lon="7.927001">
        <ele>301.191901</ele>
        <time>2021-11-20T19:47:54.247Z</time>
      </trkpt>
      <trkpt lat="47.545409" lon="7.926773">
        <ele>301.028157</ele>
        <time>2021-11-20T19:47:55.819Z</time>
      </trkpt>
      <trkpt lat="47.545413" lon="7.926263">
        <ele>300.428354</ele>
        <time>2021-11-20T19:47:59.361Z</time>
      </trkpt>
      <trkpt lat="47.545416" lon="7.925999">
        <ele>299.756765</ele>
        <time>2021-11-20T19:48:01.272Z</time>
      </trkpt>
      <trkpt lat="47.545417" lon="7.925848">
        <ele>299.372672</ele>
        <time>2021-11-20T19:48:02.212Z</time>
      </trkpt>
      <trkpt lat="47.545446" lon="7.925350">
        <ele>298.101286</ele>
        <time>2021-11-20T19:48:05.521Z</time>
      </trkpt>
      <trkpt lat="47.545466" lon="7.924880">
        <ele>296.903451</ele>
        <time>2021-11-20T19:48:08.602Z</time>
      </trkpt>
      <trkpt lat="47.545481" lon="7.924396">
        <ele>295.671083</ele>
        <time>2021-11-20T19:48:11.704Z</time>
      </trkpt>
      <trkpt lat="47.545521" lon="7.923709">
        <ele>293.944969</ele>
        <time>2021-11-20T19:48:16.157Z</time>
      </trkpt>
      <trkpt lat="47.545536" lon="7.923407">
        <ele>293.537537</ele>
        <time>2021-11-20T19:48:18.546Z</time>
      </trkpt>
      <trkpt lat="47.545553" lon="7.923142">
        <ele>293.179379</ele>
        <time>2021-11-20T19:48:20.267Z</time>
      </trkpt>
      <trkpt lat="47.545587" lon="7.922895">
        <ele>292.840207</ele>
        <time>2021-11-20T19:48:22.668Z</time>
      </trkpt>
      <trkpt lat="47.545641" lon="7.922610">
        <ele>292.441927</ele>
        <time>2021-11-20T19:48:24.667Z</time>
      </trkpt>
      <trkpt lat="47.545690" lon="7.922369">
        <ele>292.103278</ele>
        <time>2021-11-20T19:48:27.358Z</time>
      </trkpt>
      <trkpt lat="47.545699" lon="7.922325">
        <ele>292.041419</ele>
        <time>2021-11-20T19:48:27.619Z</time>
      </trkpt>
      <trkpt lat="47.545714" lon="7.922249">
        <ele>291.934881</ele>
        <time>2021-11-20T19:48:28.209Z</time>
      </trkpt>
      <trkpt lat="47.545778" lon="7.921947">
        <ele>291.508994</ele>
        <time>2021-11-20T19:48:31.365Z</time>
      </trkpt>
      <trkpt lat="47.545810" lon="7.921755">
        <ele>291.242906</ele>
        <time>2021-11-20T19:48:32.723Z</time>
      </trkpt>
      <trkpt lat="47.545881" lon="7.921096">
        <ele>290.380943</ele>
        <time>2021-11-20T19:48:38.071Z</time>
      </trkpt>
      <trkpt lat="47.545913" lon="7.920765">
        <ele>290.282828</ele>
        <time>2021-11-20T19:48:40.938Z</time>
      </trkpt>
      <trkpt lat="47.545973" lon="7.920313">
        <ele>290.147659</ele>
        <time>2021-11-20T19:48:46.085Z</time>
      </trkpt>
      <trkpt lat="47.546128" lon="7.919617">
        <ele>289.932607</ele>
        <time>2021-11-20T19:48:52.548Z</time>
      </trkpt>
      <trkpt lat="47.546262" lon="7.919081">
        <ele>289.764891</ele>
        <time>2021-11-20T19:48:58.547Z</time>
      </trkpt>
      <trkpt lat="47.546821" lon="7.916867">
        <ele>288.973295</ele>
        <time>2021-11-20T19:49:19.300Z</time>
      </trkpt>
      <trkpt lat="47.547032" lon="7.916218">
        <ele>288.723409</ele>
        <time>2021-11-20T19:49:25.790Z</time>
      </trkpt>
      <trkpt lat="47.547091" lon="7.916039">
        <ele>288.686766</ele>
        <time>2021-11-20T19:49:27.608Z</time>
      </trkpt>
      <trkpt lat="47.547113" lon="7.915971">
        <ele>288.688523</ele>
        <time>2021-11-20T19:49:28.207Z</time>
      </trkpt>
      <trkpt lat="47.547423" lon="7.915080">
        <ele>288.711877</ele>
        <time>2021-11-20T19:49:37.851Z</time>
      </trkpt>
      <trkpt lat="47.547994" lon="7.913433">
        <ele>288.967509</ele>
        <time>2021-11-20T19:49:57.570Z</time>
      </trkpt>
      <trkpt lat="47.548027" lon="7.913334">
        <ele>289.036679</ele>
        <time>2021-11-20T19:49:58.930Z</time>
      </trkpt>
      <trkpt lat="47.548412" lon="7.912168">
        <ele>289.849843</ele>
        <time>2021-11-20T19:50:15.333Z</time>
      </trkpt>
      <trkpt lat="47.549012" lon="7.910340">
        <ele>291.343896</ele>
        <time>2021-11-20T19:50:42.293Z</time>
      </trkpt>
      <trkpt lat="47.549102" lon="7.910058">
        <ele>291.600298</ele>
        <time>2021-11-20T19:50:46.440Z</time>
      </trkpt>
      <trkpt lat="47.549195" lon="7.909756">
        <ele>291.873148</ele>
        <time>2021-11-20T19:50:50.718Z</time>
      </trkpt>
      <trkpt lat="47.549267" lon="7.909517">
        <ele>292.088277</ele>
        <time>2021-11-20T19:50:54.139Z</time>
      </trkpt>
      <trkpt lat="47.549319" lon="7.909343">
        <ele>292.244692</ele>
        <time>2021-11-20T19:50:56.536Z</time>
      </trkpt>
      <trkpt lat="47.549520" lon="7.908678">
        <ele>293.010879</ele>
        <time>2021-11-20T19:51:06.022Z</time>
      </trkpt>
      <trkpt lat="47.549539" lon="7.908625">
        <ele>293.095017</ele>
        <time>2021-11-20T19:51:06.769Z</time>
      </trkpt>
      <trkpt lat="47.550497" lon="7.905558">
        <ele>298.697479</ele>
        <time>2021-11-20T19:52:01.630Z</time>
      </trkpt>
      <trkpt lat="47.550283" lon="7.905413">
        <ele>299.469762</ele>
        <time>2021-11-20T19:52:09.796Z</time>
      </trkpt>
      <trkpt lat="47.550067" lon="7.905245">
        <ele>300.270392</ele>
        <time>2021-11-20T19:52:18.482Z</time>
      </trkpt>
      <trkpt lat="47.549867" lon="7.905155">
        <ele>300.956379</ele>
        <time>2021-11-20T19:52:26.111Z</time>
      </trkpt>
      <trkpt lat="47.549868" lon="7.905010">
        <ele>301.277586</ele>
        <time>2021-11-20T19:52:29.516Z</time>
      </trkpt>
      <trkpt lat="47.550025" lon="7.904774">
        <ele>302.011598</ele>
        <time>2021-11-20T19:52:37.667Z</time>
      </trkpt>
      <trkpt lat="47.550302" lon="7.904164">
        <ele>303.827144</ele>
        <time>2021-11-20T19:52:56.044Z</time>
      </trkpt>
      <trkpt lat="47.550498" lon="7.903445">
        <ele>305.775113</ele>
        <time>2021-11-20T19:53:15.532Z</time>
      </trkpt>
      <trkpt lat="47.550688" lon="7.902451">
        <ele>308.370356</ele>
        <time>2021-11-20T19:53:38.045Z</time>
      </trkpt>
      <trkpt lat="47.550703" lon="7.902267">
        <ele>308.835943</ele>
        <time>2021-11-20T19:53:42.293Z</time>
      </trkpt>
      <trkpt lat="47.550728" lon="7.901957">
        <ele>309.691179</ele>
        <time>2021-11-20T19:53:49.339Z</time>
      </trkpt>
      <trkpt lat="47.550757" lon="7.901591">
        <ele>310.713503</ele>
        <time>2021-11-20T19:53:57.954Z</time>
      </trkpt>
      <trkpt lat="47.550769" lon="7.901362">
        <ele>311.350702</ele>
        <time>2021-11-20T19:54:03.781Z</time>
      </trkpt>
      <trkpt lat="47.550801" lon="7.900244">
        <ele>314.455024</ele>
        <time>2021-11-20T19:54:28.236Z</time>
      </trkpt>
      <trkpt lat="47.550819" lon="7.898109">
        <ele>319.765943</ele>
        <time>2021-11-20T19:55:15.228Z</time>
      </trkpt>
      <trkpt lat="47.550648" lon="7.896481">
        <ele>322.994486</ele>
        <time>2021-11-20T19:55:42.883Z</time>
      </trkpt>
      <trkpt lat="47.550639" lon="7.896345">
        <ele>323.114643</ele>
        <time>2021-11-20T19:55:45.258Z</time>
      </trkpt>
      <trkpt lat="47.550660" lon="7.896255">
        <ele>323.198376</ele>
        <time>2021-11-20T19:55:46.059Z</time>
      </trkpt>
      <trkpt lat="47.550838" lon="7.895509">
        <ele>323.894111</ele>
        <time>2021-11-20T19:55:56.227Z</time>
      </trkpt>
      <trkpt lat="47.550878" lon="7.895158">
        <ele>324.207111</ele>
        <time>2021-11-20T19:56:00.289Z</time>
      </trkpt>
      <trkpt lat="47.550908" lon="7.894308">
        <ele>324.962254</ele>
        <time>2021-11-20T19:56:10.761Z</time>
      </trkpt>
      <trkpt lat="47.550892" lon="7.893176">
        <ele>327.186652</ele>
        <time>2021-11-20T19:56:25.479Z</time>
      </trkpt>
      <trkpt lat="47.550904" lon="7.891725">
        <ele>330.037478</ele>
        <time>2021-11-20T19:56:55.241Z</time>
      </trkpt>
      <trkpt lat="47.550915" lon="7.890600">
        <ele>334.432990</ele>
        <time>2021-11-20T19:57:24.081Z</time>
      </trkpt>
      <trkpt lat="47.550833" lon="7.889069">
        <ele>340.647095</ele>
        <time>2021-11-20T19:58:06.715Z</time>
      </trkpt>
      <trkpt lat="47.550831" lon="7.888611">
        <ele>342.493421</ele>
        <time>2021-11-20T19:58:19.285Z</time>
      </trkpt>
      <trkpt lat="47.550789" lon="7.887816">
        <ele>345.705527</ele>
        <time>2021-11-20T19:58:39.897Z</time>
      </trkpt>
      <trkpt lat="47.550758" lon="7.887295">
        <ele>347.812290</ele>
        <time>2021-11-20T19:58:53.718Z</time>
      </trkpt>
      <trkpt lat="47.550677" lon="7.886476">
        <ele>351.146511</ele>
        <time>2021-11-20T19:59:15.207Z</time>
      </trkpt>
      <trkpt lat="47.550548" lon="7.885799">
        <ele>353.545595</ele>
        <time>2021-11-20T19:59:32.410Z</time>
      </trkpt>
      <trkpt lat="47.550391" lon="7.885109">
        <ele>355.919092</ele>
        <time>2021-11-20T19:59:50.047Z</time>
      </trkpt>
      <trkpt lat="47.550332" lon="7.884727">
        <ele>357.196450</ele>
        <time>2021-11-20T19:59:58.738Z</time>
      </trkpt>
      <trkpt lat="47.550234" lon="7.883221">
        <ele>361.654591</ele>
        <time>2021-11-20T20:00:31.569Z</time>
      </trkpt>
      <trkpt lat="47.549927" lon="7.881490">
        <ele>365.899855</ele>
        <time>2021-11-20T20:01:03.833Z</time>
      </trkpt>
      <trkpt lat="47.549726" lon="7.880786">
        <ele>367.916870</ele>
        <time>2021-11-20T20:01:19.810Z</time>
      </trkpt>
      <trkpt lat="47.549327" lon="7.879547">
        <ele>371.835089</ele>
        <time>2021-11-20T20:01:49.594Z</time>
      </trkpt>
      <trkpt lat="47.549318" lon="7.879398">
        <ele>372.262062</ele>
        <time>2021-11-20T20:01:52.782Z</time>
      </trkpt>
      <trkpt lat="47.549140" lon="7.879391">
        <ele>373.015038</ele>
        <time>2021-11-20T20:01:59.652Z</time>
      </trkpt>
      <trkpt lat="47.548718" lon="7.879258">
        <ele>374.609731</ele>
        <time>2021-11-20T20:02:13.323Z</time>
      </trkpt>
      <trkpt lat="47.548422" lon="7.878959">
        <ele>375.459815</ele>
        <time>2021-11-20T20:02:23.970Z</time>
      </trkpt>
      <trkpt lat="47.548234" lon="7.878638">
        <ele>376.140489</ele>
        <time>2021-11-20T20:02:32.402Z</time>
      </trkpt>
      <trkpt lat="47.547992" lon="7.877974">
        <ele>377.349087</ele>
        <time>2021-11-20T20:02:45.499Z</time>
      </trkpt>
      <trkpt lat="47.547574" lon="7.876801">
        <ele>377.687850</ele>
        <time>2021-11-20T20:02:59.262Z</time>
      </trkpt>
      <trkpt lat="47.547126" lon="7.875801">
        <ele>375.751676</ele>
        <time>2021-11-20T20:03:08.045Z</time>
      </trkpt>
      <trkpt lat="47.546309" lon="7.874154">
        <ele>369.777765</ele>
        <time>2021-11-20T20:03:21.234Z</time>
      </trkpt>
      <trkpt lat="47.546135" lon="7.873859">
        <ele>368.221795</ele>
        <time>2021-11-20T20:03:23.616Z</time>
      </trkpt>
      <trkpt lat="47.546077" lon="7.873763">
        <ele>367.710080</ele>
        <time>2021-11-20T20:03:24.427Z</time>
      </trkpt>
      <trkpt lat="47.545934" lon="7.873549">
        <ele>366.514074</ele>
        <time>2021-11-20T20:03:26.231Z</time>
      </trkpt>
      <trkpt lat="47.545746" lon="7.873302">
        <ele>365.035518</ele>
        <time>2021-11-20T20:03:28.519Z</time>
      </trkpt>
      <trkpt lat="47.545515" lon="7.873015">
        <ele>363.192134</ele>
        <time>2021-11-20T20:03:31.218Z</time>
      </trkpt>
      <trkpt lat="47.545478" lon="7.872968">
        <ele>362.860112</ele>
        <time>2021-11-20T20:03:31.660Z</time>
      </trkpt>
      <trkpt lat="47.545375" lon="7.872836">
        <ele>361.932346</ele>
        <time>2021-11-20T20:03:32.853Z</time>
      </trkpt>
      <trkpt lat="47.545131" lon="7.872664">
        <ele>360.091583</ele>
        <time>2021-11-20T20:03:35.312Z</time>
      </trkpt>
      <trkpt lat="47.544883" lon="7.872555">
        <ele>358.329362</ele>
        <time>2021-11-20T20:03:37.635Z</time>
      </trkpt>
      <trkpt lat="47.544390" lon="7.872423">
        <ele>354.916513</ele>
        <time>2021-11-20T20:03:42.097Z</time>
      </trkpt>
      <trkpt lat="47.543332" lon="7.872237">
        <ele>348.746767</ele>
        <time>2021-11-20T20:03:51.859Z</time>
      </trkpt>
      <trkpt lat="47.543251" lon="7.872152">
        <ele>348.264693</ele>
        <time>2021-11-20T20:03:52.808Z</time>
      </trkpt>
      <trkpt lat="47.543233" lon="7.872082">
        <ele>348.019125</ele>
        <time>2021-11-20T20:03:53.230Z</time>
      </trkpt>
      <trkpt lat="47.543013" lon="7.872182">
        <ele>346.901528</ele>
        <time>2021-11-20T20:03:55.457Z</time>
      </trkpt>
      <trkpt lat="47.542919" lon="7.872226">
        <ele>346.422768</ele>
        <time>2021-11-20T20:03:56.386Z</time>
      </trkpt>
      <trkpt lat="47.542814" lon="7.872280">
        <ele>345.882979</ele>
        <time>2021-11-20T20:03:57.437Z</time>
      </trkpt>
      <trkpt lat="47.542714" lon="7.872334">
        <ele>345.366068</ele>
        <time>2021-11-20T20:03:58.503Z</time>
      </trkpt>
      <trkpt lat="47.542537" lon="7.872430">
        <ele>344.450662</ele>
        <time>2021-11-20T20:04:00.249Z</time>
      </trkpt>
      <trkpt lat="47.542436" lon="7.872494">
        <ele>343.917164</ele>
        <time>2021-11-20T20:04:01.542Z</time>
      </trkpt>
      <trkpt lat="47.542394" lon="7.872341">
        <ele>343.375687</ele>
        <time>2021-11-20T20:04:02.640Z</time>
      </trkpt>
      <trkpt lat="47.542218" lon="7.871866">
        <ele>342.713833</ele>
        <time>2021-11-20T20:04:06.398Z</time>
      </trkpt>
      <trkpt lat="47.542091" lon="7.871721">
        <ele>342.713833</ele>
        <time>2021-11-20T20:04:07.972Z</time>
      </trkpt>
      <trkpt lat="47.542067" lon="7.871664">
        <ele>342.713833</ele>
        <time>2021-11-20T20:04:08.666Z</time>
      </trkpt>
      <trkpt lat="47.542039" lon="7.871556">
        <ele>342.713833</ele>
        <time>2021-11-20T20:04:09.531Z</time>
      </trkpt>
      <trkpt lat="47.541953" lon="7.871286">
        <ele>342.713833</ele>
        <time>2021-11-20T20:04:11.936Z</time>
      </trkpt>
      <trkpt lat="47.541819" lon="7.871079">
        <ele>342.713833</ele>
        <time>2021-11-20T20:04:14.131Z</time>
      </trkpt>
      <trkpt lat="47.541796" lon="7.871042">
        <ele>342.713833</ele>
        <time>2021-11-20T20:04:14.512Z</time>
      </trkpt>
      <trkpt lat="47.541714" lon="7.870901">
        <ele>342.713833</ele>
        <time>2021-11-20T20:04:16.039Z</time>
      </trkpt>
      <trkpt lat="47.541576" lon="7.870664">
        <ele>342.713833</ele>
        <time>2021-11-20T20:04:18.418Z</time>
      </trkpt>
      <trkpt lat="47.541576" lon="7.870664">
        <ele>342.713833</ele>
        <time>2021-11-20T20:04:18.457Z</time>
      </trkpt>
      <trkpt lat="47.541550" lon="7.870601">
        <ele>342.713833</ele>
        <time>2021-11-20T20:04:19.007Z</time>
      </trkpt>
      <trkpt lat="47.541521" lon="7.870517">
        <ele>342.713833</ele>
        <time>2021-11-20T20:04:19.721Z</time>
      </trkpt>
      <trkpt lat="47.541502" lon="7.870453">
        <ele>342.713833</ele>
        <time>2021-11-20T20:04:20.428Z</time>
      </trkpt>
    </trkseg>
  </trk>
</gpx>